Time,TemperatureF,DewpointF,PressureIn,WindDirection,WindDirectionDegrees,WindSpeedMPH,WindSpeedGustMPH,Humidity,HourlyPrecipIn,Conditions,Clouds,dailyrainin,SoftwareType,DateUTC
2013-08-22 00:00:00,74.3,74.3,30.15,SE,135,1.6,1.6,100,0.00,,,0.00,VWS V14.01,2013-08-22 04:00:00,
2013-08-22 00:01:00,74.3,74.3,30.15,SE,135,1.3,1.3,100,0.00,,CLR,0.00,VWS V14.01,2013-08-22 04:01:00,
2013-08-22 00:02:00,74.3,74.3,30.15,SE,135,0.9,0.9,100,0.00,,,0.00,VWS V14.01,2013-08-22 04:02:00,
2013-08-22 00:03:00,74.3,74.3,30.15,SE,135,0.0,0.0,100,0.00,,CLR,0.00,VWS V14.01,2013-08-22 04:03:00,
2013-08-22 00:04:00,74.3,74.3,30.15,SE,135,0.9,0.9,100,0.00,,,0.00,VWS V14.01,2013-08-22 04:04:00,
2013-08-22 00:05:00,74.2,74.2,30.15,South,180,2.0,2.0,100,0.00,,CLR,0.00,VWS V14.01,2013-08-22 04:05:00,
2013-08-22 00:06:00,74.3,74.3,30.15,South,180,1.3,1.3,100,0.00,,,0.00,VWS V14.01,2013-08-22 04:06:00,
2013-08-22 00:07:00,74.3,74.3,30.15,South,180,0.9,0.9,100,0.00,,CLR,0.00,VWS V14.01,2013-08-22 04:07:00,
2013-08-22 00:08:00,74.3,74.3,30.15,SSW,202,0.0,0.0,100,0.00,,CLR,0.00,VWS V14.01,2013-08-22 04:08:00,
2013-08-22 00:09:00,74.3,74.3,30.15,SSW,202,0.0,0.0,100,0.00,,CLR,0.00,VWS V14.01,2013-08-22 04:09:00,
2013-08-22 00:10:00,74.3,74.3,30.15,West,270,0.0,0.0,100,0.00,,,0.00,VWS V14.01,2013-08-22 04:10:00,
2013-08-22 00:11:00,74.3,74.3,30.15,WSW,248,0.0,0.0,100,0.00,,,0.00,VWS V14.01,2013-08-22 04:11:00,
2013-08-22 00:12:00,74.3,74.3,30.15,SE,135,1.6,1.6,100,0.00,,,0.00,VWS V14.01,2013-08-22 04:12:00,
2013-08-22 00:13:00,74.3,74.3,30.15,South,180,2.7,2.7,100,0.00,,CLR,0.00,VWS V14.01,2013-08-22 04:13:00,
2013-08-22 00:14:00,74.3,74.3,30.15,South,180,2.7,2.7,100,0.00,,,0.00,VWS V14.01,2013-08-22 04:14:00,
2013-08-22 00:15:00,74.5,74.5,30.15,SSE,158,1.1,1.1,100,0.00,,,0.00,VWS V14.01,2013-08-22 04:15:00,
2013-08-22 00:16:00,74.5,74.5,30.15,WSW,248,1.3,1.3,100,0.00,,,0.00,VWS V14.01,2013-08-22 04:16:00,
2013-08-22 00:17:00,74.7,74.7,30.15,South,180,1.3,1.3,100,0.00,,,0.00,VWS V14.01,2013-08-22 04:17:00,
2013-08-22 00:18:00,74.7,74.7,30.15,SSE,158,1.3,1.3,100,0.00,,CLR,0.00,VWS V14.01,2013-08-22 04:18:00,
2013-08-22 00:19:00,74.7,74.7,30.15,SSE,158,0.0,0.0,100,0.00,,,0.00,VWS V14.01,2013-08-22 04:19:00,
2013-08-22 00:20:00,74.7,74.7,30.15,SSE,158,2.5,2.5,100,0.00,,,0.00,VWS V14.01,2013-08-22 04:20:00,
2013-08-22 00:21:00,74.7,74.7,30.15,SSE,158,2.5,2.5,100,0.00,,,0.00,VWS V14.01,2013-08-22 04:21:00,
2013-08-22 00:22:00,74.7,74.7,30.15,South,180,0.9,0.9,100,0.00,,,0.00,VWS V14.01,2013-08-22 04:22:00,
2013-08-22 00:23:00,74.7,74.7,30.15,SSE,158,2.0,2.0,100,0.00,,CLR,0.00,VWS V14.01,2013-08-22 04:23:00,
2013-08-22 00:24:00,74.7,74.7,30.15,ESE,112,1.6,1.6,100,0.00,,,0.00,VWS V14.01,2013-08-22 04:24:00,
2013-08-22 00:25:00,74.7,74.7,30.15,SE,135,3.4,3.4,100,0.00,,,0.00,VWS V14.01,2013-08-22 04:25:00,
2013-08-22 00:26:00,74.7,74.7,30.15,SSE,158,1.1,1.1,100,0.00,,,0.00,VWS V14.01,2013-08-22 04:26:00,
2013-08-22 00:27:00,74.7,74.7,30.15,SSW,202,0.0,0.0,100,0.00,,,0.00,VWS V14.01,2013-08-22 04:27:00,
2013-08-22 00:28:00,74.7,74.7,30.15,SSW,202,1.3,1.3,100,0.00,,CLR,0.00,VWS V14.01,2013-08-22 04:28:00,
2013-08-22 00:29:00,74.7,74.7,30.15,SSW,202,1.6,1.6,100,0.00,,,0.00,VWS V14.01,2013-08-22 04:29:00,
2013-08-22 00:30:00,74.7,74.7,30.15,SSW,202,0.9,0.9,100,0.00,,,0.00,VWS V14.01,2013-08-22 04:30:00,
2013-08-22 00:31:00,74.7,74.7,30.15,SSW,202,2.5,2.5,100,0.00,,,0.00,VWS V14.01,2013-08-22 04:31:00,
2013-08-22 00:32:00,74.7,74.7,30.15,SSW,202,1.6,1.6,100,0.00,,,0.00,VWS V14.01,2013-08-22 04:32:00,
2013-08-22 00:33:00,74.9,74.9,30.15,SW,225,2.5,2.5,100,0.00,,CLR,0.00,VWS V14.01,2013-08-22 04:33:00,
2013-08-22 00:34:00,74.9,74.9,30.15,SSW,202,2.5,2.5,100,0.00,,,0.00,VWS V14.01,2013-08-22 04:34:00,
2013-08-22 00:35:00,74.9,74.9,30.15,South,180,3.1,3.1,100,0.00,,,0.00,VWS V14.01,2013-08-22 04:35:00,
2013-08-22 00:36:00,74.9,74.9,30.15,SSW,202,2.7,2.7,100,0.00,,,0.00,VWS V14.01,2013-08-22 04:36:00,
2013-08-22 00:37:00,74.9,74.9,30.15,SW,225,1.6,1.6,100,0.00,,,0.00,VWS V14.01,2013-08-22 04:37:00,
2013-08-22 00:38:00,74.9,74.9,30.15,SSW,202,1.6,1.6,100,0.00,,FEW075,0.00,VWS V14.01,2013-08-22 04:38:00,
2013-08-22 00:39:00,74.9,74.9,30.15,SSW,202,1.6,1.6,100,0.00,,,0.00,VWS V14.01,2013-08-22 04:39:00,
2013-08-22 00:40:00,74.9,74.9,30.15,SW,225,1.3,1.3,100,0.00,,,0.00,VWS V14.01,2013-08-22 04:40:00,
2013-08-22 00:41:00,74.9,74.9,30.15,SW,225,1.3,1.3,100,0.00,,,0.00,VWS V14.01,2013-08-22 04:41:00,
2013-08-22 00:42:00,74.9,74.9,30.15,SW,225,2.0,2.0,100,0.00,,,0.00,VWS V14.01,2013-08-22 04:42:00,
2013-08-22 00:43:00,74.9,74.9,30.15,SW,225,2.0,2.0,100,0.00,,FEW075,0.00,VWS V14.01,2013-08-22 04:43:00,
2013-08-22 00:44:00,74.9,74.9,30.15,SW,225,2.0,2.0,100,0.00,,,0.00,VWS V14.01,2013-08-22 04:44:00,
2013-08-22 00:45:00,74.9,74.9,30.15,WSW,248,2.5,2.5,100,0.00,,,0.00,VWS V14.01,2013-08-22 04:45:00,
2013-08-22 00:46:00,74.9,74.9,30.15,SW,225,1.6,1.6,100,0.00,,,0.00,VWS V14.01,2013-08-22 04:46:00,
2013-08-22 00:47:00,74.9,74.9,30.15,WSW,248,2.5,2.5,100,0.00,,,0.00,VWS V14.01,2013-08-22 04:47:00,
2013-08-22 00:48:00,74.9,74.9,30.15,SW,225,2.5,2.5,100,0.00,,FEW075,0.00,VWS V14.01,2013-08-22 04:48:00,
2013-08-22 00:49:00,74.9,74.9,30.15,SW,225,2.5,2.5,100,0.00,,,0.00,VWS V14.01,2013-08-22 04:49:00,
2013-08-22 00:50:00,74.9,74.9,30.15,SW,225,1.6,1.6,100,0.00,,,0.00,VWS V14.01,2013-08-22 04:50:00,
2013-08-22 00:51:00,74.9,74.9,30.15,WSW,248,1.6,1.6,100,0.00,,,0.00,VWS V14.01,2013-08-22 04:51:00,
2013-08-22 00:52:00,74.9,74.9,30.15,WSW,248,1.6,1.6,100,0.00,,,0.00,VWS V14.01,2013-08-22 04:52:00,
2013-08-22 00:53:00,74.9,74.9,30.15,WSW,248,2.5,2.5,100,0.00,,FEW075,0.00,VWS V14.01,2013-08-22 04:53:00,
2013-08-22 00:54:00,74.9,74.9,30.15,WSW,248,2.5,2.5,100,0.00,,,0.00,VWS V14.01,2013-08-22 04:54:00,
2013-08-22 00:55:00,74.9,74.9,30.15,WSW,248,1.3,1.3,100,0.00,,,0.00,VWS V14.01,2013-08-22 04:55:00,
2013-08-22 00:56:00,74.9,74.9,30.15,West,270,2.5,2.5,100,0.00,,,0.00,VWS V14.01,2013-08-22 04:56:00,
2013-08-22 00:57:00,74.9,74.9,30.15,SW,225,3.4,3.4,100,0.00,,,0.00,VWS V14.01,2013-08-22 04:57:00,
2013-08-22 00:58:00,74.9,74.9,30.15,WSW,248,1.6,1.6,100,0.00,,FEW075,0.00,VWS V14.01,2013-08-22 04:58:00,
2013-08-22 00:59:00,74.9,74.9,30.15,WSW,248,1.6,1.6,100,0.00,,,0.00,VWS V14.01,2013-08-22 04:59:00,
2013-08-22 01:00:00,74.9,74.9,30.15,SW,225,2.2,2.2,100,0.00,,,0.00,VWS V14.01,2013-08-22 05:00:00,
2013-08-22 01:01:00,74.9,74.9,30.15,SSW,202,2.2,2.2,100,0.00,,,0.00,VWS V14.01,2013-08-22 05:01:00,
2013-08-22 01:02:00,74.9,74.9,30.15,SSW,202,2.0,2.0,100,0.00,,,0.00,VWS V14.01,2013-08-22 05:02:00,
2013-08-22 01:03:00,74.9,74.9,30.15,SSW,202,2.0,2.0,100,0.00,,FEW075,0.00,VWS V14.01,2013-08-22 05:03:00,
2013-08-22 01:04:00,74.9,74.9,30.15,SSW,202,1.6,1.6,100,0.00,,,0.00,VWS V14.01,2013-08-22 05:04:00,
2013-08-22 01:05:00,74.7,74.7,30.15,SW,225,1.6,1.6,100,0.00,,,0.00,VWS V14.01,2013-08-22 05:05:00,
2013-08-22 01:06:00,74.7,74.7,30.15,SSW,202,1.6,1.6,100,0.00,,,0.00,VWS V14.01,2013-08-22 05:06:00,
2013-08-22 01:07:00,74.7,74.7,30.15,SW,225,1.3,1.3,100,0.00,,,0.00,VWS V14.01,2013-08-22 05:07:00,
2013-08-22 01:08:00,74.7,74.7,30.15,SSW,202,1.3,1.3,100,0.00,,FEW075,0.00,VWS V14.01,2013-08-22 05:08:00,
2013-08-22 01:09:00,74.7,74.7,30.15,SSW,202,1.6,1.6,100,0.00,,,0.00,VWS V14.01,2013-08-22 05:09:00,
2013-08-22 01:10:00,74.7,74.7,30.15,SSW,202,2.0,2.0,100,0.00,,,0.00,VWS V14.01,2013-08-22 05:10:00,
2013-08-22 01:11:00,74.7,74.7,30.15,SSW,202,2.0,2.0,100,0.00,,,0.00,VWS V14.01,2013-08-22 05:11:00,
2013-08-22 01:12:00,74.7,74.7,30.15,SW,225,1.1,1.1,100,0.00,,,0.00,VWS V14.01,2013-08-22 05:12:00,
2013-08-22 01:13:00,74.7,74.7,30.15,SW,225,1.3,1.3,100,0.00,,FEW075,0.00,VWS V14.01,2013-08-22 05:13:00,
2013-08-22 01:14:00,74.7,74.7,30.15,SW,225,1.3,1.3,100,0.00,,,0.00,VWS V14.01,2013-08-22 05:14:00,
2013-08-22 01:15:00,74.7,74.7,30.15,SW,225,0.9,0.9,100,0.00,,,0.00,VWS V14.01,2013-08-22 05:15:00,
2013-08-22 01:16:00,74.7,74.7,30.15,SSW,202,1.1,1.1,100,0.00,,,0.00,VWS V14.01,2013-08-22 05:16:00,
2013-08-22 01:17:00,74.7,74.7,30.15,SSW,202,0.0,0.0,100,0.00,,,0.00,VWS V14.01,2013-08-22 05:17:00,
2013-08-22 01:18:00,74.7,74.7,30.15,SSW,202,0.0,0.0,100,0.00,,FEW075,0.00,VWS V14.01,2013-08-22 05:18:00,
2013-08-22 01:19:00,74.7,74.7,30.15,SSW,202,0.0,0.0,100,0.00,,,0.00,VWS V14.01,2013-08-22 05:19:00,
2013-08-22 01:20:00,74.7,74.7,30.15,SW,225,1.3,1.3,100,0.00,,,0.00,VWS V14.01,2013-08-22 05:20:00,
2013-08-22 01:21:00,74.7,74.7,30.15,SW,225,1.3,1.3,100,0.00,,,0.00,VWS V14.01,2013-08-22 05:21:00,
2013-08-22 01:22:00,74.7,74.7,30.15,SW,225,1.1,1.1,100,0.00,,,0.00,VWS V14.01,2013-08-22 05:22:00,
2013-08-22 01:23:00,74.7,74.7,30.15,SW,225,0.0,0.0,100,0.00,,FEW075,0.00,VWS V14.01,2013-08-22 05:23:00,
2013-08-22 01:24:00,74.7,74.7,30.15,SW,225,0.0,0.0,100,0.00,,,0.00,VWS V14.01,2013-08-22 05:24:00,
2013-08-22 01:25:00,74.7,74.7,30.12,SW,225,0.0,0.0,100,0.00,,,0.00,VWS V14.01,2013-08-22 05:25:00,
2013-08-22 01:26:00,74.7,74.7,30.12,SW,225,0.0,0.0,100,0.00,,,0.00,VWS V14.01,2013-08-22 05:26:00,
2013-08-22 01:27:00,74.7,74.7,30.12,SW,225,0.0,0.0,100,0.00,,,0.00,VWS V14.01,2013-08-22 05:27:00,
2013-08-22 01:28:00,74.7,74.7,30.12,WSW,248,0.9,0.9,100,0.00,,FEW075,0.00,VWS V14.01,2013-08-22 05:28:00,
2013-08-22 01:29:00,74.7,74.7,30.12,SW,225,0.9,0.9,100,0.00,,,0.00,VWS V14.01,2013-08-22 05:29:00,
2013-08-22 01:30:00,74.7,74.7,30.12,WSW,248,0.0,0.0,100,0.00,,,0.00,VWS V14.01,2013-08-22 05:30:00,
2013-08-22 01:31:00,74.7,74.7,30.12,WSW,248,0.0,0.0,100,0.00,,,0.00,VWS V14.01,2013-08-22 05:31:00,
2013-08-22 01:32:00,74.7,74.7,30.12,West,270,0.9,0.9,100,0.00,,,0.00,VWS V14.01,2013-08-22 05:32:00,
2013-08-22 01:33:00,74.7,74.7,30.12,West,270,0.0,0.0,100,0.00,,,0.00,VWS V14.01,2013-08-22 05:33:00,
2013-08-22 01:34:00,74.7,74.7,30.12,WNW,292,0.0,0.0,100,0.00,,FEW075,0.00,VWS V14.01,2013-08-22 05:34:00,
2013-08-22 01:35:00,74.7,74.7,30.12,WNW,292,0.0,0.0,100,0.00,,,0.00,VWS V14.01,2013-08-22 05:35:00,
2013-08-22 01:36:00,74.7,74.7,30.12,WNW,292,0.0,0.0,100,0.00,,,0.00,VWS V14.01,2013-08-22 05:36:00,
2013-08-22 01:37:00,74.7,74.7,30.12,WNW,292,0.0,0.0,100,0.00,,,0.00,VWS V14.01,2013-08-22 05:37:00,
2013-08-22 01:38:00,74.7,74.7,30.12,West,270,0.0,0.0,100,0.00,,,0.00,VWS V14.01,2013-08-22 05:38:00,
2013-08-22 01:39:00,74.7,74.7,30.15,West,270,0.0,0.0,100,0.00,,,0.00,VWS V14.01,2013-08-22 05:39:00,
2013-08-22 01:40:00,74.7,74.7,30.15,West,270,1.6,1.6,100,0.00,,,0.00,VWS V14.01,2013-08-22 05:40:00,
2013-08-22 01:41:00,74.7,74.7,30.15,West,270,1.6,1.6,100,0.00,,,0.00,VWS V14.01,2013-08-22 05:41:00,
2013-08-22 01:42:00,74.7,74.7,30.15,West,270,1.6,1.6,100,0.00,,,0.00,VWS V14.01,2013-08-22 05:42:00,
2013-08-22 01:43:00,74.7,74.7,30.15,West,270,2.0,2.0,100,0.00,,,0.00,VWS V14.01,2013-08-22 05:43:00,
2013-08-22 01:44:00,74.7,74.7,30.15,WSW,248,1.1,1.1,100,0.00,,,0.00,VWS V14.01,2013-08-22 05:44:00,
2013-08-22 01:45:00,74.7,74.7,30.15,WSW,248,1.6,1.6,100,0.00,,,0.00,VWS V14.01,2013-08-22 05:45:00,
2013-08-22 01:46:00,74.7,74.7,30.15,West,270,2.5,2.5,100,0.00,,,0.00,VWS V14.01,2013-08-22 05:46:00,
2013-08-22 01:47:00,74.7,74.7,30.15,West,270,2.5,2.5,100,0.00,,,0.00,VWS V14.01,2013-08-22 05:47:00,
2013-08-22 01:48:00,74.7,74.7,30.15,West,270,2.0,2.0,100,0.00,,,0.00,VWS V14.01,2013-08-22 05:48:00,
2013-08-22 01:49:00,74.7,74.7,30.15,West,270,1.6,1.6,100,0.00,,,0.00,VWS V14.01,2013-08-22 05:49:00,
2013-08-22 01:50:00,74.7,74.7,30.15,West,270,0.0,0.0,100,0.00,,,0.00,VWS V14.01,2013-08-22 05:50:00,
2013-08-22 01:51:00,74.7,74.7,30.15,WSW,248,1.3,1.3,100,0.00,,,0.00,VWS V14.01,2013-08-22 05:51:00,
2013-08-22 01:52:00,74.7,74.7,30.15,SW,225,2.5,2.5,100,0.00,,,0.00,VWS V14.01,2013-08-22 05:52:00,
2013-08-22 01:53:00,74.7,74.7,30.15,WSW,248,1.1,1.1,100,0.00,,,0.00,VWS V14.01,2013-08-22 05:53:00,
2013-08-22 01:54:00,74.7,74.7,30.15,West,270,0.0,0.0,100,0.00,,,0.00,VWS V14.01,2013-08-22 05:54:00,
2013-08-22 01:55:00,74.7,74.7,30.15,West,270,0.0,0.0,100,0.00,,,0.00,VWS V14.01,2013-08-22 05:55:00,
2013-08-22 01:56:00,74.7,74.7,30.15,West,270,0.0,0.0,100,0.00,,,0.00,VWS V14.01,2013-08-22 05:56:00,
2013-08-22 01:57:00,74.7,74.7,30.15,WNW,292,0.0,0.0,100,0.00,,,0.00,VWS V14.01,2013-08-22 05:57:00,
2013-08-22 01:58:00,74.7,74.7,30.15,WNW,292,1.3,1.3,100,0.00,,,0.00,VWS V14.01,2013-08-22 05:58:00,
2013-08-22 01:59:00,74.7,74.7,30.15,WNW,292,0.9,0.9,100,0.00,,,0.00,VWS V14.01,2013-08-22 05:59:00,
2013-08-22 02:00:00,74.7,74.7,30.15,WNW,292,0.0,0.0,100,0.00,,,0.00,VWS V14.01,2013-08-22 06:00:00,
2013-08-22 02:01:00,74.7,74.7,30.15,WNW,292,0.0,0.0,100,0.00,,,0.00,VWS V14.01,2013-08-22 06:01:00,
2013-08-22 02:02:00,74.7,74.7,30.15,WNW,292,0.0,0.0,100,0.00,,,0.00,VWS V14.01,2013-08-22 06:02:00,
2013-08-22 02:03:00,74.7,74.7,30.15,WNW,292,0.0,0.0,100,0.00,,,0.00,VWS V14.01,2013-08-22 06:03:00,
2013-08-22 02:04:00,74.7,74.7,30.15,West,270,0.0,0.0,100,0.00,,,0.00,VWS V14.01,2013-08-22 06:04:00,
2013-08-22 02:05:00,74.7,74.7,30.15,West,270,0.0,0.0,100,0.00,,,0.00,VWS V14.01,2013-08-22 06:05:00,
2013-08-22 02:06:00,74.7,74.7,30.15,West,270,0.0,0.0,100,0.00,,,0.00,VWS V14.01,2013-08-22 06:06:00,
2013-08-22 02:07:00,74.7,74.7,30.15,West,270,1.1,1.1,100,0.00,,,0.00,VWS V14.01,2013-08-22 06:07:00,
2013-08-22 02:08:00,74.5,74.5,30.15,West,270,0.0,0.0,100,0.00,,,0.00,VWS V14.01,2013-08-22 06:08:00,
2013-08-22 02:09:00,74.5,74.5,30.15,WSW,248,0.0,0.0,100,0.00,,,0.00,VWS V14.01,2013-08-22 06:09:00,
2013-08-22 02:10:00,74.5,74.5,30.15,WSW,248,0.0,0.0,100,0.00,,,0.00,VWS V14.01,2013-08-22 06:10:00,
2013-08-22 02:11:00,74.5,74.5,30.15,WSW,248,0.0,0.0,100,0.00,,,0.00,VWS V14.01,2013-08-22 06:11:00,
2013-08-22 02:12:00,74.5,74.5,30.15,SW,225,0.0,0.0,100,0.00,,,0.00,VWS V14.01,2013-08-22 06:12:00,
2013-08-22 02:13:00,74.5,74.5,30.15,SW,225,1.3,1.3,100,0.00,,,0.00,VWS V14.01,2013-08-22 06:13:00,
2013-08-22 02:14:00,74.5,74.5,30.15,SW,225,1.3,1.3,100,0.00,,,0.00,VWS V14.01,2013-08-22 06:14:00,
2013-08-22 02:15:00,74.5,74.5,30.15,SW,225,1.3,1.3,100,0.00,,,0.00,VWS V14.01,2013-08-22 06:15:00,
2013-08-22 02:16:00,74.5,74.5,30.15,SW,225,1.6,1.6,100,0.00,,,0.00,VWS V14.01,2013-08-22 06:16:00,
2013-08-22 02:17:00,74.5,74.5,30.15,SW,225,1.3,1.3,100,0.00,,,0.00,VWS V14.01,2013-08-22 06:17:00,
2013-08-22 02:18:00,74.5,74.5,30.15,SW,225,1.6,1.6,100,0.00,,,0.00,VWS V14.01,2013-08-22 06:18:00,
2013-08-22 02:19:00,74.5,74.5,30.15,SW,225,1.3,1.3,100,0.00,,,0.00,VWS V14.01,2013-08-22 06:19:00,
2013-08-22 02:20:00,74.5,74.5,30.15,SW,225,1.3,1.3,100,0.00,,,0.00,VWS V14.01,2013-08-22 06:20:00,
2013-08-22 02:21:00,74.5,74.5,30.15,SW,225,2.0,2.0,100,0.00,,,0.00,VWS V14.01,2013-08-22 06:21:00,
2013-08-22 02:22:00,74.5,74.5,30.15,WSW,248,1.6,1.6,100,0.00,,,0.00,VWS V14.01,2013-08-22 06:22:00,
2013-08-22 02:23:00,74.5,74.5,30.15,WSW,248,1.1,1.1,100,0.00,,,0.00,VWS V14.01,2013-08-22 06:23:00,
2013-08-22 02:24:00,74.5,74.5,30.15,West,270,1.1,1.1,100,0.00,,,0.00,VWS V14.01,2013-08-22 06:24:00,
2013-08-22 02:25:00,74.5,74.5,30.15,West,270,1.1,1.1,100,0.00,,,0.00,VWS V14.01,2013-08-22 06:25:00,
2013-08-22 02:26:00,74.5,74.5,30.15,West,270,1.1,1.1,100,0.00,,,0.00,VWS V14.01,2013-08-22 06:26:00,
2013-08-22 02:27:00,74.5,74.5,30.15,West,270,1.3,1.3,100,0.00,,,0.00,VWS V14.01,2013-08-22 06:27:00,
2013-08-22 02:28:00,74.5,74.5,30.15,West,270,1.6,1.6,100,0.00,,,0.00,VWS V14.01,2013-08-22 06:28:00,
2013-08-22 02:29:00,74.5,74.5,30.15,West,270,1.1,1.1,100,0.00,,,0.00,VWS V14.01,2013-08-22 06:29:00,
2013-08-22 02:30:00,74.5,74.5,30.15,West,270,1.1,1.1,100,0.00,,,0.00,VWS V14.01,2013-08-22 06:30:00,
2013-08-22 02:31:00,74.5,74.5,30.15,West,270,1.3,1.3,100,0.00,,,0.00,VWS V14.01,2013-08-22 06:31:00,
2013-08-22 02:32:00,74.5,74.5,30.15,West,270,0.0,0.0,100,0.00,,,0.00,VWS V14.01,2013-08-22 06:32:00,
2013-08-22 02:33:00,74.5,74.5,30.15,West,270,0.0,0.0,100,0.00,,,0.00,VWS V14.01,2013-08-22 06:33:00,
2013-08-22 02:34:00,74.5,74.5,30.15,West,270,1.3,1.3,100,0.00,,,0.00,VWS V14.01,2013-08-22 06:34:00,
2013-08-22 02:35:00,74.5,74.5,30.15,West,270,1.3,1.3,100,0.00,,,0.00,VWS V14.01,2013-08-22 06:35:00,
2013-08-22 02:36:00,74.3,74.3,30.15,West,270,1.3,1.3,100,0.00,,,0.00,VWS V14.01,2013-08-22 06:36:00,
2013-08-22 02:37:00,74.3,74.3,30.15,West,270,2.5,2.5,100,0.00,,,0.00,VWS V14.01,2013-08-22 06:37:00,
2013-08-22 02:38:00,74.5,74.5,30.15,West,270,2.5,2.5,100,0.00,,,0.00,VWS V14.01,2013-08-22 06:38:00,
2013-08-22 02:39:00,74.5,74.5,30.15,West,270,2.2,2.2,100,0.00,,SCT060,0.00,VWS V14.01,2013-08-22 06:39:00,
2013-08-22 02:40:00,74.5,74.5,30.15,West,270,2.0,2.0,100,0.00,,,0.00,VWS V14.01,2013-08-22 06:40:00,
2013-08-22 02:41:00,74.5,74.5,30.15,West,270,2.7,2.7,100,0.00,,,0.00,VWS V14.01,2013-08-22 06:41:00,
2013-08-22 02:42:00,74.5,74.5,30.15,West,270,2.2,2.2,100,0.00,,,0.00,VWS V14.01,2013-08-22 06:42:00,
2013-08-22 02:43:00,74.5,74.5,30.15,West,270,2.2,2.2,100,0.00,,,0.00,VWS V14.01,2013-08-22 06:43:00,
2013-08-22 02:44:00,74.5,74.5,30.15,West,270,1.3,1.3,100,0.00,,SCT060,0.00,VWS V14.01,2013-08-22 06:44:00,
2013-08-22 02:45:00,74.5,74.5,30.15,West,270,1.3,1.3,100,0.00,,,0.00,VWS V14.01,2013-08-22 06:45:00,
2013-08-22 02:46:00,74.5,74.5,30.15,West,270,0.9,0.9,100,0.00,,,0.00,VWS V14.01,2013-08-22 06:46:00,
2013-08-22 02:47:00,74.5,74.5,30.15,West,270,0.0,0.0,100,0.00,,,0.00,VWS V14.01,2013-08-22 06:47:00,
2013-08-22 02:48:00,74.5,74.5,30.15,WSW,248,0.0,0.0,100,0.00,,,0.00,VWS V14.01,2013-08-22 06:48:00,
2013-08-22 02:49:00,74.3,74.3,30.15,SW,225,0.0,0.0,100,0.00,,SCT060,0.00,VWS V14.01,2013-08-22 06:49:00,
2013-08-22 02:50:00,74.3,74.3,30.15,SW,225,0.0,0.0,100,0.00,,,0.00,VWS V14.01,2013-08-22 06:50:00,
2013-08-22 02:51:00,74.3,74.3,30.15,SW,225,0.0,0.0,100,0.00,,,0.00,VWS V14.01,2013-08-22 06:51:00,
2013-08-22 02:52:00,74.3,74.3,30.15,SSW,202,1.1,1.1,100,0.00,,,0.00,VWS V14.01,2013-08-22 06:52:00,
2013-08-22 02:53:00,74.2,74.2,30.15,SSW,202,0.0,0.0,100,0.00,,,0.00,VWS V14.01,2013-08-22 06:53:00,
2013-08-22 02:54:00,74.3,74.3,30.15,SSW,202,1.1,1.1,100,0.00,,SCT060,0.00,VWS V14.01,2013-08-22 06:54:00,
2013-08-22 02:55:00,74.3,74.3,30.15,SSW,202,1.6,1.6,100,0.00,,,0.00,VWS V14.01,2013-08-22 06:55:00,
2013-08-22 02:56:00,74.3,74.3,30.15,SSW,202,0.9,0.9,100,0.00,,,0.00,VWS V14.01,2013-08-22 06:56:00,
2013-08-22 02:57:00,74.3,74.3,30.15,SSW,202,0.0,0.0,100,0.00,,,0.00,VWS V14.01,2013-08-22 06:57:00,
2013-08-22 02:58:00,74.3,74.3,30.15,SSW,202,0.0,0.0,100,0.00,,,0.00,VWS V14.01,2013-08-22 06:58:00,
2013-08-22 02:59:00,74.2,74.2,30.15,SSW,202,0.0,0.0,100,0.00,,SCT060,0.00,VWS V14.01,2013-08-22 06:59:00,
2013-08-22 03:00:00,74.3,74.3,30.15,SSW,202,0.0,0.0,100,0.00,,,0.00,VWS V14.01,2013-08-22 07:00:00,
2013-08-22 03:01:00,74.2,74.2,30.15,SW,225,0.0,0.0,100,0.00,,,0.00,VWS V14.01,2013-08-22 07:01:00,
2013-08-22 03:02:00,74.2,74.2,30.15,West,270,0.0,0.0,100,0.00,,,0.00,VWS V14.01,2013-08-22 07:02:00,
2013-08-22 03:03:00,74.2,74.2,30.15,West,270,0.0,0.0,100,0.00,,,0.00,VWS V14.01,2013-08-22 07:03:00,
2013-08-22 03:04:00,74.2,74.2,30.15,West,270,0.0,0.0,100,0.00,,,0.00,VWS V14.01,2013-08-22 07:04:00,
2013-08-22 03:05:00,74.2,74.2,30.15,WSW,248,0.0,0.0,100,0.00,,SCT060,0.00,VWS V14.01,2013-08-22 07:05:00,
2013-08-22 03:06:00,74.2,74.2,30.15,WSW,248,0.0,0.0,100,0.00,,,0.00,VWS V14.01,2013-08-22 07:06:00,
2013-08-22 03:07:00,74.2,74.2,30.15,WSW,248,0.0,0.0,100,0.00,,,0.00,VWS V14.01,2013-08-22 07:07:00,
2013-08-22 03:08:00,74.2,74.2,30.15,WSW,248,1.1,1.1,100,0.00,,,0.00,VWS V14.01,2013-08-22 07:08:00,
2013-08-22 03:09:00,74.2,74.2,30.15,WSW,248,1.6,1.6,100,0.00,,,0.00,VWS V14.01,2013-08-22 07:09:00,
2013-08-22 03:10:00,74.2,74.2,30.15,SW,225,0.9,0.9,100,0.00,,SCT060,0.00,VWS V14.01,2013-08-22 07:10:00,
2013-08-22 03:11:00,74.2,74.2,30.15,SW,225,0.9,0.9,100,0.00,,,0.00,VWS V14.01,2013-08-22 07:11:00,
2013-08-22 03:12:00,74.2,74.2,30.15,WSW,248,1.1,1.1,100,0.00,,,0.00,VWS V14.01,2013-08-22 07:12:00,
2013-08-22 03:13:00,74.2,74.2,30.15,WSW,248,0.0,0.0,100,0.00,,,0.00,VWS V14.01,2013-08-22 07:13:00,
2013-08-22 03:14:00,74.2,74.2,30.15,WSW,248,0.0,0.0,100,0.00,,,0.00,VWS V14.01,2013-08-22 07:14:00,
2013-08-22 03:15:00,74.2,74.2,30.15,WSW,248,1.3,1.3,100,0.00,,SCT060,0.00,VWS V14.01,2013-08-22 07:15:00,
2013-08-22 03:16:00,74.2,74.2,30.15,WSW,248,1.3,1.3,100,0.00,,,0.00,VWS V14.01,2013-08-22 07:16:00,
2013-08-22 03:17:00,74.2,74.2,30.15,West,270,0.9,0.9,100,0.00,,,0.00,VWS V14.01,2013-08-22 07:17:00,
2013-08-22 03:18:00,74.2,74.2,30.15,West,270,1.3,1.3,100,0.00,,,0.00,VWS V14.01,2013-08-22 07:18:00,
2013-08-22 03:19:00,74.2,74.2,30.15,West,270,2.2,2.2,100,0.00,,,0.00,VWS V14.01,2013-08-22 07:19:00,
2013-08-22 03:20:00,74.2,74.2,30.15,West,270,2.0,2.0,100,0.00,,SCT060,0.00,VWS V14.01,2013-08-22 07:20:00,
2013-08-22 03:21:00,74.2,74.2,30.15,West,270,2.0,2.0,100,0.00,,,0.00,VWS V14.01,2013-08-22 07:21:00,
2013-08-22 03:22:00,74.3,74.3,30.15,West,270,2.5,2.5,100,0.00,,,0.00,VWS V14.01,2013-08-22 07:22:00,
2013-08-22 03:23:00,74.3,74.3,30.15,West,270,2.7,2.7,100,0.00,,,0.00,VWS V14.01,2013-08-22 07:23:00,
2013-08-22 03:24:00,74.3,74.3,30.15,West,270,2.7,2.7,100,0.00,,,0.00,VWS V14.01,2013-08-22 07:24:00,
2013-08-22 03:25:00,74.3,74.3,30.15,WSW,248,1.3,1.3,100,0.00,,SCT060,0.00,VWS V14.01,2013-08-22 07:25:00,
2013-08-22 03:26:00,74.3,74.3,30.15,WSW,248,1.3,1.3,100,0.00,,,0.00,VWS V14.01,2013-08-22 07:26:00,
2013-08-22 03:27:00,74.2,74.2,30.15,SW,225,0.0,0.0,100,0.00,,,0.00,VWS V14.01,2013-08-22 07:27:00,
2013-08-22 03:28:00,74.2,74.2,30.15,SW,225,0.0,0.0,100,0.00,,,0.00,VWS V14.01,2013-08-22 07:28:00,
2013-08-22 03:29:00,74.2,74.2,30.15,SW,225,1.1,1.1,100,0.00,,,0.00,VWS V14.01,2013-08-22 07:29:00,
2013-08-22 03:30:00,74.2,74.2,30.15,SW,225,0.0,0.0,100,0.00,,SCT060,0.00,VWS V14.01,2013-08-22 07:30:00,
2013-08-22 03:31:00,74.2,74.2,30.15,SW,225,0.0,0.0,100,0.00,,,0.00,VWS V14.01,2013-08-22 07:31:00,
2013-08-22 03:32:00,74.2,74.2,30.15,SW,225,0.0,0.0,100,0.00,,,0.00,VWS V14.01,2013-08-22 07:32:00,
2013-08-22 03:33:00,74.2,74.2,30.15,West,270,0.0,0.0,100,0.00,,,0.00,VWS V14.01,2013-08-22 07:33:00,
2013-08-22 03:34:00,74.2,74.2,30.15,West,270,1.3,1.3,100,0.00,,,0.00,VWS V14.01,2013-08-22 07:34:00,
2013-08-22 03:35:00,74.2,74.2,30.15,WSW,248,1.1,1.1,100,0.00,,,0.00,VWS V14.01,2013-08-22 07:35:00,
2013-08-22 03:36:00,74.2,74.2,30.15,WSW,248,1.1,1.1,100,0.00,,,0.00,VWS V14.01,2013-08-22 07:36:00,
2013-08-22 03:37:00,74.2,74.2,30.15,WSW,248,0.0,0.0,100,0.00,,,0.00,VWS V14.01,2013-08-22 07:37:00,
2013-08-22 03:38:00,74.2,74.2,30.15,WSW,248,1.1,1.1,100,0.00,,,0.00,VWS V14.01,2013-08-22 07:38:00,
2013-08-22 03:39:00,74.2,74.2,30.15,WSW,248,0.0,0.0,100,0.00,,,0.00,VWS V14.01,2013-08-22 07:39:00,
2013-08-22 03:40:00,74.2,74.2,30.12,West,270,2.0,2.0,100,0.00,,,0.00,VWS V14.01,2013-08-22 07:40:00,
2013-08-22 03:41:00,74.2,74.2,30.12,West,270,2.0,2.0,100,0.00,,,0.00,VWS V14.01,2013-08-22 07:41:00,
2013-08-22 03:42:00,74.2,74.2,30.12,West,270,2.7,2.7,100,0.00,,,0.00,VWS V14.01,2013-08-22 07:42:00,
2013-08-22 03:43:00,74.2,74.2,30.12,West,270,2.5,2.5,100,0.00,,,0.00,VWS V14.01,2013-08-22 07:43:00,
2013-08-22 03:44:00,74.2,74.2,30.12,West,270,1.3,1.3,100,0.00,,,0.00,VWS V14.01,2013-08-22 07:44:00,
2013-08-22 03:45:00,74.2,74.2,30.12,WNW,292,0.9,0.9,100,0.00,,,0.00,VWS V14.01,2013-08-22 07:45:00,
2013-08-22 03:46:00,74.2,74.2,30.12,WNW,292,0.9,0.9,100,0.00,,,0.00,VWS V14.01,2013-08-22 07:46:00,
2013-08-22 03:47:00,74.0,74.0,30.12,WNW,292,0.0,0.0,100,0.00,,,0.00,VWS V14.01,2013-08-22 07:47:00,
2013-08-22 03:48:00,74.0,74.0,30.12,WNW,292,0.0,0.0,100,0.00,,,0.00,VWS V14.01,2013-08-22 07:48:00,
2013-08-22 03:49:00,74.0,74.0,30.12,WNW,292,0.0,0.0,100,0.00,,,0.00,VWS V14.01,2013-08-22 07:49:00,
2013-08-22 03:50:00,74.0,74.0,30.12,WNW,292,0.0,0.0,100,0.00,,,0.00,VWS V14.01,2013-08-22 07:50:00,
2013-08-22 03:51:00,74.0,74.0,30.12,WNW,292,0.0,0.0,100,0.00,,,0.00,VWS V14.01,2013-08-22 07:51:00,
2013-08-22 03:52:00,74.0,74.0,30.12,West,270,0.0,0.0,100,0.00,,,0.00,VWS V14.01,2013-08-22 07:52:00,
2013-08-22 03:53:00,74.0,74.0,30.12,West,270,1.3,1.3,100,0.00,,,0.00,VWS V14.01,2013-08-22 07:53:00,
2013-08-22 03:54:00,74.0,74.0,30.12,West,270,0.0,0.0,100,0.00,,,0.00,VWS V14.01,2013-08-22 07:54:00,
2013-08-22 03:55:00,73.8,73.8,30.15,WSW,248,0.0,0.0,100,0.00,,,0.00,VWS V14.01,2013-08-22 07:55:00,
2013-08-22 03:56:00,73.8,73.8,30.15,WSW,248,0.0,0.0,100,0.00,,,0.00,VWS V14.01,2013-08-22 07:56:00,
2013-08-22 03:57:00,73.8,73.8,30.15,WSW,248,0.0,0.0,100,0.00,,,0.00,VWS V14.01,2013-08-22 07:57:00,
2013-08-22 03:58:00,73.8,73.8,30.15,WSW,248,1.3,1.3,100,0.00,,,0.00,VWS V14.01,2013-08-22 07:58:00,
2013-08-22 03:59:00,73.8,73.8,30.15,SW,225,2.0,2.0,100,0.00,,,0.00,VWS V14.01,2013-08-22 07:59:00,
2013-08-22 04:00:00,73.8,73.8,30.15,SSW,202,1.1,1.1,100,0.00,,,0.00,VWS V14.01,2013-08-22 08:00:00,
2013-08-22 04:01:00,73.8,73.8,30.15,SSW,202,1.1,1.1,100,0.00,,,0.00,VWS V14.01,2013-08-22 08:01:00,
2013-08-22 04:02:00,73.8,73.8,30.15,SSW,202,1.3,1.3,100,0.00,,,0.00,VWS V14.01,2013-08-22 08:02:00,
2013-08-22 04:03:00,73.8,73.8,30.15,SW,225,1.3,1.3,100,0.00,,,0.00,VWS V14.01,2013-08-22 08:03:00,
2013-08-22 04:04:00,73.6,73.6,30.15,SW,225,1.3,1.3,100,0.00,,,0.00,VWS V14.01,2013-08-22 08:04:00,
2013-08-22 04:05:00,73.6,73.6,30.15,SW,225,0.0,0.0,100,0.00,,,0.00,VWS V14.01,2013-08-22 08:05:00,
2013-08-22 04:06:00,73.6,73.6,30.15,SW,225,1.3,1.3,100,0.00,,,0.00,VWS V14.01,2013-08-22 08:06:00,
2013-08-22 04:07:00,73.6,73.6,30.15,WSW,248,1.3,1.3,100,0.00,,,0.00,VWS V14.01,2013-08-22 08:07:00,
2013-08-22 04:08:00,73.6,73.6,30.15,West,270,1.3,1.3,100,0.00,,,0.00,VWS V14.01,2013-08-22 08:08:00,
2013-08-22 04:09:00,73.6,73.6,30.15,WNW,292,2.7,2.7,100,0.00,,,0.00,VWS V14.01,2013-08-22 08:09:00,
2013-08-22 04:10:00,73.6,73.6,30.15,WNW,292,2.5,2.5,100,0.00,,,0.00,VWS V14.01,2013-08-22 08:10:00,
2013-08-22 04:11:00,73.6,73.6,30.15,WNW,292,1.6,1.6,100,0.00,,,0.00,VWS V14.01,2013-08-22 08:11:00,
2013-08-22 04:12:00,73.6,73.6,30.15,West,270,2.2,2.2,100,0.00,,,0.00,VWS V14.01,2013-08-22 08:12:00,
2013-08-22 04:13:00,73.6,73.6,30.15,WNW,292,2.0,2.0,100,0.00,,,0.00,VWS V14.01,2013-08-22 08:13:00,
2013-08-22 04:14:00,73.6,73.6,30.15,West,270,2.0,2.0,100,0.00,,,0.00,VWS V14.01,2013-08-22 08:14:00,
2013-08-22 04:15:00,73.6,73.6,30.15,West,270,1.6,1.6,100,0.00,,,0.00,VWS V14.01,2013-08-22 08:15:00,
2013-08-22 04:16:00,73.6,73.6,30.15,West,270,1.3,1.3,100,0.00,,,0.00,VWS V14.01,2013-08-22 08:16:00,
2013-08-22 04:17:00,73.6,73.6,30.15,West,270,1.1,1.1,100,0.00,,,0.00,VWS V14.01,2013-08-22 08:17:00,
2013-08-22 04:18:00,73.6,73.6,30.15,WSW,248,1.6,1.6,100,0.00,,,0.00,VWS V14.01,2013-08-22 08:18:00,
2013-08-22 04:19:00,73.6,73.6,30.15,West,270,2.0,2.0,100,0.00,,,0.00,VWS V14.01,2013-08-22 08:19:00,
2013-08-22 04:20:00,73.6,73.6,30.15,West,270,2.5,2.5,100,0.00,,CLR,0.00,VWS V14.01,2013-08-22 08:20:00,
2013-08-22 04:21:00,73.8,73.8,30.15,West,270,2.0,2.0,100,0.00,,,0.00,VWS V14.01,2013-08-22 08:21:00,
2013-08-22 04:22:00,73.8,73.8,30.15,West,270,1.3,1.3,100,0.00,,,0.00,VWS V14.01,2013-08-22 08:22:00,
2013-08-22 04:23:00,73.8,73.8,30.15,NW,315,0.0,0.0,100,0.00,,,0.00,VWS V14.01,2013-08-22 08:23:00,
2013-08-22 04:24:00,73.6,73.6,30.15,West,270,3.6,3.6,100,0.00,,,0.00,VWS V14.01,2013-08-22 08:24:00,
2013-08-22 04:25:00,73.8,73.8,30.15,WSW,248,2.9,2.9,100,0.00,,,0.00,VWS V14.01,2013-08-22 08:25:00,
2013-08-22 04:26:00,73.8,73.8,30.15,SSW,202,0.9,0.9,100,0.00,,,0.00,VWS V14.01,2013-08-22 08:26:00,
2013-08-22 04:27:00,73.8,73.8,30.15,SSW,202,2.5,2.5,100,0.00,,,0.00,VWS V14.01,2013-08-22 08:27:00,
2013-08-22 04:28:00,73.8,73.8,30.15,SW,225,2.0,2.0,100,0.00,,,0.00,VWS V14.01,2013-08-22 08:28:00,
2013-08-22 04:29:00,73.8,73.8,30.15,SW,225,2.2,2.2,100,0.00,,,0.00,VWS V14.01,2013-08-22 08:29:00,
2013-08-22 04:30:00,73.8,73.8,30.15,SW,225,1.1,1.1,100,0.00,,,0.00,VWS V14.01,2013-08-22 08:30:00,
2013-08-22 04:31:00,73.8,73.8,30.15,SW,225,2.0,2.0,100,0.00,,,0.00,VWS V14.01,2013-08-22 08:31:00,
2013-08-22 04:32:00,73.8,73.8,30.15,SW,225,2.0,2.0,100,0.00,,,0.00,VWS V14.01,2013-08-22 08:32:00,
2013-08-22 04:33:00,73.8,73.8,30.15,SW,225,0.9,0.9,100,0.00,,,0.00,VWS V14.01,2013-08-22 08:33:00,
2013-08-22 04:34:00,73.8,73.8,30.15,WSW,248,0.0,0.0,100,0.00,,,0.00,VWS V14.01,2013-08-22 08:34:00,
2013-08-22 04:35:00,73.8,73.8,30.15,West,270,1.1,1.1,100,0.00,,,0.00,VWS V14.01,2013-08-22 08:35:00,
2013-08-22 04:36:00,73.8,73.8,30.15,West,270,1.1,1.1,100,0.00,,,0.00,VWS V14.01,2013-08-22 08:36:00,
2013-08-22 04:37:00,73.8,73.8,30.15,West,270,1.1,1.1,100,0.00,,,0.00,VWS V14.01,2013-08-22 08:37:00,
2013-08-22 04:38:00,73.8,73.8,30.15,West,270,0.9,0.9,100,0.00,,,0.00,VWS V14.01,2013-08-22 08:38:00,
2013-08-22 04:39:00,73.8,73.8,30.15,West,270,0.0,0.0,100,0.00,,,0.00,VWS V14.01,2013-08-22 08:39:00,
2013-08-22 04:40:00,73.8,73.8,30.15,West,270,0.0,0.0,100,0.00,,,0.00,VWS V14.01,2013-08-22 08:40:00,
2013-08-22 04:41:00,73.8,73.8,30.15,WSW,248,0.0,0.0,100,0.00,,,0.00,VWS V14.01,2013-08-22 08:41:00,
2013-08-22 04:42:00,73.8,73.8,30.15,WSW,248,0.0,0.0,100,0.00,,,0.00,VWS V14.01,2013-08-22 08:42:00,
2013-08-22 04:43:00,74.0,74.0,30.15,West,270,1.3,1.3,100,0.00,,,0.00,VWS V14.01,2013-08-22 08:43:00,
2013-08-22 04:44:00,74.0,74.0,30.15,West,270,0.0,0.0,100,0.00,,,0.00,VWS V14.01,2013-08-22 08:44:00,
2013-08-22 04:45:00,74.0,74.0,30.15,West,270,1.3,1.3,100,0.00,,,0.00,VWS V14.01,2013-08-22 08:45:00,
2013-08-22 04:46:00,73.8,73.8,30.15,West,270,0.0,0.0,100,0.00,,,0.00,VWS V14.01,2013-08-22 08:46:00,
2013-08-22 04:47:00,73.8,73.8,30.15,West,270,0.0,0.0,100,0.00,,,0.00,VWS V14.01,2013-08-22 08:47:00,
2013-08-22 04:48:00,73.8,73.8,30.15,West,270,0.0,0.0,100,0.00,,,0.00,VWS V14.01,2013-08-22 08:48:00,
2013-08-22 04:49:00,74.0,74.0,30.15,WSW,248,2.7,2.7,100,0.00,,,0.00,VWS V14.01,2013-08-22 08:49:00,
2013-08-22 04:50:00,74.0,74.0,30.15,West,270,2.7,2.7,100,0.00,,,0.00,VWS V14.01,2013-08-22 08:50:00,
2013-08-22 04:51:00,74.0,74.0,30.15,West,270,2.5,2.5,100,0.00,,,0.00,VWS V14.01,2013-08-22 08:51:00,
2013-08-22 04:52:00,74.0,74.0,30.15,West,270,2.7,2.7,100,0.00,,,0.00,VWS V14.01,2013-08-22 08:52:00,
2013-08-22 04:53:00,74.0,74.0,30.15,West,270,2.5,2.5,100,0.00,,,0.00,VWS V14.01,2013-08-22 08:53:00,
2013-08-22 04:54:00,74.0,74.0,30.15,West,270,2.5,2.5,100,0.00,,,0.00,VWS V14.01,2013-08-22 08:54:00,
2013-08-22 04:55:00,74.0,74.0,30.15,West,270,2.5,2.5,100,0.00,,,0.00,VWS V14.01,2013-08-22 08:55:00,
2013-08-22 04:56:00,74.0,74.0,30.15,West,270,2.0,2.0,100,0.00,,,0.00,VWS V14.01,2013-08-22 08:56:00,
2013-08-22 04:57:00,74.0,74.0,30.15,West,270,2.0,2.0,100,0.00,,,0.00,VWS V14.01,2013-08-22 08:57:00,
2013-08-22 04:58:00,74.0,74.0,30.15,West,270,2.5,2.5,100,0.00,,,0.00,VWS V14.01,2013-08-22 08:58:00,
2013-08-22 04:59:00,74.0,74.0,30.15,NW,315,0.0,0.0,100,0.00,,,0.00,VWS V14.01,2013-08-22 08:59:00,
2013-08-22 05:00:00,74.0,74.0,30.15,NW,315,0.0,0.0,100,0.00,,,0.00,VWS V14.01,2013-08-22 09:00:00,
2013-08-22 05:01:00,74.0,74.0,30.15,West,270,3.1,3.1,100,0.00,,,0.00,VWS V14.01,2013-08-22 09:01:00,
2013-08-22 05:02:00,74.0,74.0,30.15,West,270,1.3,1.3,100,0.00,,,0.00,VWS V14.01,2013-08-22 09:02:00,
2013-08-22 05:03:00,74.0,74.0,30.15,West,270,2.5,2.5,100,0.00,,,0.00,VWS V14.01,2013-08-22 09:03:00,
2013-08-22 05:04:00,74.0,74.0,30.15,West,270,1.1,1.1,100,0.00,,,0.00,VWS V14.01,2013-08-22 09:04:00,
2013-08-22 05:05:00,74.0,74.0,30.15,WNW,292,0.0,0.0,100,0.00,,,0.00,VWS V14.01,2013-08-22 09:05:00,
2013-08-22 05:06:00,74.0,74.0,30.15,West,270,2.9,2.9,100,0.00,,,0.00,VWS V14.01,2013-08-22 09:06:00,
2013-08-22 05:07:00,74.0,74.0,30.15,West,270,2.0,2.0,100,0.00,,,0.00,VWS V14.01,2013-08-22 09:07:00,
2013-08-22 05:08:00,74.0,74.0,30.15,West,270,2.5,2.5,100,0.00,,,0.00,VWS V14.01,2013-08-22 09:08:00,
2013-08-22 05:09:00,74.0,74.0,30.15,West,270,0.9,0.9,100,0.00,,,0.00,VWS V14.01,2013-08-22 09:09:00,
2013-08-22 05:10:00,74.0,74.0,30.15,West,270,2.9,2.9,100,0.00,,,0.00,VWS V14.01,2013-08-22 09:10:00,
2013-08-22 05:11:00,74.0,74.0,30.15,WSW,248,1.1,1.1,100,0.00,,CLR,0.00,VWS V14.01,2013-08-22 09:11:00,
2013-08-22 05:12:00,74.0,74.0,30.15,West,270,2.7,2.7,100,0.00,,,0.00,VWS V14.01,2013-08-22 09:12:00,
2013-08-22 05:13:00,74.0,74.0,30.15,West,270,2.0,2.0,100,0.00,,,0.00,VWS V14.01,2013-08-22 09:13:00,
2013-08-22 05:14:00,74.0,74.0,30.15,WSW,248,2.7,2.7,100,0.00,,,0.00,VWS V14.01,2013-08-22 09:14:00,
2013-08-22 05:15:00,74.0,74.0,30.15,WSW,248,2.0,2.0,100,0.00,,,0.00,VWS V14.01,2013-08-22 09:15:00,
2013-08-22 05:16:00,74.0,74.0,30.15,West,270,2.0,2.0,100,0.00,,,0.00,VWS V14.01,2013-08-22 09:16:00,
2013-08-22 05:17:00,74.0,74.0,30.15,WSW,248,0.0,0.0,100,0.00,,,0.00,VWS V14.01,2013-08-22 09:17:00,
2013-08-22 05:18:00,74.0,74.0,30.15,WSW,248,1.6,1.6,100,0.00,,,0.00,VWS V14.01,2013-08-22 09:18:00,
2013-08-22 05:19:00,74.0,74.0,30.15,WSW,248,1.3,1.3,100,0.00,,,0.00,VWS V14.01,2013-08-22 09:19:00,
2013-08-22 05:20:00,74.0,74.0,30.15,WSW,248,1.1,1.1,100,0.00,,,0.00,VWS V14.01,2013-08-22 09:20:00,
2013-08-22 05:21:00,74.0,74.0,30.15,WSW,248,0.0,0.0,100,0.00,,,0.00,VWS V14.01,2013-08-22 09:21:00,
2013-08-22 05:22:00,74.0,74.0,30.15,West,270,2.9,2.9,100,0.00,,,0.00,VWS V14.01,2013-08-22 09:22:00,
2013-08-22 05:23:00,74.0,74.0,30.15,West,270,2.2,2.2,100,0.00,,,0.00,VWS V14.01,2013-08-22 09:23:00,
2013-08-22 05:24:00,74.0,74.0,30.15,West,270,2.7,2.7,100,0.00,,,0.00,VWS V14.01,2013-08-22 09:24:00,
2013-08-22 05:25:00,74.0,74.0,30.15,West,270,2.0,2.0,100,0.00,,,0.00,VWS V14.01,2013-08-22 09:25:00,
2013-08-22 05:26:00,74.0,74.0,30.15,West,270,2.9,2.9,100,0.00,,,0.00,VWS V14.01,2013-08-22 09:26:00,
2013-08-22 05:27:00,74.0,74.0,30.15,West,270,2.7,2.7,100,0.00,,,0.00,VWS V14.01,2013-08-22 09:27:00,
2013-08-22 05:28:00,74.0,74.0,30.15,WNW,292,3.1,3.1,100,0.00,,,0.00,VWS V14.01,2013-08-22 09:28:00,
2013-08-22 05:29:00,74.0,74.0,30.15,WSW,248,1.3,1.3,100,0.00,,,0.00,VWS V14.01,2013-08-22 09:29:00,
2013-08-22 05:30:00,74.0,74.0,30.15,West,270,2.0,2.0,100,0.00,,,0.00,VWS V14.01,2013-08-22 09:30:00,
2013-08-22 05:31:00,74.0,74.0,30.15,West,270,0.0,0.0,100,0.00,,,0.00,VWS V14.01,2013-08-22 09:31:00,
2013-08-22 05:32:00,74.0,74.0,30.15,West,270,1.1,1.1,100,0.00,,,0.00,VWS V14.01,2013-08-22 09:32:00,
2013-08-22 05:33:00,74.0,74.0,30.15,West,270,1.1,1.1,100,0.00,,,0.00,VWS V14.01,2013-08-22 09:33:00,
2013-08-22 05:34:00,74.0,74.0,30.15,WSW,248,1.1,1.1,100,0.00,,,0.00,VWS V14.01,2013-08-22 09:34:00,
2013-08-22 05:35:00,74.0,74.0,30.15,WSW,248,0.0,0.0,100,0.00,,,0.00,VWS V14.01,2013-08-22 09:35:00,
2013-08-22 05:36:00,74.0,74.0,30.15,WSW,248,0.0,0.0,100,0.00,,,0.00,VWS V14.01,2013-08-22 09:36:00,
2013-08-22 05:37:00,74.0,74.0,30.15,WSW,248,1.3,1.3,100,0.00,,FEW001,0.00,VWS V14.01,2013-08-22 09:37:00,
2013-08-22 05:38:00,74.0,74.0,30.15,WSW,248,1.3,1.3,100,0.00,,,0.00,VWS V14.01,2013-08-22 09:38:00,
2013-08-22 05:39:00,74.0,74.0,30.15,West,270,2.0,2.0,100,0.00,,,0.00,VWS V14.01,2013-08-22 09:39:00,
2013-08-22 05:40:00,74.0,74.0,30.15,West,270,1.1,1.1,100,0.00,,,0.00,VWS V14.01,2013-08-22 09:40:00,
2013-08-22 05:41:00,74.0,74.0,30.15,West,270,2.0,2.0,100,0.00,,,0.00,VWS V14.01,2013-08-22 09:41:00,
2013-08-22 05:42:00,74.0,74.0,30.15,West,270,2.5,2.5,100,0.00,,FEW001,0.00,VWS V14.01,2013-08-22 09:42:00,
2013-08-22 05:43:00,74.0,74.0,30.15,West,270,2.5,2.5,100,0.00,,,0.00,VWS V14.01,2013-08-22 09:43:00,
2013-08-22 05:44:00,74.0,74.0,30.15,West,270,2.0,2.0,100,0.00,,,0.00,VWS V14.01,2013-08-22 09:44:00,
2013-08-22 05:45:00,74.0,74.0,30.15,West,270,2.5,2.5,100,0.00,,,0.00,VWS V14.01,2013-08-22 09:45:00,
2013-08-22 05:46:00,74.0,74.0,30.15,SW,225,1.6,1.6,100,0.00,,,0.00,VWS V14.01,2013-08-22 09:46:00,
2013-08-22 05:47:00,74.0,74.0,30.15,WSW,248,0.0,0.0,100,0.00,,FEW001,0.00,VWS V14.01,2013-08-22 09:47:00,
2013-08-22 05:48:00,74.0,74.0,30.15,WSW,248,0.0,0.0,100,0.00,,,0.00,VWS V14.01,2013-08-22 09:48:00,
2013-08-22 05:49:00,74.0,74.0,30.15,WSW,248,1.6,1.6,100,0.00,,,0.00,VWS V14.01,2013-08-22 09:49:00,
2013-08-22 05:50:00,74.0,74.0,30.15,WSW,248,0.0,0.0,100,0.00,,,0.00,VWS V14.01,2013-08-22 09:50:00,
2013-08-22 05:51:00,74.0,74.0,30.15,West,270,2.0,2.0,100,0.00,,,0.00,VWS V14.01,2013-08-22 09:51:00,
2013-08-22 05:52:00,74.0,74.0,30.15,West,270,2.7,2.7,100,0.00,,FEW001,0.00,VWS V14.01,2013-08-22 09:52:00,
2013-08-22 05:53:00,74.0,74.0,30.15,West,270,2.7,2.7,100,0.00,,,0.00,VWS V14.01,2013-08-22 09:53:00,
2013-08-22 05:54:00,74.0,74.0,30.15,West,270,1.3,1.3,100,0.00,,,0.00,VWS V14.01,2013-08-22 09:54:00,
2013-08-22 05:55:00,74.0,74.0,30.15,WSW,248,1.3,1.3,100,0.00,,,0.00,VWS V14.01,2013-08-22 09:55:00,
2013-08-22 05:56:00,74.0,74.0,30.15,WSW,248,0.0,0.0,100,0.00,,,0.00,VWS V14.01,2013-08-22 09:56:00,
2013-08-22 05:57:00,73.8,73.8,30.15,SSW,202,1.6,1.6,100,0.00,,FEW001,0.00,VWS V14.01,2013-08-22 09:57:00,
2013-08-22 05:58:00,73.8,73.8,30.15,SSW,202,1.6,1.6,100,0.00,,,0.00,VWS V14.01,2013-08-22 09:58:00,
2013-08-22 05:59:00,73.8,73.8,30.15,SSW,202,1.6,1.6,100,0.00,,,0.00,VWS V14.01,2013-08-22 09:59:00,
2013-08-22 06:00:00,73.8,73.8,30.15,SSW,202,2.2,2.2,100,0.00,,,0.00,VWS V14.01,2013-08-22 10:00:00,
2013-08-22 06:01:00,73.8,73.8,30.15,SSW,202,2.2,2.2,100,0.00,,,0.00,VWS V14.01,2013-08-22 10:01:00,
2013-08-22 06:02:00,73.8,73.8,30.15,SW,225,1.6,1.6,100,0.00,,FEW001,0.00,VWS V14.01,2013-08-22 10:02:00,
2013-08-22 06:03:00,73.8,73.8,30.15,SW,225,1.6,1.6,100,0.00,,,0.00,VWS V14.01,2013-08-22 10:03:00,
2013-08-22 06:04:00,73.8,73.8,30.15,WSW,248,1.3,1.3,100,0.00,,,0.00,VWS V14.01,2013-08-22 10:04:00,
2013-08-22 06:05:00,73.8,73.8,30.15,WSW,248,1.1,1.1,100,0.00,,,0.00,VWS V14.01,2013-08-22 10:05:00,
2013-08-22 06:06:00,73.8,73.8,30.15,West,270,1.1,1.1,100,0.00,,,0.00,VWS V14.01,2013-08-22 10:06:00,
2013-08-22 06:07:00,73.6,73.6,30.15,West,270,2.0,2.0,100,0.00,,FEW001,0.00,VWS V14.01,2013-08-22 10:07:00,
2013-08-22 06:08:00,73.6,73.6,30.15,West,270,2.0,2.0,100,0.00,,,0.00,VWS V14.01,2013-08-22 10:08:00,
2013-08-22 06:09:00,73.8,73.8,30.15,West,270,1.3,1.3,100,0.00,,,0.00,VWS V14.01,2013-08-22 10:09:00,
2013-08-22 06:10:00,73.8,73.8,30.15,WSW,248,0.9,0.9,100,0.00,,,0.00,VWS V14.01,2013-08-22 10:10:00,
2013-08-22 06:11:00,73.6,73.6,30.15,WSW,248,0.0,0.0,100,0.00,,,0.00,VWS V14.01,2013-08-22 10:11:00,
2013-08-22 06:12:00,73.6,73.6,30.15,WSW,248,0.0,0.0,100,0.00,,FEW001,0.00,VWS V14.01,2013-08-22 10:12:00,
2013-08-22 06:13:00,73.6,73.6,30.15,WSW,248,0.0,0.0,100,0.00,,,0.00,VWS V14.01,2013-08-22 10:13:00,
2013-08-22 06:14:00,73.6,73.6,30.15,WSW,248,0.9,0.9,100,0.00,,,0.00,VWS V14.01,2013-08-22 10:14:00,
2013-08-22 06:15:00,73.6,73.6,30.15,West,270,1.6,1.6,100,0.00,,,0.00,VWS V14.01,2013-08-22 10:15:00,
2013-08-22 06:16:00,73.6,73.6,30.15,West,270,0.9,0.9,100,0.00,,,0.00,VWS V14.01,2013-08-22 10:16:00,
2013-08-22 06:17:00,73.6,73.6,30.15,WNW,292,0.9,0.9,100,0.00,,FEW001,0.00,VWS V14.01,2013-08-22 10:17:00,
2013-08-22 06:18:00,73.6,73.6,30.15,WNW,292,0.9,0.9,100,0.00,,,0.00,VWS V14.01,2013-08-22 10:18:00,
2013-08-22 06:19:00,73.6,73.6,30.15,WNW,292,1.1,1.1,100,0.00,,,0.00,VWS V14.01,2013-08-22 10:19:00,
2013-08-22 06:20:00,73.6,73.6,30.15,WNW,292,2.7,2.7,100,0.00,,,0.00,VWS V14.01,2013-08-22 10:20:00,
2013-08-22 06:21:00,73.6,73.6,30.15,West,270,2.2,2.2,100,0.00,,,0.00,VWS V14.01,2013-08-22 10:21:00,
2013-08-22 06:22:00,73.6,73.6,30.15,West,270,2.5,2.5,100,0.00,,FEW001,0.00,VWS V14.01,2013-08-22 10:22:00,
2013-08-22 06:23:00,73.6,73.6,30.15,West,270,2.5,2.5,100,0.00,,,0.00,VWS V14.01,2013-08-22 10:23:00,
2013-08-22 06:24:00,73.6,73.6,30.15,WNW,292,1.1,1.1,100,0.00,,,0.00,VWS V14.01,2013-08-22 10:24:00,
2013-08-22 06:25:00,73.6,73.6,30.15,West,270,0.0,0.0,100,0.00,,,0.00,VWS V14.01,2013-08-22 10:25:00,
2013-08-22 06:26:00,73.6,73.6,30.15,WNW,292,1.3,1.3,100,0.00,,,0.00,VWS V14.01,2013-08-22 10:26:00,
2013-08-22 06:27:00,73.6,73.6,30.15,West,270,1.6,1.6,100,0.00,,FEW001,0.00,VWS V14.01,2013-08-22 10:27:00,
2013-08-22 06:28:00,73.6,73.6,30.15,West,270,1.6,1.6,100,0.00,,,0.00,VWS V14.01,2013-08-22 10:28:00,
2013-08-22 06:29:00,73.6,73.6,30.15,West,270,0.0,0.0,100,0.00,,,0.00,VWS V14.01,2013-08-22 10:29:00,
2013-08-22 06:30:00,73.6,73.6,30.15,West,270,1.3,1.3,100,0.00,,,0.00,VWS V14.01,2013-08-22 10:30:00,
2013-08-22 06:31:00,73.6,73.6,30.15,NNW,338,0.0,0.0,100,0.00,,,0.00,VWS V14.01,2013-08-22 10:31:00,
2013-08-22 06:32:00,73.6,73.6,30.15,NW,315,0.0,0.0,100,0.00,,FEW001,0.00,VWS V14.01,2013-08-22 10:32:00,
2013-08-22 06:33:00,73.6,73.6,30.15,NW,315,0.0,0.0,100,0.00,,,0.00,VWS V14.01,2013-08-22 10:33:00,
2013-08-22 06:34:00,73.6,73.6,30.15,NNW,338,1.1,1.1,100,0.00,,,0.00,VWS V14.01,2013-08-22 10:34:00,
2013-08-22 06:35:00,73.6,73.6,30.15,NNW,338,0.0,0.0,100,0.00,,,0.00,VWS V14.01,2013-08-22 10:35:00,
2013-08-22 06:36:00,73.6,73.6,30.15,NW,315,0.0,0.0,100,0.00,,,0.00,VWS V14.01,2013-08-22 10:36:00,
2013-08-22 06:37:00,73.6,73.6,30.15,West,270,2.9,2.9,100,0.00,,FEW070,0.00,VWS V14.01,2013-08-22 10:37:00,
2013-08-22 06:38:00,73.6,73.6,30.15,West,270,2.9,2.9,100,0.00,,,0.00,VWS V14.01,2013-08-22 10:38:00,
2013-08-22 06:39:00,73.6,73.6,30.15,West,270,3.4,3.4,100,0.00,,,0.00,VWS V14.01,2013-08-22 10:39:00,
2013-08-22 06:40:00,73.6,73.6,30.15,WSW,248,3.1,3.1,100,0.00,,,0.00,VWS V14.01,2013-08-22 10:40:00,
2013-08-22 06:41:00,73.6,73.6,30.15,WSW,248,2.7,2.7,100,0.00,,,0.00,VWS V14.01,2013-08-22 10:41:00,
2013-08-22 06:42:00,73.6,73.6,30.15,SW,225,2.2,2.2,100,0.00,,FEW070,0.00,VWS V14.01,2013-08-22 10:42:00,
2013-08-22 06:43:00,73.6,73.6,30.15,SW,225,2.2,2.2,100,0.00,,CLR,0.00,VWS V14.01,2013-08-22 10:43:00,
2013-08-22 06:44:00,73.6,73.6,30.15,SSW,202,2.2,2.2,100,0.00,,,0.00,VWS V14.01,2013-08-22 10:44:00,
2013-08-22 06:45:00,73.6,73.6,30.15,SW,225,0.9,0.9,100,0.00,,,0.00,VWS V14.01,2013-08-22 10:45:00,
2013-08-22 06:46:00,73.6,73.6,30.15,WSW,248,2.0,2.0,100,0.00,,,0.00,VWS V14.01,2013-08-22 10:46:00,
2013-08-22 06:47:00,73.6,73.6,30.15,SSW,202,2.2,2.2,100,0.00,,FEW070,0.00,VWS V14.01,2013-08-22 10:47:00,
2013-08-22 06:48:00,73.6,73.6,30.15,SSW,202,2.2,2.2,100,0.00,,,0.00,VWS V14.01,2013-08-22 10:48:00,
2013-08-22 06:49:00,73.6,73.6,30.15,SSW,202,2.7,2.7,100,0.00,,,0.00,VWS V14.01,2013-08-22 10:49:00,
2013-08-22 06:50:00,73.4,73.4,30.15,WSW,248,2.0,2.0,100,0.00,,,0.00,VWS V14.01,2013-08-22 10:50:00,
2013-08-22 06:51:00,73.4,73.4,30.15,SW,225,1.3,1.3,100,0.00,,,0.00,VWS V14.01,2013-08-22 10:51:00,
2013-08-22 06:52:00,73.4,73.4,30.15,SW,225,1.1,1.1,100,0.00,,CLR,0.00,VWS V14.01,2013-08-22 10:52:00,
2013-08-22 06:53:00,73.4,73.4,30.15,SSW,202,1.1,1.1,100,0.00,,,0.00,VWS V14.01,2013-08-22 10:53:00,
2013-08-22 06:54:00,73.4,73.4,30.15,West,270,0.9,0.9,100,0.00,,,0.00,VWS V14.01,2013-08-22 10:54:00,
2013-08-22 06:55:00,73.4,73.4,30.15,WSW,248,1.1,1.1,100,0.00,,,0.00,VWS V14.01,2013-08-22 10:55:00,
2013-08-22 06:56:00,73.4,73.4,30.15,West,270,2.5,2.5,100,0.00,,,0.00,VWS V14.01,2013-08-22 10:56:00,
2013-08-22 06:57:00,73.4,73.4,30.15,West,270,3.1,3.1,100,0.00,,,0.00,VWS V14.01,2013-08-22 10:57:00,
2013-08-22 06:58:00,73.6,73.6,30.15,West,270,3.8,3.8,100,0.00,,,0.00,VWS V14.01,2013-08-22 10:58:00,
2013-08-22 06:59:00,73.6,73.6,30.15,West,270,1.3,1.3,100,0.00,,,0.00,VWS V14.01,2013-08-22 10:59:00,
2013-08-22 07:00:00,73.4,73.4,30.15,West,270,2.9,2.9,100,0.00,,,0.00,VWS V14.01,2013-08-22 11:00:00,
2013-08-22 07:01:00,73.6,73.6,30.15,WNW,292,2.9,2.9,100,0.00,,,0.00,VWS V14.01,2013-08-22 11:01:00,
2013-08-22 07:02:00,73.6,73.6,30.15,WNW,292,0.0,0.0,100,0.00,,,0.00,VWS V14.01,2013-08-22 11:02:00,
2013-08-22 07:03:00,73.6,73.6,30.15,WNW,292,0.0,0.0,100,0.00,,,0.00,VWS V14.01,2013-08-22 11:03:00,
2013-08-22 07:04:00,73.6,73.6,30.15,WNW,292,0.0,0.0,100,0.00,,,0.00,VWS V14.01,2013-08-22 11:04:00,
2013-08-22 07:05:00,73.6,73.6,30.15,WNW,292,0.0,0.0,100,0.00,,,0.00,VWS V14.01,2013-08-22 11:05:00,
2013-08-22 07:06:00,73.6,73.6,30.15,West,270,1.6,1.6,100,0.00,,,0.00,VWS V14.01,2013-08-22 11:06:00,
2013-08-22 07:07:00,73.6,73.6,30.15,West,270,0.0,0.0,100,0.00,,,0.00,VWS V14.01,2013-08-22 11:07:00,
2013-08-22 07:08:00,73.6,73.6,30.15,West,270,3.1,3.1,100,0.00,,CLR,0.00,VWS V14.01,2013-08-22 11:08:00,
2013-08-22 07:09:00,73.6,73.6,30.15,NW,315,1.3,1.3,100,0.00,,,0.00,VWS V14.01,2013-08-22 11:09:00,
2013-08-22 07:10:00,73.6,73.6,30.15,NNW,338,0.0,0.0,100,0.00,,,0.00,VWS V14.01,2013-08-22 11:10:00,
2013-08-22 07:11:00,73.6,73.6,30.15,WNW,292,1.6,1.6,100,0.00,,,0.00,VWS V14.01,2013-08-22 11:11:00,
2013-08-22 07:12:00,73.6,73.6,30.15,WNW,292,1.6,1.6,100,0.00,,,0.00,VWS V14.01,2013-08-22 11:12:00,
2013-08-22 07:13:00,73.6,73.6,30.15,NW,315,0.0,0.0,100,0.00,,,0.00,VWS V14.01,2013-08-22 11:13:00,
2013-08-22 07:14:00,73.6,73.6,30.15,West,270,2.0,2.0,100,0.00,,,0.00,VWS V14.01,2013-08-22 11:14:00,
2013-08-22 07:15:00,73.6,73.6,30.15,WNW,292,1.1,1.1,100,0.00,,,0.00,VWS V14.01,2013-08-22 11:15:00,
2013-08-22 07:16:00,73.6,73.6,30.15,West,270,2.5,2.5,100,0.00,,,0.00,VWS V14.01,2013-08-22 11:16:00,
2013-08-22 07:17:00,73.8,73.8,30.15,WNW,292,3.1,3.1,100,0.00,,,0.00,VWS V14.01,2013-08-22 11:17:00,
2013-08-22 07:18:00,73.8,73.8,30.15,WSW,248,2.7,2.7,100,0.00,,,0.00,VWS V14.01,2013-08-22 11:18:00,
2013-08-22 07:19:00,74.0,74.0,30.15,West,270,2.7,2.7,100,0.00,,,0.00,VWS V14.01,2013-08-22 11:19:00,
2013-08-22 07:20:00,74.0,74.0,30.15,WSW,248,3.8,3.8,100,0.00,,,0.00,VWS V14.01,2013-08-22 11:20:00,
2013-08-22 07:21:00,74.0,74.0,30.15,West,270,3.8,3.8,100,0.00,,,0.00,VWS V14.01,2013-08-22 11:21:00,
2013-08-22 07:22:00,74.2,74.2,30.15,WSW,248,3.4,3.4,100,0.00,,,0.00,VWS V14.01,2013-08-22 11:22:00,
2013-08-22 07:23:00,74.2,74.2,30.15,West,270,4.3,4.3,100,0.00,,,0.00,VWS V14.01,2013-08-22 11:23:00,
2013-08-22 07:24:00,74.2,74.2,30.15,West,270,2.7,2.7,100,0.00,,,0.00,VWS V14.01,2013-08-22 11:24:00,
2013-08-22 07:25:00,74.2,74.2,30.15,West,270,3.6,3.6,100,0.00,,,0.00,VWS V14.01,2013-08-22 11:25:00,
2013-08-22 07:26:00,74.2,74.2,30.15,West,270,3.1,3.1,100,0.00,,,0.00,VWS V14.01,2013-08-22 11:26:00,
2013-08-22 07:27:00,74.2,74.2,30.15,West,270,2.7,2.7,100,0.00,,,0.00,VWS V14.01,2013-08-22 11:27:00,
2013-08-22 07:28:00,74.2,74.2,30.15,West,270,2.7,2.7,100,0.00,,,0.00,VWS V14.01,2013-08-22 11:28:00,
2013-08-22 07:29:00,74.3,74.3,30.15,WSW,248,2.5,2.5,100,0.00,,,0.00,VWS V14.01,2013-08-22 11:29:00,
2013-08-22 07:30:00,74.3,74.3,30.15,West,270,2.7,2.7,100,0.00,,,0.00,VWS V14.01,2013-08-22 11:30:00,
2013-08-22 07:31:00,74.3,74.3,30.15,West,270,2.7,2.7,100,0.00,,,0.00,VWS V14.01,2013-08-22 11:31:00,
2013-08-22 07:32:00,74.3,74.3,30.15,West,270,3.4,3.4,100,0.00,,,0.00,VWS V14.01,2013-08-22 11:32:00,
2013-08-22 07:33:00,74.3,74.3,30.15,West,270,2.7,2.7,100,0.00,,,0.00,VWS V14.01,2013-08-22 11:33:00,
2013-08-22 07:34:00,74.3,74.3,30.15,WSW,248,2.9,2.9,100,0.00,,,0.00,VWS V14.01,2013-08-22 11:34:00,
2013-08-22 07:35:00,74.3,74.3,30.15,West,270,3.1,3.1,100,0.00,,,0.00,VWS V14.01,2013-08-22 11:35:00,
2013-08-22 07:36:00,74.3,74.3,30.15,West,270,2.5,2.5,100,0.00,,,0.00,VWS V14.01,2013-08-22 11:36:00,
2013-08-22 07:37:00,74.5,74.5,30.15,WSW,248,2.7,2.7,100,0.00,,,0.00,VWS V14.01,2013-08-22 11:37:00,
2013-08-22 07:38:00,74.5,74.5,30.15,West,270,2.0,2.0,100,0.00,,,0.00,VWS V14.01,2013-08-22 11:38:00,
2013-08-22 07:39:00,74.5,74.5,30.15,WSW,248,2.5,2.5,100,0.00,,,0.00,VWS V14.01,2013-08-22 11:39:00,
2013-08-22 07:40:00,74.5,74.5,30.12,WNW,292,3.1,3.1,100,0.00,,,0.00,VWS V14.01,2013-08-22 11:40:00,
2013-08-22 07:41:00,74.5,74.5,30.12,SW,225,1.1,1.1,100,0.00,,,0.00,VWS V14.01,2013-08-22 11:41:00,
2013-08-22 07:42:00,74.5,74.5,30.12,WSW,248,1.3,1.3,100,0.00,,,0.00,VWS V14.01,2013-08-22 11:42:00,
2013-08-22 07:43:00,74.5,74.5,30.12,WSW,248,3.1,3.1,100,0.00,,,0.00,VWS V14.01,2013-08-22 11:43:00,
2013-08-22 07:44:00,74.5,74.5,30.12,WSW,248,2.0,2.0,100,0.00,,,0.00,VWS V14.01,2013-08-22 11:44:00,
2013-08-22 07:45:00,74.7,74.7,30.12,WSW,248,2.5,2.5,100,0.00,,,0.00,VWS V14.01,2013-08-22 11:45:00,
2013-08-22 07:46:00,74.7,74.7,30.12,WSW,248,1.6,1.6,100,0.00,,,0.00,VWS V14.01,2013-08-22 11:46:00,
2013-08-22 07:47:00,74.7,74.7,30.12,West,270,3.4,3.4,100,0.00,,,0.00,VWS V14.01,2013-08-22 11:47:00,
2013-08-22 07:48:00,74.7,74.7,30.12,WNW,292,3.1,3.1,100,0.00,,,0.00,VWS V14.01,2013-08-22 11:48:00,
2013-08-22 07:49:00,74.7,74.7,30.12,WNW,292,2.2,2.2,100,0.00,,,0.00,VWS V14.01,2013-08-22 11:49:00,
2013-08-22 07:50:00,74.7,74.7,30.12,West,270,3.1,3.1,100,0.00,,,0.00,VWS V14.01,2013-08-22 11:50:00,
2013-08-22 07:51:00,74.7,74.7,30.12,WNW,292,2.9,2.9,100,0.00,,,0.00,VWS V14.01,2013-08-22 11:51:00,
2013-08-22 07:52:00,74.7,74.7,30.12,West,270,4.9,4.9,100,0.00,,,0.00,VWS V14.01,2013-08-22 11:52:00,
2013-08-22 07:53:00,74.7,74.7,30.12,West,270,4.0,4.0,100,0.00,,,0.00,VWS V14.01,2013-08-22 11:53:00,
2013-08-22 07:54:00,74.7,74.7,30.12,West,270,3.4,3.4,100,0.00,,,0.00,VWS V14.01,2013-08-22 11:54:00,
2013-08-22 07:55:00,74.7,74.7,30.15,West,270,3.1,3.1,100,0.00,,,0.00,VWS V14.01,2013-08-22 11:55:00,
2013-08-22 07:56:00,74.9,74.9,30.15,WSW,248,3.6,3.6,100,0.00,,,0.00,VWS V14.01,2013-08-22 11:56:00,
2013-08-22 07:57:00,74.9,74.9,30.15,West,270,3.6,3.6,100,0.00,,,0.00,VWS V14.01,2013-08-22 11:57:00,
2013-08-22 07:58:00,74.9,74.9,30.15,West,270,2.9,2.9,100,0.00,,,0.00,VWS V14.01,2013-08-22 11:58:00,
2013-08-22 07:59:00,75.1,75.1,30.15,West,270,2.9,2.9,100,0.00,,,0.00,VWS V14.01,2013-08-22 11:59:00,
2013-08-22 08:00:00,75.1,75.1,30.15,West,270,4.0,4.0,100,0.00,,,0.00,VWS V14.01,2013-08-22 12:00:00,
2013-08-22 08:01:00,75.2,75.2,30.15,West,270,3.6,3.6,100,0.00,,,0.00,VWS V14.01,2013-08-22 12:01:00,
2013-08-22 08:02:00,75.2,75.2,30.15,WSW,248,3.1,3.1,100,0.00,,,0.00,VWS V14.01,2013-08-22 12:02:00,
2013-08-22 08:03:00,75.2,75.2,30.15,West,270,2.5,2.5,100,0.00,,,0.00,VWS V14.01,2013-08-22 12:03:00,
2013-08-22 08:04:00,75.4,75.4,30.15,West,270,3.1,3.1,100,0.00,,,0.00,VWS V14.01,2013-08-22 12:04:00,
2013-08-22 08:05:00,75.6,75.6,30.15,West,270,3.1,3.1,100,0.00,,,0.00,VWS V14.01,2013-08-22 12:05:00,
2013-08-22 08:06:00,75.6,75.6,30.15,WNW,292,4.0,4.0,100,0.00,,,0.00,VWS V14.01,2013-08-22 12:06:00,
2013-08-22 08:07:00,75.6,75.6,30.15,WSW,248,2.9,2.9,100,0.00,,,0.00,VWS V14.01,2013-08-22 12:07:00,
2013-08-22 08:08:00,75.8,75.8,30.15,WNW,292,3.6,3.6,100,0.00,,,0.00,VWS V14.01,2013-08-22 12:08:00,
2013-08-22 08:09:00,75.8,75.8,30.15,WSW,248,2.5,2.5,100,0.00,,,0.00,VWS V14.01,2013-08-22 12:09:00,
2013-08-22 08:10:00,76.0,76.0,30.15,WNW,292,2.7,2.7,100,0.00,,,0.00,VWS V14.01,2013-08-22 12:10:00,
2013-08-22 08:11:00,76.0,76.0,30.15,West,270,3.8,3.8,100,0.00,,,0.00,VWS V14.01,2013-08-22 12:11:00,
2013-08-22 08:12:00,76.0,76.0,30.15,WSW,248,2.9,2.9,100,0.00,,,0.00,VWS V14.01,2013-08-22 12:12:00,
2013-08-22 08:13:00,76.1,76.2,30.15,WSW,248,2.9,2.9,100,0.00,,,0.00,VWS V14.01,2013-08-22 12:13:00,
2013-08-22 08:14:00,76.1,76.2,30.15,West,270,3.8,3.8,100,0.00,,,0.00,VWS V14.01,2013-08-22 12:14:00,
2013-08-22 08:15:00,76.1,76.2,30.15,WSW,248,3.6,3.6,100,0.00,,,0.00,VWS V14.01,2013-08-22 12:15:00,
2013-08-22 08:16:00,76.1,76.2,30.15,West,270,4.7,4.7,100,0.00,,,0.00,VWS V14.01,2013-08-22 12:16:00,
2013-08-22 08:17:00,76.3,76.3,30.15,West,270,2.5,2.5,100,0.00,,,0.00,VWS V14.01,2013-08-22 12:17:00,
2013-08-22 08:18:00,76.3,76.3,30.15,WSW,248,3.4,3.4,100,0.00,,,0.00,VWS V14.01,2013-08-22 12:18:00,
2013-08-22 08:19:00,76.3,76.3,30.15,West,270,2.5,2.5,100,0.00,,,0.00,VWS V14.01,2013-08-22 12:19:00,
2013-08-22 08:20:00,76.3,76.3,30.15,West,270,3.6,3.6,100,0.00,,,0.00,VWS V14.01,2013-08-22 12:20:00,
2013-08-22 08:21:00,76.3,76.3,30.15,WNW,292,4.0,4.0,100,0.00,,,0.00,VWS V14.01,2013-08-22 12:21:00,
2013-08-22 08:22:00,76.3,76.3,30.15,West,270,3.8,3.8,100,0.00,,,0.00,VWS V14.01,2013-08-22 12:22:00,
2013-08-22 08:23:00,76.3,76.3,30.15,WSW,248,3.4,3.4,100,0.00,,,0.00,VWS V14.01,2013-08-22 12:23:00,
2013-08-22 08:24:00,76.3,76.3,30.15,WSW,248,5.6,5.6,100,0.00,,,0.00,VWS V14.01,2013-08-22 12:24:00,
2013-08-22 08:25:00,76.3,76.3,30.18,WSW,248,3.1,3.1,100,0.00,,,0.00,VWS V14.01,2013-08-22 12:25:00,
2013-08-22 08:26:00,76.3,76.3,30.18,West,270,4.3,4.3,100,0.00,,,0.00,VWS V14.01,2013-08-22 12:26:00,
2013-08-22 08:27:00,76.3,76.3,30.18,WSW,248,2.7,2.7,100,0.00,,CLR,0.00,VWS V14.01,2013-08-22 12:27:00,
2013-08-22 08:28:00,76.3,76.3,30.18,WSW,248,2.7,2.7,100,0.00,,,0.00,VWS V14.01,2013-08-22 12:28:00,
2013-08-22 08:29:00,76.5,76.5,30.18,WSW,248,3.4,3.4,100,0.00,,,0.00,VWS V14.01,2013-08-22 12:29:00,
2013-08-22 08:30:00,76.5,76.5,30.18,SSW,202,3.4,3.4,100,0.00,,,0.00,VWS V14.01,2013-08-22 12:30:00,
2013-08-22 08:31:00,76.5,76.5,30.18,West,270,2.9,2.9,100,0.00,,,0.00,VWS V14.01,2013-08-22 12:31:00,
2013-08-22 08:32:00,76.3,76.3,30.18,West,270,3.6,3.6,100,0.00,,CLR,0.00,VWS V14.01,2013-08-22 12:32:00,
2013-08-22 08:33:00,76.3,76.3,30.18,West,270,4.9,4.9,100,0.00,,,0.00,VWS V14.01,2013-08-22 12:33:00,
2013-08-22 08:34:00,76.3,76.3,30.18,WSW,248,3.6,3.6,100,0.00,,,0.00,VWS V14.01,2013-08-22 12:34:00,
2013-08-22 08:35:00,76.3,76.3,30.18,West,270,3.1,3.1,100,0.00,,,0.00,VWS V14.01,2013-08-22 12:35:00,
2013-08-22 08:36:00,76.5,76.5,30.18,WSW,248,4.9,4.9,100,0.00,,,0.00,VWS V14.01,2013-08-22 12:36:00,
2013-08-22 08:37:00,76.5,76.5,30.18,West,270,4.3,4.3,100,0.00,,CLR,0.00,VWS V14.01,2013-08-22 12:37:00,
2013-08-22 08:38:00,76.5,76.5,30.18,West,270,3.6,3.6,100,0.00,,,0.00,VWS V14.01,2013-08-22 12:38:00,
2013-08-22 08:39:00,76.5,76.5,30.18,West,270,4.0,4.0,100,0.00,,,0.00,VWS V14.01,2013-08-22 12:39:00,
2013-08-22 08:40:00,76.5,76.5,30.15,West,270,3.1,3.1,100,0.00,,,0.00,VWS V14.01,2013-08-22 12:40:00,
2013-08-22 08:41:00,76.5,76.5,30.15,West,270,2.9,2.9,100,0.00,,,0.00,VWS V14.01,2013-08-22 12:41:00,
2013-08-22 08:42:00,76.5,76.5,30.15,West,270,2.9,2.9,100,0.00,,CLR,0.00,VWS V14.01,2013-08-22 12:42:00,
2013-08-22 08:43:00,76.5,76.5,30.15,West,270,4.0,4.0,100,0.00,,,0.00,VWS V14.01,2013-08-22 12:43:00,
2013-08-22 08:44:00,76.5,76.5,30.15,WSW,248,5.8,5.8,100,0.00,,,0.00,VWS V14.01,2013-08-22 12:44:00,
2013-08-22 08:45:00,76.5,76.5,30.15,WSW,248,5.8,5.8,100,0.00,,,0.00,VWS V14.01,2013-08-22 12:45:00,
2013-08-22 08:46:00,76.7,76.7,30.15,West,270,4.0,4.0,100,0.00,,,0.00,VWS V14.01,2013-08-22 12:46:00,
2013-08-22 08:47:00,76.9,76.9,30.15,West,270,4.0,4.0,100,0.00,,CLR,0.00,VWS V14.01,2013-08-22 12:47:00,
2013-08-22 08:48:00,76.7,76.7,30.15,WNW,292,4.0,4.0,100,0.00,,,0.00,VWS V14.01,2013-08-22 12:48:00,
2013-08-22 08:49:00,76.9,76.9,30.15,WNW,292,3.8,3.8,100,0.00,,,0.00,VWS V14.01,2013-08-22 12:49:00,
2013-08-22 08:50:00,76.9,76.9,30.15,West,270,4.0,4.0,100,0.00,,,0.00,VWS V14.01,2013-08-22 12:50:00,
2013-08-22 08:51:00,77.0,77.1,30.15,SW,225,2.0,2.0,100,0.00,,,0.00,VWS V14.01,2013-08-22 12:51:00,
2013-08-22 08:52:00,77.2,77.2,30.15,West,270,3.4,3.4,100,0.00,,FEW003,0.00,VWS V14.01,2013-08-22 12:52:00,
2013-08-22 08:53:00,77.2,77.2,30.15,WNW,292,4.0,4.0,100,0.00,,,0.00,VWS V14.01,2013-08-22 12:53:00,
2013-08-22 08:54:00,77.4,77.4,30.15,West,270,3.4,3.4,100,0.00,,,0.00,VWS V14.01,2013-08-22 12:54:00,
2013-08-22 08:55:00,77.4,77.4,30.15,WNW,292,2.9,2.9,100,0.00,,,0.00,VWS V14.01,2013-08-22 12:55:00,
2013-08-22 08:56:00,77.6,77.6,30.15,West,270,2.9,2.9,100,0.00,,,0.00,VWS V14.01,2013-08-22 12:56:00,
2013-08-22 08:57:00,77.8,77.8,30.15,WSW,248,4.9,4.9,100,0.00,,FEW003,0.00,VWS V14.01,2013-08-22 12:57:00,
2013-08-22 08:58:00,77.8,77.8,30.15,WSW,248,6.0,6.0,100,0.00,,,0.00,VWS V14.01,2013-08-22 12:58:00,
2013-08-22 08:59:00,77.8,77.8,30.15,SSW,202,2.0,2.0,100,0.00,,,0.00,VWS V14.01,2013-08-22 12:59:00,
2013-08-22 09:00:00,77.8,77.8,30.15,WSW,248,4.3,4.3,100,0.00,,FEW003,0.00,VWS V14.01,2013-08-22 13:00:00,
2013-08-22 09:01:00,77.8,77.8,30.15,West,270,4.0,4.0,100,0.00,,,0.00,VWS V14.01,2013-08-22 13:01:00,
2013-08-22 09:02:00,77.8,77.2,30.15,West,270,4.0,4.0,98,0.00,,,0.00,VWS V14.01,2013-08-22 13:02:00,
2013-08-22 09:03:00,77.9,77.6,30.15,WSW,248,3.6,3.6,99,0.00,,,0.00,VWS V14.01,2013-08-22 13:03:00,
2013-08-22 09:04:00,77.9,77.6,30.15,West,270,3.4,3.4,99,0.00,,,0.00,VWS V14.01,2013-08-22 13:04:00,
2013-08-22 09:05:00,77.8,76.2,30.15,SW,225,3.8,3.8,95,0.00,,FEW003,0.00,VWS V14.01,2013-08-22 13:05:00,
2013-08-22 09:06:00,77.8,76.2,30.15,WSW,248,5.6,5.6,95,0.00,,,0.00,VWS V14.01,2013-08-22 13:06:00,
2013-08-22 09:07:00,77.8,75.9,30.15,West,270,6.0,6.0,94,0.00,,,0.00,VWS V14.01,2013-08-22 13:07:00,
2013-08-22 09:08:00,77.8,76.2,30.15,West,270,2.2,2.2,95,0.00,,,0.00,VWS V14.01,2013-08-22 13:08:00,
2013-08-22 09:09:00,78.1,76.6,30.15,WSW,248,2.7,2.7,95,0.00,,,0.00,VWS V14.01,2013-08-22 13:09:00,
2013-08-22 09:10:00,77.9,75.4,30.15,West,270,7.8,7.8,92,0.00,,FEW003,0.00,VWS V14.01,2013-08-22 13:10:00,
2013-08-22 09:11:00,78.1,76.6,30.15,West,270,6.5,6.5,95,0.00,,,0.00,VWS V14.01,2013-08-22 13:11:00,
2013-08-22 09:12:00,77.9,75.4,30.15,WNW,292,4.3,4.3,92,0.00,,,0.00,VWS V14.01,2013-08-22 13:12:00,
2013-08-22 09:13:00,77.9,75.4,30.15,West,270,2.7,2.7,92,0.00,,,0.00,VWS V14.01,2013-08-22 13:13:00,
2013-08-22 09:14:00,77.9,75.4,30.15,West,270,5.8,5.8,92,0.00,,,0.00,VWS V14.01,2013-08-22 13:14:00,
2013-08-22 09:15:00,77.9,75.4,30.15,West,270,5.6,5.6,92,0.00,,FEW003,0.00,VWS V14.01,2013-08-22 13:15:00,
2013-08-22 09:16:00,77.9,75.4,30.15,West,270,4.3,4.3,92,0.00,,,0.00,VWS V14.01,2013-08-22 13:16:00,
2013-08-22 09:17:00,78.1,75.6,30.15,West,270,4.0,4.0,92,0.00,,,0.00,VWS V14.01,2013-08-22 13:17:00,
2013-08-22 09:18:00,78.1,75.6,30.15,WNW,292,4.3,4.3,92,0.00,,,0.00,VWS V14.01,2013-08-22 13:18:00,
2013-08-22 09:19:00,78.1,75.3,30.15,West,270,2.5,2.5,91,0.00,,,0.00,VWS V14.01,2013-08-22 13:19:00,
2013-08-22 09:20:00,78.1,74.9,30.15,West,270,3.6,3.6,90,0.00,,FEW003,0.00,VWS V14.01,2013-08-22 13:20:00,
2013-08-22 09:21:00,78.1,74.9,30.15,West,270,7.6,7.6,90,0.00,,,0.00,VWS V14.01,2013-08-22 13:21:00,
2013-08-22 09:22:00,78.1,75.3,30.15,WNW,292,5.4,5.4,91,0.00,,,0.00,VWS V14.01,2013-08-22 13:22:00,
2013-08-22 09:23:00,78.1,75.3,30.15,WSW,248,5.6,5.6,91,0.00,,,0.00,VWS V14.01,2013-08-22 13:23:00,
2013-08-22 09:24:00,78.3,75.5,30.15,West,270,5.4,5.4,91,0.00,,,0.00,VWS V14.01,2013-08-22 13:24:00,
2013-08-22 09:25:00,78.5,76.0,30.15,WSW,248,3.6,3.6,92,0.00,,,0.00,VWS V14.01,2013-08-22 13:25:00,
2013-08-22 09:26:00,78.5,75.3,30.15,WSW,248,3.8,3.8,90,0.00,,FEW003,0.00,VWS V14.01,2013-08-22 13:26:00,
2013-08-22 09:27:00,78.5,75.3,30.15,West,270,5.6,5.6,90,0.00,,,0.00,VWS V14.01,2013-08-22 13:27:00,
2013-08-22 09:28:00,78.7,76.1,30.15,WNW,292,4.9,4.9,92,0.00,,,0.00,VWS V14.01,2013-08-22 13:28:00,
2013-08-22 09:29:00,78.7,75.5,30.15,WSW,248,6.5,6.5,90,0.00,,,0.00,VWS V14.01,2013-08-22 13:29:00,
2013-08-22 09:30:00,78.7,75.8,30.15,SW,225,4.0,4.0,91,0.00,,,0.00,VWS V14.01,2013-08-22 13:30:00,
2013-08-22 09:31:00,78.7,75.2,30.15,WSW,248,5.8,5.8,89,0.00,,FEW003,0.00,VWS V14.01,2013-08-22 13:31:00,
2013-08-22 09:32:00,78.7,75.2,30.15,West,270,3.8,3.8,89,0.00,,,0.00,VWS V14.01,2013-08-22 13:32:00,
2013-08-22 09:33:00,78.7,75.2,30.15,West,270,4.3,4.3,89,0.00,,,0.00,VWS V14.01,2013-08-22 13:33:00,
2013-08-22 09:34:00,78.8,75.0,30.15,West,270,3.1,3.1,88,0.00,,,0.00,VWS V14.01,2013-08-22 13:34:00,
2013-08-22 09:35:00,78.8,75.3,30.15,West,270,3.1,3.1,89,0.00,,,0.00,VWS V14.01,2013-08-22 13:35:00,
2013-08-22 09:36:00,79.0,75.5,30.15,WSW,248,5.6,5.6,89,0.00,,BKN005,0.00,VWS V14.01,2013-08-22 13:36:00,
2013-08-22 09:37:00,79.0,75.5,30.15,WSW,248,2.5,2.5,89,0.00,,,0.00,VWS V14.01,2013-08-22 13:37:00,
2013-08-22 09:38:00,79.0,75.5,30.15,West,270,3.1,3.1,89,0.00,,,0.00,VWS V14.01,2013-08-22 13:38:00,
2013-08-22 09:39:00,79.0,75.5,30.15,WNW,292,2.9,2.9,89,0.00,,,0.00,VWS V14.01,2013-08-22 13:39:00,
2013-08-22 09:40:00,79.2,75.3,30.15,West,270,4.9,4.9,88,0.00,,,0.00,VWS V14.01,2013-08-22 13:40:00,
2013-08-22 09:41:00,79.2,75.3,30.15,WNW,292,2.5,2.5,88,0.00,,BKN005,0.00,VWS V14.01,2013-08-22 13:41:00,
2013-08-22 09:42:00,79.2,75.3,30.15,WNW,292,2.5,2.5,88,0.00,,,0.00,VWS V14.01,2013-08-22 13:42:00,
2013-08-22 09:43:00,79.2,75.3,30.15,West,270,7.2,7.2,88,0.00,,,0.00,VWS V14.01,2013-08-22 13:43:00,
2013-08-22 09:44:00,79.4,75.2,30.15,WSW,248,3.6,3.6,87,0.00,,,0.00,VWS V14.01,2013-08-22 13:44:00,
2013-08-22 09:45:00,79.4,75.2,30.15,West,270,4.9,4.9,87,0.00,,,0.00,VWS V14.01,2013-08-22 13:45:00,
2013-08-22 09:46:00,79.4,75.2,30.15,West,270,8.5,8.5,87,0.00,,BKN005,0.00,VWS V14.01,2013-08-22 13:46:00,
2013-08-22 09:47:00,79.4,75.2,30.15,West,270,8.5,8.5,87,0.00,,,0.00,VWS V14.01,2013-08-22 13:47:00,
2013-08-22 09:48:00,79.4,74.8,30.15,WNW,292,6.5,6.5,86,0.00,,,0.00,VWS V14.01,2013-08-22 13:48:00,
2013-08-22 09:49:00,79.2,73.9,30.15,WSW,248,5.4,5.4,84,0.00,,,0.00,VWS V14.01,2013-08-22 13:49:00,
2013-08-22 09:50:00,79.4,74.8,30.15,West,270,6.3,6.3,86,0.00,,,0.00,VWS V14.01,2013-08-22 13:50:00,
2013-08-22 09:51:00,79.4,75.2,30.15,SSW,202,3.1,3.1,87,0.00,,SCT005,0.00,VWS V14.01,2013-08-22 13:51:00,
2013-08-22 09:52:00,79.4,75.2,30.15,SSW,202,3.1,3.1,87,0.00,,,0.00,VWS V14.01,2013-08-22 13:52:00,
2013-08-22 09:53:00,79.6,76.0,30.15,WNW,292,3.1,3.1,89,0.00,,,0.00,VWS V14.01,2013-08-22 13:53:00,
2013-08-22 09:54:00,79.6,76.0,30.15,West,270,6.3,6.3,89,0.00,,,0.00,VWS V14.01,2013-08-22 13:54:00,
2013-08-22 09:55:00,79.6,74.3,30.15,West,270,8.5,8.5,84,0.00,,,0.00,VWS V14.01,2013-08-22 13:55:00,
2013-08-22 09:56:00,79.6,74.3,30.15,WSW,248,4.9,4.9,84,0.00,,SCT005,0.00,VWS V14.01,2013-08-22 13:56:00,
2013-08-22 09:57:00,79.6,74.3,30.15,WSW,248,4.9,4.9,84,0.00,,,0.00,VWS V14.01,2013-08-22 13:57:00,
2013-08-22 09:58:00,79.6,74.3,30.15,West,270,2.5,2.5,84,0.00,,,0.00,VWS V14.01,2013-08-22 13:58:00,
2013-08-22 09:59:00,79.9,75.0,30.15,West,270,2.5,2.5,85,0.00,,,0.00,VWS V14.01,2013-08-22 13:59:00,
2013-08-22 10:00:00,79.9,75.0,30.15,WSW,248,4.3,4.3,85,0.00,,,0.00,VWS V14.01,2013-08-22 14:00:00,
2013-08-22 10:01:00,80.1,75.5,30.15,West,270,6.5,6.5,86,0.00,,SCT005,0.00,VWS V14.01,2013-08-22 14:01:00,
2013-08-22 10:02:00,80.1,75.5,30.15,West,270,6.5,6.5,86,0.00,,,0.00,VWS V14.01,2013-08-22 14:02:00,
2013-08-22 10:03:00,80.1,75.5,30.15,WNW,292,2.9,2.9,86,0.00,,,0.00,VWS V14.01,2013-08-22 14:03:00,
2013-08-22 10:04:00,80.1,74.8,30.15,WNW,292,2.5,2.5,84,0.00,,,0.00,VWS V14.01,2013-08-22 14:04:00,
2013-08-22 10:05:00,80.1,74.1,30.15,WSW,248,6.5,6.5,82,0.00,,,0.00,VWS V14.01,2013-08-22 14:05:00,
2013-08-22 10:06:00,80.3,73.6,30.15,West,270,5.6,5.6,80,0.00,,SCT005,0.00,VWS V14.01,2013-08-22 14:06:00,
2013-08-22 10:07:00,80.3,73.6,30.15,West,270,5.6,5.6,80,0.00,,,0.00,VWS V14.01,2013-08-22 14:07:00,
2013-08-22 10:08:00,80.1,73.4,30.15,West,270,7.2,7.2,80,0.00,,,0.00,VWS V14.01,2013-08-22 14:08:00,
2013-08-22 10:09:00,80.1,73.4,30.15,West,270,6.7,6.7,80,0.00,,,0.00,VWS V14.01,2013-08-22 14:09:00,
2013-08-22 10:10:00,80.1,73.8,30.15,West,270,3.4,3.4,81,0.00,,,0.00,VWS V14.01,2013-08-22 14:10:00,
2013-08-22 10:11:00,80.3,74.7,30.15,WSW,248,3.8,3.8,83,0.00,,SCT005,0.00,VWS V14.01,2013-08-22 14:11:00,
2013-08-22 10:12:00,80.3,74.7,30.15,WSW,248,3.8,3.8,83,0.00,,,0.00,VWS V14.01,2013-08-22 14:12:00,
2013-08-22 10:13:00,80.3,74.7,30.15,SW,225,4.3,4.3,83,0.00,,,0.00,VWS V14.01,2013-08-22 14:13:00,
2013-08-22 10:14:00,80.5,74.5,30.15,SW,225,2.7,2.7,82,0.00,,,0.00,VWS V14.01,2013-08-22 14:14:00,
2013-08-22 10:15:00,80.5,74.5,30.15,WSW,248,3.8,3.8,82,0.00,,,0.00,VWS V14.01,2013-08-22 14:15:00,
2013-08-22 10:16:00,80.8,75.5,30.15,WSW,248,3.4,3.4,84,0.00,,SCT005,0.00,VWS V14.01,2013-08-22 14:16:00,
2013-08-22 10:17:00,80.8,75.5,30.15,WSW,248,3.4,3.4,84,0.00,,,0.00,VWS V14.01,2013-08-22 14:17:00,
2013-08-22 10:18:00,81.0,76.1,30.15,NW,315,3.8,3.8,85,0.00,,,0.00,VWS V14.01,2013-08-22 14:18:00,
2013-08-22 10:19:00,81.2,76.6,30.15,West,270,4.0,4.0,86,0.00,,,0.00,VWS V14.01,2013-08-22 14:19:00,
2013-08-22 10:20:00,81.2,76.2,30.15,WSW,248,3.1,3.1,85,0.00,,,0.00,VWS V14.01,2013-08-22 14:20:00,
2013-08-22 10:21:00,81.2,74.8,30.15,WSW,248,4.3,4.3,81,0.00,,SCT005,0.00,VWS V14.01,2013-08-22 14:21:00,
2013-08-22 10:22:00,81.2,74.8,30.15,West,270,3.1,3.1,81,0.00,,,0.00,VWS V14.01,2013-08-22 14:22:00,
2013-08-22 10:23:00,81.2,74.8,30.15,West,270,4.0,4.0,81,0.00,,,0.00,VWS V14.01,2013-08-22 14:23:00,
2013-08-22 10:24:00,81.4,75.0,30.15,SSW,202,3.4,3.4,81,0.00,,,0.00,VWS V14.01,2013-08-22 14:24:00,
2013-08-22 10:25:00,81.4,75.0,30.15,WSW,248,2.7,2.7,81,0.00,,,0.00,VWS V14.01,2013-08-22 14:25:00,
2013-08-22 10:26:00,81.4,73.8,30.15,West,270,2.0,2.0,78,0.00,,SCT005,0.00,VWS V14.01,2013-08-22 14:26:00,
2013-08-22 10:27:00,81.4,73.8,30.15,West,270,2.0,2.0,78,0.00,,,0.00,VWS V14.01,2013-08-22 14:27:00,
2013-08-22 10:28:00,81.5,74.8,30.15,West,270,5.8,5.8,80,0.00,,,0.00,VWS V14.01,2013-08-22 14:28:00,
2013-08-22 10:29:00,81.4,73.5,30.15,West,270,7.6,7.6,77,0.00,,,0.00,VWS V14.01,2013-08-22 14:29:00,
2013-08-22 10:30:00,81.4,74.6,30.15,West,270,3.8,3.8,80,0.00,,,0.00,VWS V14.01,2013-08-22 14:30:00,
2013-08-22 10:31:00,81.4,74.2,30.15,WSW,248,6.3,6.3,79,0.00,,SCT005,0.00,VWS V14.01,2013-08-22 14:31:00,
2013-08-22 10:32:00,81.4,74.2,30.15,WSW,248,4.7,4.7,79,0.00,,,0.00,VWS V14.01,2013-08-22 14:32:00,
2013-08-22 10:33:00,81.4,73.8,30.15,West,270,5.4,5.4,78,0.00,,,0.00,VWS V14.01,2013-08-22 14:33:00,
2013-08-22 10:34:00,81.4,73.5,30.15,SSW,202,5.6,5.6,77,0.00,,,0.00,VWS V14.01,2013-08-22 14:34:00,
2013-08-22 10:35:00,81.5,74.4,30.15,SSW,202,4.7,4.7,79,0.00,,,0.00,VWS V14.01,2013-08-22 14:35:00,
2013-08-22 10:36:00,81.5,73.2,30.15,West,270,4.0,4.0,76,0.00,,FEW007,0.00,VWS V14.01,2013-08-22 14:36:00,
2013-08-22 10:37:00,81.5,73.2,30.15,West,270,4.3,4.3,76,0.00,,,0.00,VWS V14.01,2013-08-22 14:37:00,
2013-08-22 10:38:00,81.5,72.9,30.15,West,270,7.2,7.2,75,0.00,,,0.00,VWS V14.01,2013-08-22 14:38:00,
2013-08-22 10:39:00,81.4,71.9,30.15,SW,225,9.6,9.6,73,0.00,,,0.00,VWS V14.01,2013-08-22 14:39:00,
2013-08-22 10:40:00,81.4,72.3,30.15,WSW,248,6.3,6.3,74,0.00,,,0.00,VWS V14.01,2013-08-22 14:40:00,
2013-08-22 10:41:00,81.5,72.9,30.15,WSW,248,4.0,4.0,75,0.00,,FEW007,0.00,VWS V14.01,2013-08-22 14:41:00,
2013-08-22 10:42:00,81.4,71.9,30.15,West,270,3.1,3.1,73,0.00,,,0.00,VWS V14.01,2013-08-22 14:42:00,
2013-08-22 10:43:00,81.5,72.9,30.15,SW,225,4.9,4.9,75,0.00,,,0.00,VWS V14.01,2013-08-22 14:43:00,
2013-08-22 10:44:00,81.4,73.1,30.15,WSW,248,6.5,6.5,76,0.00,,,0.00,VWS V14.01,2013-08-22 14:44:00,
2013-08-22 10:45:00,81.2,71.7,30.15,SW,225,5.6,5.6,73,0.00,,,0.00,VWS V14.01,2013-08-22 14:45:00,
2013-08-22 10:46:00,81.2,72.1,30.15,WNW,292,7.6,7.6,74,0.00,,FEW007,0.00,VWS V14.01,2013-08-22 14:46:00,
2013-08-22 10:47:00,81.2,72.1,30.15,West,270,6.5,6.5,74,0.00,,,0.00,VWS V14.01,2013-08-22 14:47:00,
2013-08-22 10:48:00,81.2,72.5,30.15,West,270,7.4,7.4,75,0.00,,,0.00,VWS V14.01,2013-08-22 14:48:00,
2013-08-22 10:49:00,81.2,72.5,30.15,NW,315,6.3,6.3,75,0.00,,,0.00,VWS V14.01,2013-08-22 14:49:00,
2013-08-22 10:50:00,81.2,72.1,30.15,WNW,292,4.0,4.0,74,0.00,,,0.00,VWS V14.01,2013-08-22 14:50:00,
2013-08-22 10:51:00,81.5,72.9,30.15,WSW,248,6.3,6.3,75,0.00,,FEW007,0.00,VWS V14.01,2013-08-22 14:51:00,
2013-08-22 10:52:00,81.5,72.9,30.15,West,270,8.5,8.5,75,0.00,,,0.00,VWS V14.01,2013-08-22 14:52:00,
2013-08-22 10:53:00,81.5,72.9,30.15,SW,225,5.6,5.6,75,0.00,,,0.00,VWS V14.01,2013-08-22 14:53:00,
2013-08-22 10:54:00,81.7,73.4,30.15,West,270,7.6,7.6,76,0.00,,,0.00,VWS V14.01,2013-08-22 14:54:00,
2013-08-22 10:55:00,81.7,73.4,30.15,West,270,7.4,7.4,76,0.00,,,0.00,VWS V14.01,2013-08-22 14:55:00,
2013-08-22 10:56:00,81.7,73.4,30.15,West,270,11.0,11.0,76,0.00,,,0.00,VWS V14.01,2013-08-22 14:56:00,
2013-08-22 10:57:00,81.5,73.2,30.15,West,270,4.7,4.7,76,0.00,,FEW007,0.00,VWS V14.01,2013-08-22 14:57:00,
2013-08-22 10:58:00,81.5,73.2,30.15,West,270,5.4,5.4,76,0.00,,,0.00,VWS V14.01,2013-08-22 14:58:00,
2013-08-22 10:59:00,81.5,72.1,30.15,West,270,4.9,4.9,73,0.00,,,0.00,VWS V14.01,2013-08-22 14:59:00,
2013-08-22 11:00:00,81.5,72.5,30.15,WSW,248,5.6,5.6,74,0.00,,,0.00,VWS V14.01,2013-08-22 15:00:00,
2013-08-22 11:01:00,81.7,73.4,30.15,SW,225,2.7,2.7,76,0.00,,,0.00,VWS V14.01,2013-08-22 15:01:00,
2013-08-22 11:02:00,81.9,72.4,30.15,WSW,248,8.1,8.1,73,0.00,,FEW007,0.00,VWS V14.01,2013-08-22 15:02:00,
2013-08-22 11:03:00,81.9,72.4,30.15,West,270,10.7,10.7,73,0.00,,,0.00,VWS V14.01,2013-08-22 15:03:00,
2013-08-22 11:04:00,81.7,71.8,30.15,West,270,6.5,6.5,72,0.00,,,0.00,VWS V14.01,2013-08-22 15:04:00,
2013-08-22 11:05:00,81.9,73.2,30.15,WSW,248,3.8,3.8,75,0.00,,,0.00,VWS V14.01,2013-08-22 15:05:00,
2013-08-22 11:06:00,82.1,73.4,30.15,West,270,5.8,5.8,75,0.00,,,0.00,VWS V14.01,2013-08-22 15:06:00,
2013-08-22 11:07:00,82.1,73.0,30.15,West,270,8.5,8.5,74,0.00,,FEW007,0.00,VWS V14.01,2013-08-22 15:07:00,
2013-08-22 11:08:00,82.1,71.8,30.15,WSW,248,8.1,8.1,71,0.00,,,0.00,VWS V14.01,2013-08-22 15:08:00,
2013-08-22 11:09:00,82.1,72.6,30.15,West,270,3.4,3.4,73,0.00,,,0.00,VWS V14.01,2013-08-22 15:09:00,
2013-08-22 11:10:00,82.3,74.3,30.15,West,270,4.0,4.0,77,0.00,,,0.00,VWS V14.01,2013-08-22 15:10:00,
2013-08-22 11:11:00,82.3,72.8,30.15,SW,225,3.1,3.1,73,0.00,,,0.00,VWS V14.01,2013-08-22 15:11:00,
2013-08-22 11:12:00,82.4,73.3,30.15,SSE,158,2.2,2.2,74,0.00,,FEW007,0.00,VWS V14.01,2013-08-22 15:12:00,
2013-08-22 11:13:00,82.4,73.3,30.15,SSW,202,2.0,2.0,74,0.00,,,0.00,VWS V14.01,2013-08-22 15:13:00,
2013-08-22 11:14:00,82.4,73.3,30.15,NNW,338,0.0,0.0,74,0.00,,,0.00,VWS V14.01,2013-08-22 15:14:00,
2013-08-22 11:15:00,82.8,74.1,30.15,WSW,248,5.6,5.6,75,0.00,,,0.00,VWS V14.01,2013-08-22 15:15:00,
2013-08-22 11:16:00,83.0,73.4,30.15,WSW,248,5.6,5.6,73,0.00,,,0.00,VWS V14.01,2013-08-22 15:16:00,
2013-08-22 11:17:00,83.0,72.6,30.15,West,270,6.0,6.0,71,0.00,,FEW007,0.00,VWS V14.01,2013-08-22 15:17:00,
2013-08-22 11:18:00,83.0,72.6,30.15,West,270,6.0,6.0,71,0.00,,,0.00,VWS V14.01,2013-08-22 15:18:00,
2013-08-22 11:19:00,82.8,71.6,30.15,WSW,248,7.2,7.2,69,0.00,,,0.00,VWS V14.01,2013-08-22 15:19:00,
2013-08-22 11:20:00,82.8,71.6,30.15,West,270,5.8,5.8,69,0.00,,,0.00,VWS V14.01,2013-08-22 15:20:00,
2013-08-22 11:21:00,83.0,73.0,30.15,North,0,0.9,0.9,72,0.00,,,0.00,VWS V14.01,2013-08-22 15:21:00,
2013-08-22 11:22:00,83.0,72.2,30.15,West,270,3.8,3.8,70,0.00,,FEW007,0.00,VWS V14.01,2013-08-22 15:22:00,
2013-08-22 11:23:00,83.0,72.2,30.15,West,270,3.8,3.8,70,0.00,,,0.00,VWS V14.01,2013-08-22 15:23:00,
2013-08-22 11:24:00,83.0,72.6,30.15,West,270,4.0,4.0,71,0.00,,,0.00,VWS V14.01,2013-08-22 15:24:00,
2013-08-22 11:25:00,83.0,72.6,30.12,NW,315,3.4,3.4,71,0.00,,,0.00,VWS V14.01,2013-08-22 15:25:00,
2013-08-22 11:26:00,83.2,72.8,30.12,WNW,292,4.5,4.5,71,0.00,,,0.00,VWS V14.01,2013-08-22 15:26:00,
2013-08-22 11:27:00,83.2,72.8,30.12,West,270,4.9,4.9,71,0.00,,FEW007,0.00,VWS V14.01,2013-08-22 15:27:00,
2013-08-22 11:28:00,83.2,72.8,30.12,West,270,4.9,4.9,71,0.00,,,0.00,VWS V14.01,2013-08-22 15:28:00,
2013-08-22 11:29:00,83.2,72.8,30.12,West,270,4.9,4.9,71,0.00,,,0.00,VWS V14.01,2013-08-22 15:29:00,
2013-08-22 11:30:00,83.2,71.9,30.12,West,270,3.8,3.8,69,0.00,,,0.00,VWS V14.01,2013-08-22 15:30:00,
2013-08-22 11:31:00,83.3,73.0,30.12,West,270,6.5,6.5,71,0.00,,,0.00,VWS V14.01,2013-08-22 15:31:00,
2013-08-22 11:32:00,83.2,71.9,30.12,West,270,9.8,9.8,69,0.00,,FEW007,0.00,VWS V14.01,2013-08-22 15:32:00,
2013-08-22 11:33:00,83.2,71.9,30.12,West,270,9.8,9.8,69,0.00,,,0.00,VWS V14.01,2013-08-22 15:33:00,
2013-08-22 11:34:00,83.0,71.8,30.12,SW,225,12.3,12.3,69,0.00,,,0.00,VWS V14.01,2013-08-22 15:34:00,
2013-08-22 11:35:00,83.0,71.8,30.12,WNW,292,6.9,6.9,69,0.00,,,0.00,VWS V14.01,2013-08-22 15:35:00,
2013-08-22 11:36:00,83.0,72.2,30.12,West,270,4.0,4.0,70,0.00,,,0.00,VWS V14.01,2013-08-22 15:36:00,
2013-08-22 11:37:00,83.2,72.4,30.12,West,270,8.5,8.5,70,0.00,,SCT017,0.00,VWS V14.01,2013-08-22 15:37:00,
2013-08-22 11:38:00,83.2,72.4,30.12,West,270,8.5,8.5,70,0.00,,,0.00,VWS V14.01,2013-08-22 15:38:00,
2013-08-22 11:39:00,83.2,72.4,30.12,WNW,292,4.9,4.9,70,0.00,,,0.00,VWS V14.01,2013-08-22 15:39:00,
2013-08-22 11:40:00,83.3,73.8,30.15,West,270,8.5,8.5,73,0.00,,,0.00,VWS V14.01,2013-08-22 15:40:00,
2013-08-22 11:41:00,83.2,72.8,30.15,West,270,5.6,5.6,71,0.00,,,0.00,VWS V14.01,2013-08-22 15:41:00,
2013-08-22 11:42:00,83.2,72.4,30.15,WSW,248,10.1,10.1,70,0.00,,SCT017,0.00,VWS V14.01,2013-08-22 15:42:00,
2013-08-22 11:43:00,83.2,72.4,30.15,WSW,248,10.1,10.1,70,0.00,,,0.00,VWS V14.01,2013-08-22 15:43:00,
2013-08-22 11:44:00,83.2,71.9,30.15,SW,225,7.6,7.6,69,0.00,,,0.00,VWS V14.01,2013-08-22 15:44:00,
2013-08-22 11:45:00,83.2,71.9,30.15,West,270,6.3,6.3,69,0.00,,,0.00,VWS V14.01,2013-08-22 15:45:00,
2013-08-22 11:46:00,83.2,73.2,30.15,NNW,338,7.4,7.4,72,0.00,,,0.00,VWS V14.01,2013-08-22 15:46:00,
2013-08-22 11:47:00,83.2,71.9,30.15,WNW,292,7.4,7.4,69,0.00,,SCT017,0.00,VWS V14.01,2013-08-22 15:47:00,
2013-08-22 11:48:00,83.2,71.9,30.15,WNW,292,7.4,7.4,69,0.00,,,0.00,VWS V14.01,2013-08-22 15:48:00,
2013-08-22 11:49:00,83.2,71.9,30.15,SSW,202,5.4,5.4,69,0.00,,,0.00,VWS V14.01,2013-08-22 15:49:00,
2013-08-22 11:50:00,83.3,73.4,30.15,WSW,248,8.5,8.5,72,0.00,,,0.00,VWS V14.01,2013-08-22 15:50:00,
2013-08-22 11:51:00,83.3,73.0,30.15,West,270,3.8,3.8,71,0.00,,,0.00,VWS V14.01,2013-08-22 15:51:00,
2013-08-22 11:52:00,83.5,73.1,30.15,West,270,7.4,7.4,71,0.00,,SCT021,0.00,VWS V14.01,2013-08-22 15:52:00,
2013-08-22 11:53:00,83.5,73.1,30.15,West,270,7.4,7.4,71,0.00,,,0.00,VWS V14.01,2013-08-22 15:53:00,
2013-08-22 11:54:00,83.5,73.1,30.15,West,270,6.5,6.5,71,0.00,,,0.00,VWS V14.01,2013-08-22 15:54:00,
2013-08-22 11:55:00,83.7,72.5,30.15,WSW,248,3.4,3.4,69,0.00,,,0.00,VWS V14.01,2013-08-22 15:55:00,
2013-08-22 11:56:00,83.7,72.0,30.15,West,270,7.6,7.6,68,0.00,,,0.00,VWS V14.01,2013-08-22 15:56:00,
2013-08-22 11:57:00,84.1,73.7,30.15,WSW,248,3.6,3.6,71,0.00,,SCT021,0.00,VWS V14.01,2013-08-22 15:57:00,
2013-08-22 11:58:00,84.1,73.7,30.15,WSW,248,3.6,3.6,71,0.00,,,0.00,VWS V14.01,2013-08-22 15:58:00,
2013-08-22 11:59:00,84.1,72.8,30.15,North,0,3.4,3.4,69,0.00,,,0.00,VWS V14.01,2013-08-22 15:59:00,
2013-08-22 12:00:00,84.2,73.0,30.15,NW,315,3.6,3.6,69,0.00,,,0.00,VWS V14.01,2013-08-22 16:00:00,
2013-08-22 12:01:00,84.2,73.8,30.15,West,270,3.1,3.1,71,0.00,,,0.00,VWS V14.01,2013-08-22 16:01:00,
2013-08-22 12:02:00,84.6,73.7,30.15,West,270,5.4,5.4,70,0.00,,SCT021,0.00,VWS V14.01,2013-08-22 16:02:00,
2013-08-22 12:03:00,84.6,73.7,30.15,West,270,5.4,5.4,70,0.00,,,0.00,VWS V14.01,2013-08-22 16:03:00,
2013-08-22 12:04:00,84.2,73.4,30.15,WSW,248,7.6,7.6,70,0.00,,,0.00,VWS V14.01,2013-08-22 16:04:00,
2013-08-22 12:05:00,84.2,73.0,30.15,SW,225,4.0,4.0,69,0.00,,,0.00,VWS V14.01,2013-08-22 16:05:00,
2013-08-22 12:06:00,84.2,73.4,30.15,West,270,2.7,2.7,70,0.00,,,0.00,VWS V14.01,2013-08-22 16:06:00,
2013-08-22 12:07:00,84.6,73.3,30.15,West,270,4.0,4.0,69,0.00,,SCT021,0.00,VWS V14.01,2013-08-22 16:07:00,
2013-08-22 12:08:00,84.6,73.3,30.15,West,270,4.0,4.0,69,0.00,,,0.00,VWS V14.01,2013-08-22 16:08:00,
2013-08-22 12:09:00,84.6,73.7,30.15,West,270,4.0,4.0,70,0.00,,,0.00,VWS V14.01,2013-08-22 16:09:00,
2013-08-22 12:10:00,84.6,73.7,30.15,North,0,3.1,3.1,70,0.00,,,0.00,VWS V14.01,2013-08-22 16:10:00,
2013-08-22 12:11:00,84.6,73.7,30.15,North,0,0.9,0.9,70,0.00,,,0.00,VWS V14.01,2013-08-22 16:11:00,
2013-08-22 12:12:00,84.6,72.9,30.15,NNW,338,2.7,2.7,68,0.00,,SCT021,0.00,VWS V14.01,2013-08-22 16:12:00,
2013-08-22 12:13:00,84.6,72.9,30.15,NNW,338,2.7,2.7,68,0.00,,,0.00,VWS V14.01,2013-08-22 16:13:00,
2013-08-22 12:14:00,84.8,73.1,30.15,NW,315,3.4,3.4,68,0.00,,,0.00,VWS V14.01,2013-08-22 16:14:00,
2013-08-22 12:15:00,85.0,74.9,30.15,West,270,4.3,4.3,72,0.00,,,0.00,VWS V14.01,2013-08-22 16:15:00,
2013-08-22 12:16:00,84.8,72.2,30.15,NNW,338,4.3,4.3,66,0.00,,,0.00,VWS V14.01,2013-08-22 16:16:00,
2013-08-22 12:17:00,85.0,73.2,30.15,WNW,292,0.9,0.9,68,0.00,,SCT021,0.00,VWS V14.01,2013-08-22 16:17:00,
2013-08-22 12:18:00,85.0,73.2,30.15,WNW,292,0.9,0.9,68,0.00,,,0.00,VWS V14.01,2013-08-22 16:18:00,
2013-08-22 12:19:00,85.0,73.2,30.15,West,270,3.6,3.6,68,0.00,,,0.00,VWS V14.01,2013-08-22 16:19:00,
2013-08-22 12:20:00,85.0,72.8,30.15,WSW,248,6.3,6.3,67,0.00,,,0.00,VWS V14.01,2013-08-22 16:20:00,
2013-08-22 12:21:00,85.0,73.2,30.15,NW,315,2.7,2.7,68,0.00,,,0.00,VWS V14.01,2013-08-22 16:21:00,
2013-08-22 12:22:00,85.0,73.7,30.15,WSW,248,0.9,0.9,69,0.00,,SCT021,0.00,VWS V14.01,2013-08-22 16:22:00,
2013-08-22 12:23:00,85.0,73.7,30.15,WSW,248,0.9,0.9,69,0.00,,,0.00,VWS V14.01,2013-08-22 16:23:00,
2013-08-22 12:24:00,85.1,73.8,30.15,WNW,292,0.0,0.0,69,0.00,,,0.00,VWS V14.01,2013-08-22 16:24:00,
2013-08-22 12:25:00,85.1,73.8,30.15,WNW,292,1.3,1.3,69,0.00,,,0.00,VWS V14.01,2013-08-22 16:25:00,
2013-08-22 12:26:00,85.0,72.3,30.15,West,270,4.3,4.3,66,0.00,,,0.00,VWS V14.01,2013-08-22 16:26:00,
2013-08-22 12:27:00,85.0,72.3,30.15,North,0,3.1,3.1,66,0.00,,SCT021,0.00,VWS V14.01,2013-08-22 16:27:00,
2013-08-22 12:28:00,85.0,72.3,30.15,North,0,3.1,3.1,66,0.00,,,0.00,VWS V14.01,2013-08-22 16:28:00,
2013-08-22 12:29:00,85.0,71.9,30.15,NNE,22,5.4,5.4,65,0.00,,,0.00,VWS V14.01,2013-08-22 16:29:00,
2013-08-22 12:30:00,84.8,70.8,30.15,NW,315,2.7,2.7,63,0.00,,,0.00,VWS V14.01,2013-08-22 16:30:00,
2013-08-22 12:31:00,85.0,73.2,30.15,SSW,202,3.4,3.4,68,0.00,,,0.00,VWS V14.01,2013-08-22 16:31:00,
2013-08-22 12:32:00,84.8,71.3,30.15,North,0,2.2,2.2,64,0.00,,SCT021,0.00,VWS V14.01,2013-08-22 16:32:00,
2013-08-22 12:33:00,84.8,71.3,30.15,North,0,2.2,2.2,64,0.00,,,0.00,VWS V14.01,2013-08-22 16:33:00,
2013-08-22 12:34:00,85.0,72.8,30.15,NNW,338,5.4,5.4,67,0.00,,,0.00,VWS V14.01,2013-08-22 16:34:00,
2013-08-22 12:35:00,85.0,72.8,30.15,NNW,338,1.3,1.3,67,0.00,,,0.00,VWS V14.01,2013-08-22 16:35:00,
2013-08-22 12:36:00,84.8,71.7,30.15,WSW,248,3.1,3.1,65,0.00,,,0.00,VWS V14.01,2013-08-22 16:36:00,
2013-08-22 12:37:00,85.1,73.8,30.15,WSW,248,6.0,6.0,69,0.00,,FEW021,0.00,VWS V14.01,2013-08-22 16:37:00,
2013-08-22 12:38:00,85.1,73.8,30.15,WSW,248,6.0,6.0,69,0.00,,,0.00,VWS V14.01,2013-08-22 16:38:00,
2013-08-22 12:39:00,85.3,73.1,30.15,WNW,292,3.6,3.6,67,0.00,,,0.00,VWS V14.01,2013-08-22 16:39:00,
2013-08-22 12:40:00,85.3,73.6,30.15,SW,225,2.5,2.5,68,0.00,,,0.00,VWS V14.01,2013-08-22 16:40:00,
2013-08-22 12:41:00,85.3,73.6,30.15,WSW,248,5.4,5.4,68,0.00,,,0.00,VWS V14.01,2013-08-22 16:41:00,
2013-08-22 12:42:00,85.3,72.7,30.15,West,270,9.4,9.4,66,0.00,,FEW021,0.00,VWS V14.01,2013-08-22 16:42:00,
2013-08-22 12:43:00,85.3,72.7,30.15,West,270,9.4,9.4,66,0.00,,,0.00,VWS V14.01,2013-08-22 16:43:00,
2013-08-22 12:44:00,85.3,74.0,30.15,West,270,6.0,6.0,69,0.00,,,0.00,VWS V14.01,2013-08-22 16:44:00,
2013-08-22 12:45:00,85.5,73.3,30.15,SW,225,6.3,6.3,67,0.00,,,0.00,VWS V14.01,2013-08-22 16:45:00,
2013-08-22 12:46:00,85.3,73.1,30.15,WNW,292,6.0,6.0,67,0.00,,,0.00,VWS V14.01,2013-08-22 16:46:00,
2013-08-22 12:47:00,85.3,73.1,30.15,NNW,338,5.8,5.8,67,0.00,,FEW021,0.00,VWS V14.01,2013-08-22 16:47:00,
2013-08-22 12:48:00,85.3,73.1,30.15,NNW,338,5.8,5.8,67,0.00,,,0.00,VWS V14.01,2013-08-22 16:48:00,
2013-08-22 12:49:00,85.3,73.1,30.15,WNW,292,5.6,5.6,67,0.00,,,0.00,VWS V14.01,2013-08-22 16:49:00,
2013-08-22 12:50:00,85.5,73.7,30.15,NNW,338,2.5,2.5,68,0.00,,,0.00,VWS V14.01,2013-08-22 16:50:00,
2013-08-22 12:51:00,85.5,73.3,30.15,NNW,338,2.5,2.5,67,0.00,,,0.00,VWS V14.01,2013-08-22 16:51:00,
2013-08-22 12:52:00,85.5,72.8,30.15,NNE,22,3.1,3.1,66,0.00,,FEW021,0.00,VWS V14.01,2013-08-22 16:52:00,
2013-08-22 12:53:00,85.5,72.8,30.15,NNE,22,3.1,3.1,66,0.00,,,0.00,VWS V14.01,2013-08-22 16:53:00,
2013-08-22 12:54:00,85.5,72.8,30.15,WSW,248,2.7,2.7,66,0.00,,,0.00,VWS V14.01,2013-08-22 16:54:00,
2013-08-22 12:55:00,85.7,73.0,30.15,WSW,248,2.5,2.5,66,0.00,,,0.00,VWS V14.01,2013-08-22 16:55:00,
2013-08-22 12:56:00,85.7,73.9,30.15,WNW,292,4.7,4.7,68,0.00,,,0.00,VWS V14.01,2013-08-22 16:56:00,
2013-08-22 12:57:00,85.7,73.0,30.15,WNW,292,3.4,3.4,66,0.00,,FEW021,0.00,VWS V14.01,2013-08-22 16:57:00,
2013-08-22 12:58:00,85.7,73.0,30.15,WNW,292,3.4,3.4,66,0.00,,,0.00,VWS V14.01,2013-08-22 16:58:00,
2013-08-22 12:59:00,85.9,73.6,30.15,NNW,338,3.1,3.1,67,0.00,,,0.00,VWS V14.01,2013-08-22 16:59:00,
2013-08-22 13:00:00,85.9,71.8,30.15,SSW,202,3.4,3.4,63,0.00,,,0.00,VWS V14.01,2013-08-22 17:00:00,
2013-08-22 13:01:00,86.0,73.4,30.15,WNW,292,0.9,0.9,66,0.00,,,0.00,VWS V14.01,2013-08-22 17:01:00,
2013-08-22 13:02:00,86.0,71.5,30.15,WNW,292,5.6,5.6,62,0.00,,FEW021,0.00,VWS V14.01,2013-08-22 17:02:00,
2013-08-22 13:03:00,86.0,71.5,30.15,WNW,292,5.6,5.6,62,0.00,,,0.00,VWS V14.01,2013-08-22 17:03:00,
2013-08-22 13:04:00,86.2,74.0,30.15,West,270,3.8,3.8,67,0.00,,,0.00,VWS V14.01,2013-08-22 17:04:00,
2013-08-22 13:05:00,86.2,73.5,30.15,West,270,3.8,3.8,66,0.00,,,0.00,VWS V14.01,2013-08-22 17:05:00,
2013-08-22 13:06:00,86.0,72.0,30.15,WSW,248,3.8,3.8,63,0.00,,,0.00,VWS V14.01,2013-08-22 17:06:00,
2013-08-22 13:07:00,86.0,72.4,30.15,WSW,248,4.0,4.0,64,0.00,,FEW021,0.00,VWS V14.01,2013-08-22 17:07:00,
2013-08-22 13:08:00,86.0,72.4,30.15,WSW,248,4.0,4.0,64,0.00,,,0.00,VWS V14.01,2013-08-22 17:08:00,
2013-08-22 13:09:00,86.0,72.4,30.15,SW,225,0.9,0.9,64,0.00,,,0.00,VWS V14.01,2013-08-22 17:09:00,
2013-08-22 13:10:00,86.0,73.8,30.15,WSW,248,2.7,2.7,67,0.00,,,0.00,VWS V14.01,2013-08-22 17:10:00,
2013-08-22 13:11:00,86.0,73.8,30.15,WNW,292,3.6,3.6,67,0.00,,,0.00,VWS V14.01,2013-08-22 17:11:00,
2013-08-22 13:12:00,86.2,74.4,30.15,WSW,248,4.3,4.3,68,0.00,,FEW021,0.00,VWS V14.01,2013-08-22 17:12:00,
2013-08-22 13:13:00,86.2,74.4,30.15,WSW,248,4.3,4.3,68,0.00,,,0.00,VWS V14.01,2013-08-22 17:13:00,
2013-08-22 13:14:00,86.2,71.7,30.15,West,270,4.3,4.3,62,0.00,,,0.00,VWS V14.01,2013-08-22 17:14:00,
2013-08-22 13:15:00,86.4,74.6,30.15,WSW,248,3.6,3.6,68,0.00,,,0.00,VWS V14.01,2013-08-22 17:15:00,
2013-08-22 13:16:00,86.4,74.6,30.15,West,270,3.1,3.1,68,0.00,,,0.00,VWS V14.01,2013-08-22 17:16:00,
2013-08-22 13:17:00,86.4,73.7,30.15,NW,315,2.0,2.0,66,0.00,,FEW021,0.00,VWS V14.01,2013-08-22 17:17:00,
2013-08-22 13:18:00,86.4,73.7,30.15,NW,315,2.0,2.0,66,0.00,,,0.00,VWS V14.01,2013-08-22 17:18:00,
2013-08-22 13:19:00,86.2,71.2,30.15,NNW,338,2.5,2.5,61,0.00,,,0.00,VWS V14.01,2013-08-22 17:19:00,
2013-08-22 13:20:00,86.2,71.2,30.15,WNW,292,2.5,2.5,61,0.00,,,0.00,VWS V14.01,2013-08-22 17:20:00,
2013-08-22 13:21:00,86.2,72.6,30.15,North,0,1.3,1.3,64,0.00,,,0.00,VWS V14.01,2013-08-22 17:21:00,
2013-08-22 13:22:00,86.2,72.2,30.15,West,270,3.1,3.1,63,0.00,,FEW021,0.00,VWS V14.01,2013-08-22 17:22:00,
2013-08-22 13:23:00,86.2,72.2,30.15,West,270,3.1,3.1,63,0.00,,,0.00,VWS V14.01,2013-08-22 17:23:00,
2013-08-22 13:24:00,86.2,73.1,30.15,WNW,292,3.6,3.6,65,0.00,,,0.00,VWS V14.01,2013-08-22 17:24:00,
2013-08-22 13:25:00,86.2,72.6,30.12,SSW,202,2.7,2.7,64,0.00,,,0.00,VWS V14.01,2013-08-22 17:25:00,
2013-08-22 13:26:00,86.2,72.6,30.12,WSW,248,3.1,3.1,64,0.00,,,0.00,VWS V14.01,2013-08-22 17:26:00,
2013-08-22 13:27:00,86.2,74.0,30.12,WSW,248,7.6,7.6,67,0.00,,FEW021,0.00,VWS V14.01,2013-08-22 17:27:00,
2013-08-22 13:28:00,86.2,74.0,30.12,WSW,248,7.6,7.6,67,0.00,,,0.00,VWS V14.01,2013-08-22 17:28:00,
2013-08-22 13:29:00,86.2,74.0,30.12,SSE,158,3.4,3.4,67,0.00,,,0.00,VWS V14.01,2013-08-22 17:29:00,
2013-08-22 13:30:00,86.4,73.2,30.12,North,0,2.0,2.0,65,0.00,,,0.00,VWS V14.01,2013-08-22 17:30:00,
2013-08-22 13:31:00,86.6,72.0,30.12,West,270,4.9,4.9,62,0.00,,,0.00,VWS V14.01,2013-08-22 17:31:00,
2013-08-22 13:32:00,86.8,73.1,30.12,WSW,248,3.6,3.6,64,0.00,,FEW021,0.00,VWS V14.01,2013-08-22 17:32:00,
2013-08-22 13:33:00,86.8,73.1,30.12,WSW,248,3.6,3.6,64,0.00,,,0.00,VWS V14.01,2013-08-22 17:33:00,
2013-08-22 13:34:00,86.8,71.7,30.12,West,270,2.7,2.7,61,0.00,,,0.00,VWS V14.01,2013-08-22 17:34:00,
2013-08-22 13:35:00,86.8,72.7,30.12,NW,315,2.5,2.5,63,0.00,,,0.00,VWS V14.01,2013-08-22 17:35:00,
2013-08-22 13:36:00,86.8,71.7,30.12,NNW,338,2.9,2.9,61,0.00,,,0.00,VWS V14.01,2013-08-22 17:36:00,
2013-08-22 13:37:00,86.9,72.4,30.12,NNW,338,2.9,2.9,62,0.00,,FEW029,0.00,VWS V14.01,2013-08-22 17:37:00,
2013-08-22 13:38:00,86.9,72.4,30.12,NNW,338,2.9,2.9,62,0.00,,,0.00,VWS V14.01,2013-08-22 17:38:00,
2013-08-22 13:39:00,87.1,72.5,30.12,NNW,338,3.4,3.4,62,0.00,,,0.00,VWS V14.01,2013-08-22 17:39:00,
2013-08-22 13:40:00,87.1,71.1,30.12,West,270,4.3,4.3,59,0.00,,CLR,0.00,VWS V14.01,2013-08-22 17:40:00,
2013-08-22 13:41:00,87.1,72.1,30.12,West,270,1.6,1.6,61,0.00,,,0.00,VWS V14.01,2013-08-22 17:41:00,
2013-08-22 13:42:00,87.1,73.0,30.12,West,270,0.0,0.0,63,0.00,,FEW029,0.00,VWS V14.01,2013-08-22 17:42:00,
2013-08-22 13:43:00,87.1,73.0,30.12,West,270,0.0,0.0,63,0.00,,,0.00,VWS V14.01,2013-08-22 17:43:00,
2013-08-22 13:44:00,87.3,73.6,30.12,WSW,248,2.5,2.5,64,0.00,,,0.00,VWS V14.01,2013-08-22 17:44:00,
2013-08-22 13:45:00,87.3,72.2,30.12,SW,225,3.4,3.4,61,0.00,,,0.00,VWS V14.01,2013-08-22 17:45:00,
2013-08-22 13:46:00,87.1,72.1,30.12,West,270,6.5,6.5,61,0.00,,,0.00,VWS V14.01,2013-08-22 17:46:00,
2013-08-22 13:47:00,86.6,71.1,30.12,WSW,248,4.9,4.9,60,0.00,,FEW029,0.00,VWS V14.01,2013-08-22 17:47:00,
2013-08-22 13:48:00,86.6,71.1,30.12,WSW,248,4.9,4.9,60,0.00,,,0.00,VWS V14.01,2013-08-22 17:48:00,
2013-08-22 13:49:00,86.6,70.1,30.12,West,270,6.5,6.5,58,0.00,,,0.00,VWS V14.01,2013-08-22 17:49:00,
2013-08-22 13:50:00,86.8,72.2,30.12,WNW,292,1.6,1.6,62,0.00,,,0.00,VWS V14.01,2013-08-22 17:50:00,
2013-08-22 13:51:00,86.8,71.2,30.12,NW,315,3.8,3.8,60,0.00,,,0.00,VWS V14.01,2013-08-22 17:51:00,
2013-08-22 13:52:00,86.9,70.9,30.12,North,0,2.5,2.5,59,0.00,,FEW029,0.00,VWS V14.01,2013-08-22 17:52:00,
2013-08-22 13:53:00,86.9,70.9,30.12,North,0,2.5,2.5,59,0.00,,,0.00,VWS V14.01,2013-08-22 17:53:00,
2013-08-22 13:54:00,86.9,71.9,30.12,SSE,158,1.3,1.3,61,0.00,,,0.00,VWS V14.01,2013-08-22 17:54:00,
2013-08-22 13:55:00,87.1,72.5,30.12,SE,135,1.6,1.6,62,0.00,,,0.00,VWS V14.01,2013-08-22 17:55:00,
2013-08-22 13:56:00,87.1,72.5,30.12,NW,315,1.3,1.3,62,0.00,,,0.00,VWS V14.01,2013-08-22 17:56:00,
2013-08-22 13:57:00,87.5,73.3,30.12,WSW,248,0.9,0.9,63,0.00,,FEW029,0.00,VWS V14.01,2013-08-22 17:57:00,
2013-08-22 13:58:00,87.5,73.3,30.12,WSW,248,0.9,0.9,63,0.00,,,0.00,VWS V14.01,2013-08-22 17:58:00,
2013-08-22 13:59:00,87.7,73.0,30.12,West,270,2.9,2.9,62,0.00,,,0.00,VWS V14.01,2013-08-22 17:59:00,
2013-08-22 14:00:00,87.7,73.0,30.12,West,270,2.7,2.7,62,0.00,,,0.00,VWS V14.01,2013-08-22 18:00:00,
2013-08-22 14:01:00,87.8,72.2,30.12,West,270,2.9,2.9,60,0.00,,,0.00,VWS V14.01,2013-08-22 18:01:00,
2013-08-22 14:02:00,87.7,73.0,30.12,NNW,338,1.1,1.1,62,0.00,,FEW029,0.00,VWS V14.01,2013-08-22 18:02:00,
2013-08-22 14:03:00,87.7,73.0,30.12,NNW,338,1.1,1.1,62,0.00,,,0.00,VWS V14.01,2013-08-22 18:03:00,
2013-08-22 14:04:00,87.7,73.0,30.12,West,270,2.9,2.9,62,0.00,,,0.00,VWS V14.01,2013-08-22 18:04:00,
2013-08-22 14:05:00,87.7,73.0,30.12,West,270,4.0,4.0,62,0.00,,,0.00,VWS V14.01,2013-08-22 18:05:00,
2013-08-22 14:06:00,87.7,73.0,30.12,NNW,338,3.4,3.4,62,0.00,,,0.00,VWS V14.01,2013-08-22 18:06:00,
2013-08-22 14:07:00,87.3,73.2,30.12,NE,45,2.0,2.0,63,0.00,,FEW029,0.00,VWS V14.01,2013-08-22 18:07:00,
2013-08-22 14:08:00,87.3,73.2,30.12,NE,45,2.0,2.0,63,0.00,,,0.00,VWS V14.01,2013-08-22 18:08:00,
2013-08-22 14:09:00,87.3,73.2,30.12,WSW,248,2.2,2.2,63,0.00,,,0.00,VWS V14.01,2013-08-22 18:09:00,
2013-08-22 14:10:00,87.1,72.5,30.12,NNW,338,3.8,3.8,62,0.00,,,0.00,VWS V14.01,2013-08-22 18:10:00,
2013-08-22 14:11:00,87.1,72.5,30.12,West,270,1.1,1.1,62,0.00,,,0.00,VWS V14.01,2013-08-22 18:11:00,
2013-08-22 14:12:00,87.1,72.1,30.12,West,270,4.0,4.0,61,0.00,,FEW029,0.00,VWS V14.01,2013-08-22 18:12:00,
2013-08-22 14:13:00,87.1,72.1,30.12,West,270,4.0,4.0,61,0.00,,,0.00,VWS V14.01,2013-08-22 18:13:00,
2013-08-22 14:14:00,87.1,72.1,30.12,West,270,2.7,2.7,61,0.00,,,0.00,VWS V14.01,2013-08-22 18:14:00,
2013-08-22 14:15:00,86.9,71.9,30.12,NNE,22,3.1,3.1,61,0.00,,,0.00,VWS V14.01,2013-08-22 18:15:00,
2013-08-22 14:16:00,87.1,73.0,30.12,NW,315,4.3,4.3,63,0.00,,,0.00,VWS V14.01,2013-08-22 18:16:00,
2013-08-22 14:17:00,87.1,71.1,30.12,North,0,4.7,4.7,59,0.00,,FEW029,0.00,VWS V14.01,2013-08-22 18:17:00,
2013-08-22 14:18:00,87.1,71.1,30.12,NW,315,1.3,1.3,59,0.00,,,0.00,VWS V14.01,2013-08-22 18:18:00,
2013-08-22 14:19:00,87.3,73.6,30.12,WNW,292,1.3,1.3,64,0.00,,,0.00,VWS V14.01,2013-08-22 18:19:00,
2013-08-22 14:20:00,87.3,73.2,30.12,West,270,2.7,2.7,63,0.00,,,0.00,VWS V14.01,2013-08-22 18:20:00,
2013-08-22 14:21:00,87.5,74.7,30.12,SSW,202,4.7,4.7,66,0.00,,,0.00,VWS V14.01,2013-08-22 18:21:00,
2013-08-22 14:22:00,87.3,72.2,30.12,West,270,2.7,2.7,61,0.00,,FEW029,0.00,VWS V14.01,2013-08-22 18:22:00,
2013-08-22 14:23:00,87.5,70.9,30.12,SW,225,6.3,6.3,58,0.00,,,0.00,VWS V14.01,2013-08-22 18:23:00,
2013-08-22 14:24:00,87.3,71.2,30.12,WSW,248,5.4,5.4,59,0.00,,,0.00,VWS V14.01,2013-08-22 18:24:00,
2013-08-22 14:25:00,87.5,73.3,30.12,WNW,292,1.6,1.6,63,0.00,,,0.00,VWS V14.01,2013-08-22 18:25:00,
2013-08-22 14:26:00,87.5,72.4,30.12,West,270,4.3,4.3,61,0.00,,,0.00,VWS V14.01,2013-08-22 18:26:00,
2013-08-22 14:27:00,87.3,71.2,30.12,SW,225,4.3,4.3,59,0.00,,FEW029,0.00,VWS V14.01,2013-08-22 18:27:00,
2013-08-22 14:28:00,87.3,71.2,30.12,WSW,248,3.4,3.4,59,0.00,,,0.00,VWS V14.01,2013-08-22 18:28:00,
2013-08-22 14:29:00,87.3,70.7,30.12,North,0,0.0,0.0,58,0.00,,,0.00,VWS V14.01,2013-08-22 18:29:00,
2013-08-22 14:30:00,87.5,70.9,30.12,South,180,2.7,2.7,58,0.00,,,0.00,VWS V14.01,2013-08-22 18:30:00,
2013-08-22 14:31:00,87.5,70.9,30.12,NNW,338,3.8,3.8,58,0.00,,,0.00,VWS V14.01,2013-08-22 18:31:00,
2013-08-22 14:32:00,87.7,72.1,30.12,West,270,6.3,6.3,60,0.00,,FEW029,0.00,VWS V14.01,2013-08-22 18:32:00,
2013-08-22 14:33:00,87.7,72.1,30.12,NW,315,1.3,1.3,60,0.00,,,0.00,VWS V14.01,2013-08-22 18:33:00,
2013-08-22 14:34:00,87.7,71.6,30.12,WSW,248,3.8,3.8,59,0.00,,,0.00,VWS V14.01,2013-08-22 18:34:00,
2013-08-22 14:35:00,87.7,71.6,30.12,West,270,2.7,2.7,59,0.00,,,0.00,VWS V14.01,2013-08-22 18:35:00,
2013-08-22 14:36:00,87.7,72.1,30.12,NNE,22,1.1,1.1,60,0.00,,,0.00,VWS V14.01,2013-08-22 18:36:00,
2013-08-22 14:37:00,87.7,72.1,30.12,West,270,4.3,4.3,60,0.00,,SCT040,0.00,VWS V14.01,2013-08-22 18:37:00,
2013-08-22 14:38:00,87.7,71.6,30.12,West,270,3.4,3.4,59,0.00,,,0.00,VWS V14.01,2013-08-22 18:38:00,
2013-08-22 14:39:00,87.7,72.1,30.12,West,270,3.1,3.1,60,0.00,,,0.00,VWS V14.01,2013-08-22 18:39:00,
2013-08-22 14:40:00,87.7,72.1,30.09,SSW,202,3.1,3.1,60,0.00,,,0.00,VWS V14.01,2013-08-22 18:40:00,
2013-08-22 14:41:00,87.8,72.7,30.09,SSW,202,2.7,2.7,61,0.00,,,0.00,VWS V14.01,2013-08-22 18:41:00,
2013-08-22 14:42:00,87.5,70.9,30.09,WSW,248,5.4,5.4,58,0.00,,SCT040,0.00,VWS V14.01,2013-08-22 18:42:00,
2013-08-22 14:43:00,87.7,71.1,30.09,SW,225,6.0,6.0,58,0.00,,,0.00,VWS V14.01,2013-08-22 18:43:00,
2013-08-22 14:44:00,87.5,70.9,30.09,WSW,248,5.6,5.6,58,0.00,,,0.00,VWS V14.01,2013-08-22 18:44:00,
2013-08-22 14:45:00,87.5,70.9,30.09,WSW,248,3.1,3.1,58,0.00,,,0.00,VWS V14.01,2013-08-22 18:45:00,
2013-08-22 14:46:00,87.5,70.9,30.09,West,270,2.5,2.5,58,0.00,,,0.00,VWS V14.01,2013-08-22 18:46:00,
2013-08-22 14:47:00,87.7,72.1,30.09,West,270,3.6,3.6,60,0.00,,SCT040,0.00,VWS V14.01,2013-08-22 18:47:00,
2013-08-22 14:48:00,87.7,72.1,30.09,West,270,3.1,3.1,60,0.00,,,0.00,VWS V14.01,2013-08-22 18:48:00,
2013-08-22 14:49:00,87.7,72.1,30.09,WSW,248,5.4,5.4,60,0.00,,,0.00,VWS V14.01,2013-08-22 18:49:00,
2013-08-22 14:50:00,87.3,70.2,30.09,WSW,248,5.8,5.8,57,0.00,,,0.00,VWS V14.01,2013-08-22 18:50:00,
2013-08-22 14:51:00,87.3,71.2,30.09,West,270,5.8,5.8,59,0.00,,,0.00,VWS V14.01,2013-08-22 18:51:00,
2013-08-22 14:52:00,87.3,73.2,30.09,West,270,3.1,3.1,63,0.00,,,0.00,VWS V14.01,2013-08-22 18:52:00,
2013-08-22 14:53:00,87.1,71.1,30.09,West,270,5.4,5.4,59,0.00,,SCT040,0.00,VWS V14.01,2013-08-22 18:53:00,
2013-08-22 14:54:00,86.9,70.9,30.09,West,270,4.9,4.9,59,0.00,,,0.00,VWS V14.01,2013-08-22 18:54:00,
2013-08-22 14:55:00,86.9,70.9,30.09,WSW,248,1.6,1.6,59,0.00,,,0.00,VWS V14.01,2013-08-22 18:55:00,
2013-08-22 14:56:00,86.8,72.2,30.09,West,270,2.7,2.7,62,0.00,,,0.00,VWS V14.01,2013-08-22 18:56:00,
2013-08-22 14:57:00,86.8,72.2,30.09,West,270,1.6,1.6,62,0.00,,,0.00,VWS V14.01,2013-08-22 18:57:00,
2013-08-22 14:58:00,86.8,72.2,30.09,NW,315,1.1,1.1,62,0.00,,SCT040,0.00,VWS V14.01,2013-08-22 18:58:00,
2013-08-22 14:59:00,86.8,72.2,30.09,SW,225,2.0,2.0,62,0.00,,,0.00,VWS V14.01,2013-08-22 18:59:00,
2013-08-22 15:00:00,86.9,73.3,30.09,West,270,4.9,4.9,64,0.00,,,0.00,VWS V14.01,2013-08-22 19:00:00,
2013-08-22 15:01:00,87.1,71.6,30.09,West,270,4.3,4.3,60,0.00,,,0.00,VWS V14.01,2013-08-22 19:01:00,
2013-08-22 15:02:00,87.3,72.2,30.09,WNW,292,4.0,4.0,61,0.00,,,0.00,VWS V14.01,2013-08-22 19:02:00,
2013-08-22 15:03:00,87.3,71.2,30.09,WSW,248,3.1,3.1,59,0.00,,SCT040,0.00,VWS V14.01,2013-08-22 19:03:00,
2013-08-22 15:04:00,87.3,71.2,30.09,SW,225,4.9,4.9,59,0.00,,,0.00,VWS V14.01,2013-08-22 19:04:00,
2013-08-22 15:05:00,87.5,72.4,30.09,West,270,5.4,5.4,61,0.00,,,0.00,VWS V14.01,2013-08-22 19:05:00,
2013-08-22 15:06:00,87.5,71.9,30.09,West,270,4.3,4.3,60,0.00,,,0.00,VWS V14.01,2013-08-22 19:06:00,
2013-08-22 15:07:00,87.5,71.9,30.09,WSW,248,6.3,6.3,60,0.00,,,0.00,VWS V14.01,2013-08-22 19:07:00,
2013-08-22 15:08:00,87.5,70.4,30.09,WSW,248,6.0,6.0,57,0.00,,SCT040,0.00,VWS V14.01,2013-08-22 19:08:00,
2013-08-22 15:09:00,87.5,70.4,30.09,WSW,248,6.0,6.0,57,0.00,,,0.00,VWS V14.01,2013-08-22 19:09:00,
2013-08-22 15:10:00,87.5,70.4,30.09,West,270,4.0,4.0,57,0.00,,,0.00,VWS V14.01,2013-08-22 19:10:00,
2013-08-22 15:11:00,87.7,72.1,30.09,NNW,338,1.3,1.3,60,0.00,,,0.00,VWS V14.01,2013-08-22 19:11:00,
2013-08-22 15:12:00,87.7,71.1,30.09,NW,315,2.7,2.7,58,0.00,,,0.00,VWS V14.01,2013-08-22 19:12:00,
2013-08-22 15:13:00,87.8,71.7,30.09,WSW,248,2.0,2.0,59,0.00,,SCT040,0.00,VWS V14.01,2013-08-22 19:13:00,
2013-08-22 15:14:00,87.8,71.7,30.09,West,270,5.4,5.4,59,0.00,,,0.00,VWS V14.01,2013-08-22 19:14:00,
2013-08-22 15:15:00,87.8,71.2,30.09,NNW,338,6.5,6.5,58,0.00,,,0.00,VWS V14.01,2013-08-22 19:15:00,
2013-08-22 15:16:00,87.8,71.2,30.09,WNW,292,1.3,1.3,58,0.00,,,0.00,VWS V14.01,2013-08-22 19:16:00,
2013-08-22 15:17:00,87.8,72.2,30.09,NNW,338,2.7,2.7,60,0.00,,,0.00,VWS V14.01,2013-08-22 19:17:00,
2013-08-22 15:18:00,87.8,72.2,30.09,NW,315,1.1,1.1,60,0.00,,SCT040,0.00,VWS V14.01,2013-08-22 19:18:00,
2013-08-22 15:19:00,87.8,72.2,30.09,NW,315,1.1,1.1,60,0.00,,,0.00,VWS V14.01,2013-08-22 19:19:00,
2013-08-22 15:20:00,87.8,71.7,30.09,West,270,0.0,0.0,59,0.00,,,0.00,VWS V14.01,2013-08-22 19:20:00,
2013-08-22 15:21:00,87.8,72.2,30.09,NNW,338,0.0,0.0,60,0.00,,,0.00,VWS V14.01,2013-08-22 19:21:00,
2013-08-22 15:22:00,87.8,70.7,30.09,NNW,338,0.0,0.0,57,0.00,,,0.00,VWS V14.01,2013-08-22 19:22:00,
2013-08-22 15:23:00,88.0,71.9,30.09,North,0,0.9,0.9,59,0.00,,SCT040,0.00,VWS V14.01,2013-08-22 19:23:00,
2013-08-22 15:24:00,88.0,71.9,30.09,North,0,0.9,0.9,59,0.00,,,0.00,VWS V14.01,2013-08-22 19:24:00,
2013-08-22 15:25:00,88.2,72.1,30.09,North,0,2.2,2.2,59,0.00,,,0.00,VWS V14.01,2013-08-22 19:25:00,
2013-08-22 15:26:00,88.2,72.1,30.09,NNE,22,2.7,2.7,59,0.00,,,0.00,VWS V14.01,2013-08-22 19:26:00,
2013-08-22 15:27:00,88.4,73.2,30.09,NW,315,0.0,0.0,61,0.00,,,0.00,VWS V14.01,2013-08-22 19:27:00,
2013-08-22 15:28:00,88.4,71.7,30.09,North,0,1.1,1.1,58,0.00,,SCT040,0.00,VWS V14.01,2013-08-22 19:28:00,
2013-08-22 15:29:00,88.4,71.7,30.09,North,0,1.1,1.1,58,0.00,,,0.00,VWS V14.01,2013-08-22 19:29:00,
2013-08-22 15:30:00,88.6,72.4,30.09,North,0,0.0,0.0,59,0.00,,,0.00,VWS V14.01,2013-08-22 19:30:00,
2013-08-22 15:31:00,88.6,71.4,30.09,North,0,2.0,2.0,57,0.00,,,0.00,VWS V14.01,2013-08-22 19:31:00,
2013-08-22 15:32:00,88.7,71.6,30.09,West,270,4.3,4.3,57,0.00,,,0.00,VWS V14.01,2013-08-22 19:32:00,
2013-08-22 15:33:00,88.9,72.2,30.09,West,270,0.0,0.0,58,0.00,,SCT040,0.00,VWS V14.01,2013-08-22 19:33:00,
2013-08-22 15:34:00,88.9,72.2,30.09,West,270,0.0,0.0,58,0.00,,,0.00,VWS V14.01,2013-08-22 19:34:00,
2013-08-22 15:35:00,88.9,72.2,30.09,WSW,248,4.7,4.7,58,0.00,,,0.00,VWS V14.01,2013-08-22 19:35:00,
2013-08-22 15:36:00,88.6,71.4,30.09,NW,315,2.9,2.9,57,0.00,,,0.00,VWS V14.01,2013-08-22 19:36:00,
2013-08-22 15:37:00,88.7,71.6,30.09,WSW,248,1.3,1.3,57,0.00,,,0.00,VWS V14.01,2013-08-22 19:37:00,
2013-08-22 15:38:00,88.6,71.9,30.09,West,270,6.3,6.3,58,0.00,,SCT042,0.00,VWS V14.01,2013-08-22 19:38:00,
2013-08-22 15:39:00,88.6,71.9,30.09,West,270,6.3,6.3,58,0.00,,,0.00,VWS V14.01,2013-08-22 19:39:00,
2013-08-22 15:40:00,88.4,71.2,30.09,West,270,4.0,4.0,57,0.00,,,0.00,VWS V14.01,2013-08-22 19:40:00,
2013-08-22 15:41:00,88.4,71.2,30.09,North,0,4.3,4.3,57,0.00,,,0.00,VWS V14.01,2013-08-22 19:41:00,
2013-08-22 15:42:00,88.4,71.7,30.09,NW,315,2.9,2.9,58,0.00,,,0.00,VWS V14.01,2013-08-22 19:42:00,
2013-08-22 15:43:00,88.4,70.7,30.09,NNW,338,2.5,2.5,56,0.00,,SCT042,0.00,VWS V14.01,2013-08-22 19:43:00,
2013-08-22 15:44:00,88.4,70.7,30.09,NNW,338,2.5,2.5,56,0.00,,,0.00,VWS V14.01,2013-08-22 19:44:00,
2013-08-22 15:45:00,88.4,70.7,30.09,North,0,2.5,2.5,56,0.00,,,0.00,VWS V14.01,2013-08-22 19:45:00,
2013-08-22 15:46:00,88.4,70.7,30.09,NNW,338,2.5,2.5,56,0.00,,,0.00,VWS V14.01,2013-08-22 19:46:00,
2013-08-22 15:47:00,88.4,71.2,30.09,West,270,2.7,2.7,57,0.00,,,0.00,VWS V14.01,2013-08-22 19:47:00,
2013-08-22 15:48:00,88.4,71.7,30.09,WNW,292,3.1,3.1,58,0.00,,SCT042,0.00,VWS V14.01,2013-08-22 19:48:00,
2013-08-22 15:49:00,88.4,71.7,30.09,WNW,292,3.1,3.1,58,0.00,,,0.00,VWS V14.01,2013-08-22 19:49:00,
2013-08-22 15:50:00,88.6,71.9,30.09,West,270,3.4,3.4,58,0.00,,,0.00,VWS V14.01,2013-08-22 19:50:00,
2013-08-22 15:51:00,88.6,72.9,30.09,WSW,248,0.0,0.0,60,0.00,,,0.00,VWS V14.01,2013-08-22 19:51:00,
2013-08-22 15:52:00,88.6,72.4,30.09,SW,225,0.0,0.0,59,0.00,,,0.00,VWS V14.01,2013-08-22 19:52:00,
2013-08-22 15:53:00,88.6,71.9,30.09,NW,315,2.5,2.5,58,0.00,,SCT042,0.00,VWS V14.01,2013-08-22 19:53:00,
2013-08-22 15:54:00,88.6,71.9,30.09,NW,315,2.5,2.5,58,0.00,,,0.00,VWS V14.01,2013-08-22 19:54:00,
2013-08-22 15:55:00,88.4,71.2,30.03,NW,315,2.0,2.0,57,0.00,,,0.00,VWS V14.01,2013-08-22 19:55:00,
2013-08-22 15:56:00,88.2,71.1,30.03,NNW,338,3.1,3.1,57,0.00,,,0.00,VWS V14.01,2013-08-22 19:56:00,
2013-08-22 15:57:00,88.2,71.1,30.03,North,0,0.0,0.0,57,0.00,,,0.00,VWS V14.01,2013-08-22 19:57:00,
2013-08-22 15:58:00,88.2,72.6,30.03,NNW,338,1.6,1.6,60,0.00,,SCT042,0.00,VWS V14.01,2013-08-22 19:58:00,
2013-08-22 15:59:00,88.2,72.6,30.03,NNW,338,1.6,1.6,60,0.00,,,0.00,VWS V14.01,2013-08-22 19:59:00,
2013-08-22 16:00:00,88.4,72.7,30.03,WSW,248,0.0,0.0,60,0.00,,,0.00,VWS V14.01,2013-08-22 20:00:00,
2013-08-22 16:01:00,88.4,72.2,30.03,WNW,292,0.0,0.0,59,0.00,,,0.00,VWS V14.01,2013-08-22 20:01:00,
2013-08-22 16:02:00,88.6,72.4,30.03,North,0,1.3,1.3,59,0.00,,,0.00,VWS V14.01,2013-08-22 20:02:00,
2013-08-22 16:03:00,88.6,71.9,30.03,NNE,22,2.0,2.0,58,0.00,,SCT042,0.00,VWS V14.01,2013-08-22 20:03:00,
2013-08-22 16:04:00,88.6,71.9,30.03,NNE,22,2.0,2.0,58,0.00,,,0.00,VWS V14.01,2013-08-22 20:04:00,
2013-08-22 16:05:00,88.7,72.6,30.03,West,270,0.9,0.9,59,0.00,,,0.00,VWS V14.01,2013-08-22 20:05:00,
2013-08-22 16:06:00,88.7,72.6,30.03,West,270,1.1,1.1,59,0.00,,,0.00,VWS V14.01,2013-08-22 20:06:00,
2013-08-22 16:07:00,88.9,73.2,30.03,South,180,1.6,1.6,60,0.00,,,0.00,VWS V14.01,2013-08-22 20:07:00,
2013-08-22 16:08:00,88.9,72.2,30.03,West,270,4.0,4.0,58,0.00,,SCT042,0.00,VWS V14.01,2013-08-22 20:08:00,
2013-08-22 16:09:00,88.9,72.2,30.03,West,270,4.0,4.0,58,0.00,,,0.00,VWS V14.01,2013-08-22 20:09:00,
2013-08-22 16:10:00,88.9,71.7,30.06,West,270,2.5,2.5,57,0.00,,,0.00,VWS V14.01,2013-08-22 20:10:00,
2013-08-22 16:11:00,88.9,71.7,30.06,South,180,0.9,0.9,57,0.00,,,0.00,VWS V14.01,2013-08-22 20:11:00,
2013-08-22 16:12:00,88.9,71.7,30.06,WSW,248,3.4,3.4,57,0.00,,,0.00,VWS V14.01,2013-08-22 20:12:00,
2013-08-22 16:13:00,88.9,72.2,30.06,West,270,4.5,4.5,58,0.00,,SCT042,0.00,VWS V14.01,2013-08-22 20:13:00,
2013-08-22 16:14:00,88.9,72.2,30.06,West,270,4.5,4.5,58,0.00,,,0.00,VWS V14.01,2013-08-22 20:14:00,
2013-08-22 16:15:00,89.1,72.4,30.06,West,270,4.3,4.3,58,0.00,,,0.00,VWS V14.01,2013-08-22 20:15:00,
2013-08-22 16:16:00,88.9,71.7,30.06,West,270,2.0,2.0,57,0.00,,,0.00,VWS V14.01,2013-08-22 20:16:00,
2013-08-22 16:17:00,89.1,72.4,30.06,SSE,158,4.0,4.0,58,0.00,,,0.00,VWS V14.01,2013-08-22 20:17:00,
2013-08-22 16:18:00,89.1,71.4,30.06,SSW,202,1.6,1.6,56,0.00,,SCT042,0.00,VWS V14.01,2013-08-22 20:18:00,
2013-08-22 16:19:00,89.1,71.4,30.06,SSW,202,1.6,1.6,56,0.00,,,0.00,VWS V14.01,2013-08-22 20:19:00,
2013-08-22 16:20:00,89.3,72.1,30.06,NW,315,0.0,0.0,57,0.00,,,0.00,VWS V14.01,2013-08-22 20:20:00,
2013-08-22 16:21:00,89.3,71.5,30.06,WNW,292,2.5,2.5,56,0.00,,,0.00,VWS V14.01,2013-08-22 20:21:00,
2013-08-22 16:22:00,89.3,71.0,30.06,West,270,3.6,3.6,55,0.00,,,0.00,VWS V14.01,2013-08-22 20:22:00,
2013-08-22 16:23:00,89.3,71.5,30.06,NNE,22,0.0,0.0,56,0.00,,SCT042,0.00,VWS V14.01,2013-08-22 20:23:00,
2013-08-22 16:24:00,89.3,71.5,30.06,NNE,22,0.0,0.0,56,0.00,,,0.00,VWS V14.01,2013-08-22 20:24:00,
2013-08-22 16:25:00,89.5,71.7,30.06,NW,315,0.0,0.0,56,0.00,,,0.00,VWS V14.01,2013-08-22 20:25:00,
2013-08-22 16:26:00,89.6,72.4,30.06,West,270,1.1,1.1,57,0.00,,,0.00,VWS V14.01,2013-08-22 20:26:00,
2013-08-22 16:27:00,89.6,72.9,30.06,WSW,248,1.6,1.6,58,0.00,,,0.00,VWS V14.01,2013-08-22 20:27:00,
2013-08-22 16:28:00,89.6,71.9,30.06,WSW,248,4.0,4.0,56,0.00,,SCT042,0.00,VWS V14.01,2013-08-22 20:28:00,
2013-08-22 16:29:00,89.6,71.9,30.06,WSW,248,4.0,4.0,56,0.00,,,0.00,VWS V14.01,2013-08-22 20:29:00,
2013-08-22 16:30:00,89.6,71.9,30.06,WSW,248,2.9,2.9,56,0.00,,,0.00,VWS V14.01,2013-08-22 20:30:00,
2013-08-22 16:31:00,89.6,71.9,30.06,West,270,5.4,5.4,56,0.00,,,0.00,VWS V14.01,2013-08-22 20:31:00,
2013-08-22 16:32:00,89.1,70.8,30.06,West,270,4.0,4.0,55,0.00,,,0.00,VWS V14.01,2013-08-22 20:32:00,
2013-08-22 16:33:00,89.1,71.4,30.06,West,270,2.5,2.5,56,0.00,,SCT042,0.00,VWS V14.01,2013-08-22 20:33:00,
2013-08-22 16:34:00,89.1,71.4,30.06,West,270,2.5,2.5,56,0.00,,,0.00,VWS V14.01,2013-08-22 20:34:00,
2013-08-22 16:35:00,89.1,71.4,30.06,WSW,248,1.6,1.6,56,0.00,,,0.00,VWS V14.01,2013-08-22 20:35:00,
2013-08-22 16:36:00,89.1,72.4,30.06,SW,225,4.3,4.3,58,0.00,,,0.00,VWS V14.01,2013-08-22 20:36:00,
2013-08-22 16:37:00,89.1,71.4,30.06,WSW,248,4.0,4.0,56,0.00,,,0.00,VWS V14.01,2013-08-22 20:37:00,
2013-08-22 16:38:00,88.9,71.2,30.06,West,270,3.1,3.1,56,0.00,,CLR,0.00,VWS V14.01,2013-08-22 20:38:00,
2013-08-22 16:39:00,88.9,71.2,30.06,West,270,3.1,3.1,56,0.00,,,0.00,VWS V14.01,2013-08-22 20:39:00,
2013-08-22 16:40:00,89.1,72.9,30.06,WSW,248,4.3,4.3,59,0.00,,,0.00,VWS V14.01,2013-08-22 20:40:00,
2013-08-22 16:41:00,88.9,71.7,30.06,West,270,3.4,3.4,57,0.00,,,0.00,VWS V14.01,2013-08-22 20:41:00,
2013-08-22 16:42:00,88.7,71.0,30.06,WSW,248,3.1,3.1,56,0.00,,,0.00,VWS V14.01,2013-08-22 20:42:00,
2013-08-22 16:43:00,88.9,72.8,30.06,WSW,248,4.9,4.9,59,0.00,,CLR,0.00,VWS V14.01,2013-08-22 20:43:00,
2013-08-22 16:44:00,88.9,72.8,30.06,WSW,248,4.9,4.9,59,0.00,,,0.00,VWS V14.01,2013-08-22 20:44:00,
2013-08-22 16:45:00,88.7,71.0,30.06,WNW,292,4.9,4.9,56,0.00,,,0.00,VWS V14.01,2013-08-22 20:45:00,
2013-08-22 16:46:00,88.9,72.2,30.06,West,270,3.8,3.8,58,0.00,,,0.00,VWS V14.01,2013-08-22 20:46:00,
2013-08-22 16:47:00,88.9,72.2,30.06,WSW,248,5.4,5.4,58,0.00,,,0.00,VWS V14.01,2013-08-22 20:47:00,
2013-08-22 16:48:00,88.6,70.3,30.06,West,270,6.0,6.0,55,0.00,,CLR,0.00,VWS V14.01,2013-08-22 20:48:00,
2013-08-22 16:49:00,88.6,70.3,30.06,West,270,6.0,6.0,55,0.00,,,0.00,VWS V14.01,2013-08-22 20:49:00,
2013-08-22 16:50:00,88.6,70.9,30.06,SSW,202,4.9,4.9,56,0.00,,,0.00,VWS V14.01,2013-08-22 20:50:00,
2013-08-22 16:51:00,88.4,70.7,30.06,WSW,248,7.2,7.2,56,0.00,,,0.00,VWS V14.01,2013-08-22 20:51:00,
2013-08-22 16:52:00,88.4,71.2,30.06,North,0,1.3,1.3,57,0.00,,,0.00,VWS V14.01,2013-08-22 20:52:00,
2013-08-22 16:53:00,88.6,71.9,30.06,SW,225,0.9,0.9,58,0.00,,CLR,0.00,VWS V14.01,2013-08-22 20:53:00,
2013-08-22 16:54:00,88.6,71.9,30.06,SW,225,0.9,0.9,58,0.00,,,0.00,VWS V14.01,2013-08-22 20:54:00,
2013-08-22 16:55:00,88.6,71.9,30.03,WSW,248,4.9,4.9,58,0.00,,,0.00,VWS V14.01,2013-08-22 20:55:00,
2013-08-22 16:56:00,88.4,70.7,30.03,WSW,248,5.4,5.4,56,0.00,,,0.00,VWS V14.01,2013-08-22 20:56:00,
2013-08-22 16:57:00,88.6,71.4,30.03,West,270,1.6,1.6,57,0.00,,,0.00,VWS V14.01,2013-08-22 20:57:00,
2013-08-22 16:58:00,88.6,73.4,30.03,SSW,202,4.0,4.0,61,0.00,,CLR,0.00,VWS V14.01,2013-08-22 20:58:00,
2013-08-22 16:59:00,88.6,73.4,30.03,SSW,202,4.0,4.0,61,0.00,,,0.00,VWS V14.01,2013-08-22 20:59:00,
2013-08-22 17:00:00,88.6,72.4,30.03,SW,225,4.0,4.0,59,0.00,,,0.00,VWS V14.01,2013-08-22 21:00:00,
2013-08-22 17:01:00,88.6,72.4,30.03,WSW,248,3.6,3.6,59,0.00,,,0.00,VWS V14.01,2013-08-22 21:01:00,
2013-08-22 17:02:00,88.6,71.9,30.03,West,270,3.1,3.1,58,0.00,,,0.00,VWS V14.01,2013-08-22 21:02:00,
2013-08-22 17:03:00,88.6,71.4,30.03,SW,225,3.6,3.6,57,0.00,,CLR,0.00,VWS V14.01,2013-08-22 21:03:00,
2013-08-22 17:04:00,88.6,71.4,30.03,SW,225,3.6,3.6,57,0.00,,,0.00,VWS V14.01,2013-08-22 21:04:00,
2013-08-22 17:05:00,88.4,71.2,30.03,WSW,248,3.4,3.4,57,0.00,,,0.00,VWS V14.01,2013-08-22 21:05:00,
2013-08-22 17:06:00,88.2,71.1,30.03,WSW,248,3.4,3.4,57,0.00,,,0.00,VWS V14.01,2013-08-22 21:06:00,
2013-08-22 17:07:00,88.4,71.7,30.03,West,270,2.5,2.5,58,0.00,,,0.00,VWS V14.01,2013-08-22 21:07:00,
2013-08-22 17:08:00,88.4,71.7,30.03,WSW,248,4.3,4.3,58,0.00,,CLR,0.00,VWS V14.01,2013-08-22 21:08:00,
2013-08-22 17:09:00,88.4,71.7,30.03,WSW,248,4.3,4.3,58,0.00,,,0.00,VWS V14.01,2013-08-22 21:09:00,
2013-08-22 17:10:00,88.4,71.7,30.03,SW,225,3.6,3.6,58,0.00,,,0.00,VWS V14.01,2013-08-22 21:10:00,
2013-08-22 17:11:00,88.4,71.7,30.03,West,270,4.9,4.9,58,0.00,,,0.00,VWS V14.01,2013-08-22 21:11:00,
2013-08-22 17:12:00,88.0,70.9,30.03,West,270,4.7,4.7,57,0.00,,,0.00,VWS V14.01,2013-08-22 21:12:00,
2013-08-22 17:13:00,88.0,71.9,30.03,SW,225,0.0,0.0,59,0.00,,CLR,0.00,VWS V14.01,2013-08-22 21:13:00,
2013-08-22 17:14:00,88.0,71.9,30.03,SW,225,0.0,0.0,59,0.00,,,0.00,VWS V14.01,2013-08-22 21:14:00,
2013-08-22 17:15:00,88.0,71.9,30.03,SW,225,1.3,1.3,59,0.00,,,0.00,VWS V14.01,2013-08-22 21:15:00,
2013-08-22 17:16:00,87.8,70.7,30.03,WSW,248,1.1,1.1,57,0.00,,,0.00,VWS V14.01,2013-08-22 21:16:00,
2013-08-22 17:17:00,87.8,71.2,30.03,SW,225,1.3,1.3,58,0.00,,,0.00,VWS V14.01,2013-08-22 21:17:00,
2013-08-22 17:18:00,87.7,71.1,30.03,West,270,3.1,3.1,58,0.00,,CLR,0.00,VWS V14.01,2013-08-22 21:18:00,
2013-08-22 17:19:00,87.7,71.1,30.03,West,270,3.1,3.1,58,0.00,,,0.00,VWS V14.01,2013-08-22 21:19:00,
2013-08-22 17:20:00,87.5,70.4,30.03,WSW,248,2.7,2.7,57,0.00,,,0.00,VWS V14.01,2013-08-22 21:20:00,
2013-08-22 17:21:00,87.5,70.9,30.03,WSW,248,2.9,2.9,58,0.00,,,0.00,VWS V14.01,2013-08-22 21:21:00,
2013-08-22 17:22:00,87.7,71.1,30.03,SW,225,1.6,1.6,58,0.00,,,0.00,VWS V14.01,2013-08-22 21:22:00,
2013-08-22 17:23:00,87.8,72.7,30.03,West,270,0.0,0.0,61,0.00,,CLR,0.00,VWS V14.01,2013-08-22 21:23:00,
2013-08-22 17:24:00,87.8,73.7,30.03,NNW,338,0.0,0.0,63,0.00,,,0.00,VWS V14.01,2013-08-22 21:24:00,
2013-08-22 17:25:00,87.8,72.7,30.03,NNW,338,0.0,0.0,61,0.00,,,0.00,VWS V14.01,2013-08-22 21:25:00,
2013-08-22 17:26:00,87.8,72.2,30.03,WNW,292,0.9,0.9,60,0.00,,,0.00,VWS V14.01,2013-08-22 21:26:00,
2013-08-22 17:27:00,87.8,71.2,30.03,West,270,2.5,2.5,58,0.00,,,0.00,VWS V14.01,2013-08-22 21:27:00,
2013-08-22 17:28:00,88.0,71.9,30.03,WSW,248,0.0,0.0,59,0.00,,CLR,0.00,VWS V14.01,2013-08-22 21:28:00,
2013-08-22 17:29:00,88.0,71.9,30.03,NW,315,0.0,0.0,59,0.00,,,0.00,VWS V14.01,2013-08-22 21:29:00,
2013-08-22 17:30:00,88.0,71.9,30.03,West,270,3.6,3.6,59,0.00,,,0.00,VWS V14.01,2013-08-22 21:30:00,
2013-08-22 17:31:00,88.2,71.1,30.03,West,270,3.1,3.1,57,0.00,,,0.00,VWS V14.01,2013-08-22 21:31:00,
2013-08-22 17:32:00,88.2,72.1,30.03,West,270,4.5,4.5,59,0.00,,,0.00,VWS V14.01,2013-08-22 21:32:00,
2013-08-22 17:33:00,88.2,71.6,30.03,SSW,202,2.0,2.0,58,0.00,,CLR,0.00,VWS V14.01,2013-08-22 21:33:00,
2013-08-22 17:34:00,88.2,71.6,30.03,SW,225,3.8,3.8,58,0.00,,,0.00,VWS V14.01,2013-08-22 21:34:00,
2013-08-22 17:35:00,88.0,71.4,30.03,SW,225,2.7,2.7,58,0.00,,,0.00,VWS V14.01,2013-08-22 21:35:00,
2013-08-22 17:36:00,87.8,70.7,30.03,SW,225,3.1,3.1,57,0.00,,,0.00,VWS V14.01,2013-08-22 21:36:00,
2013-08-22 17:37:00,87.8,71.2,30.03,SW,225,3.1,3.1,58,0.00,,,0.00,VWS V14.01,2013-08-22 21:37:00,
2013-08-22 17:38:00,87.7,71.6,30.03,West,270,4.0,4.0,59,0.00,,CLR,0.00,VWS V14.01,2013-08-22 21:38:00,
2013-08-22 17:39:00,87.8,71.2,30.03,SW,225,5.8,5.8,58,0.00,,,0.00,VWS V14.01,2013-08-22 21:39:00,
2013-08-22 17:40:00,87.7,71.6,30.03,West,270,4.0,4.0,59,0.00,,,0.00,VWS V14.01,2013-08-22 21:40:00,
2013-08-22 17:41:00,87.7,72.1,30.03,West,270,3.6,3.6,60,0.00,,,0.00,VWS V14.01,2013-08-22 21:41:00,
2013-08-22 17:42:00,87.7,72.1,30.03,West,270,2.7,2.7,60,0.00,,,0.00,VWS V14.01,2013-08-22 21:42:00,
2013-08-22 17:43:00,87.5,71.4,30.03,West,270,4.3,4.3,59,0.00,,CLR,0.00,VWS V14.01,2013-08-22 21:43:00,
2013-08-22 17:44:00,87.7,72.6,30.03,SW,225,2.9,2.9,61,0.00,,,0.00,VWS V14.01,2013-08-22 21:44:00,
2013-08-22 17:45:00,87.5,71.4,30.03,West,270,3.8,3.8,59,0.00,,,0.00,VWS V14.01,2013-08-22 21:45:00,
2013-08-22 17:46:00,87.5,71.4,30.03,WNW,292,2.5,2.5,59,0.00,,,0.00,VWS V14.01,2013-08-22 21:46:00,
2013-08-22 17:47:00,87.5,71.9,30.03,WSW,248,3.6,3.6,60,0.00,,,0.00,VWS V14.01,2013-08-22 21:47:00,
2013-08-22 17:48:00,87.3,71.2,30.03,WSW,248,3.4,3.4,59,0.00,,,0.00,VWS V14.01,2013-08-22 21:48:00,
2013-08-22 17:49:00,87.3,71.7,30.03,WNW,292,1.1,1.1,60,0.00,,CLR,0.00,VWS V14.01,2013-08-22 21:49:00,
2013-08-22 17:50:00,87.3,71.7,30.03,SSW,202,2.0,2.0,60,0.00,,,0.00,VWS V14.01,2013-08-22 21:50:00,
2013-08-22 17:51:00,87.3,72.2,30.03,West,270,0.0,0.0,61,0.00,,,0.00,VWS V14.01,2013-08-22 21:51:00,
2013-08-22 17:52:00,87.3,72.2,30.03,WSW,248,3.8,3.8,61,0.00,,,0.00,VWS V14.01,2013-08-22 21:52:00,
2013-08-22 17:53:00,87.3,71.7,30.03,WSW,248,2.7,2.7,60,0.00,,,0.00,VWS V14.01,2013-08-22 21:53:00,
2013-08-22 17:54:00,87.1,71.1,30.03,WSW,248,4.3,4.3,59,0.00,,CLR,0.00,VWS V14.01,2013-08-22 21:54:00,
2013-08-22 17:55:00,87.1,71.1,30.03,West,270,3.4,3.4,59,0.00,,,0.00,VWS V14.01,2013-08-22 21:55:00,
2013-08-22 17:56:00,86.9,71.4,30.03,West,270,2.5,2.5,60,0.00,,,0.00,VWS V14.01,2013-08-22 21:56:00,
2013-08-22 17:57:00,86.9,71.9,30.03,West,270,2.7,2.7,61,0.00,,,0.00,VWS V14.01,2013-08-22 21:57:00,
2013-08-22 17:58:00,86.9,71.4,30.03,West,270,2.9,2.9,60,0.00,,,0.00,VWS V14.01,2013-08-22 21:58:00,
2013-08-22 17:59:00,86.9,71.9,30.03,WSW,248,2.0,2.0,61,0.00,,CLR,0.00,VWS V14.01,2013-08-22 21:59:00,
2013-08-22 18:00:00,86.9,71.9,30.03,WSW,248,2.0,2.0,61,0.00,,,0.00,VWS V14.01,2013-08-22 22:00:00,
2013-08-22 18:01:00,86.9,70.9,30.03,WSW,248,3.4,3.4,59,0.00,,,0.00,VWS V14.01,2013-08-22 22:01:00,
2013-08-22 18:02:00,86.9,70.9,30.03,WSW,248,4.3,4.3,59,0.00,,,0.00,VWS V14.01,2013-08-22 22:02:00,
2013-08-22 18:03:00,86.8,71.7,30.03,WSW,248,3.1,3.1,61,0.00,,,0.00,VWS V14.01,2013-08-22 22:03:00,
2013-08-22 18:04:00,86.8,71.7,30.03,West,270,2.9,2.9,61,0.00,,CLR,0.00,VWS V14.01,2013-08-22 22:04:00,
2013-08-22 18:05:00,86.8,71.7,30.03,West,270,2.0,2.0,61,0.00,,,0.00,VWS V14.01,2013-08-22 22:05:00,
2013-08-22 18:06:00,86.8,71.7,30.03,West,270,1.1,1.1,61,0.00,,,0.00,VWS V14.01,2013-08-22 22:06:00,
2013-08-22 18:07:00,86.8,71.2,30.03,WNW,292,0.0,0.0,60,0.00,,,0.00,VWS V14.01,2013-08-22 22:07:00,
2013-08-22 18:08:00,86.8,71.7,30.03,West,270,0.0,0.0,61,0.00,,,0.00,VWS V14.01,2013-08-22 22:08:00,
2013-08-22 18:09:00,86.8,71.7,30.03,WSW,248,0.0,0.0,61,0.00,,CLR,0.00,VWS V14.01,2013-08-22 22:09:00,
2013-08-22 18:10:00,86.8,71.7,30.03,WSW,248,0.0,0.0,61,0.00,,,0.00,VWS V14.01,2013-08-22 22:10:00,
2013-08-22 18:11:00,86.8,71.7,30.03,WNW,292,0.0,0.0,61,0.00,,,0.00,VWS V14.01,2013-08-22 22:11:00,
2013-08-22 18:12:00,86.8,71.7,30.03,West,270,0.0,0.0,61,0.00,,,0.00,VWS V14.01,2013-08-22 22:12:00,
2013-08-22 18:13:00,86.8,71.7,30.03,West,270,0.0,0.0,61,0.00,,,0.00,VWS V14.01,2013-08-22 22:13:00,
2013-08-22 18:14:00,86.6,72.0,30.03,WNW,292,0.0,0.0,62,0.00,,CLR,0.00,VWS V14.01,2013-08-22 22:14:00,
2013-08-22 18:15:00,86.6,72.0,30.03,WNW,292,0.0,0.0,62,0.00,,,0.00,VWS V14.01,2013-08-22 22:15:00,
2013-08-22 18:16:00,86.6,72.0,30.03,West,270,0.0,0.0,62,0.00,,,0.00,VWS V14.01,2013-08-22 22:16:00,
2013-08-22 18:17:00,86.6,72.0,30.03,WNW,292,0.0,0.0,62,0.00,,,0.00,VWS V14.01,2013-08-22 22:17:00,
2013-08-22 18:18:00,86.6,72.0,30.03,West,270,1.3,1.3,62,0.00,,,0.00,VWS V14.01,2013-08-22 22:18:00,
2013-08-22 18:19:00,86.4,72.3,30.03,West,270,0.0,0.0,63,0.00,,CLR,0.00,VWS V14.01,2013-08-22 22:19:00,
2013-08-22 18:20:00,86.4,72.3,30.03,West,270,0.0,0.0,63,0.00,,,0.00,VWS V14.01,2013-08-22 22:20:00,
2013-08-22 18:21:00,86.4,72.3,30.03,West,270,0.0,0.0,63,0.00,,,0.00,VWS V14.01,2013-08-22 22:21:00,
2013-08-22 18:22:00,86.4,72.8,30.03,West,270,1.1,1.1,64,0.00,,,0.00,VWS V14.01,2013-08-22 22:22:00,
2013-08-22 18:23:00,86.4,72.3,30.03,WSW,248,0.0,0.0,63,0.00,,,0.00,VWS V14.01,2013-08-22 22:23:00,
2013-08-22 18:24:00,86.2,73.5,30.03,WSW,248,2.0,2.0,66,0.00,,CLR,0.00,VWS V14.01,2013-08-22 22:24:00,
2013-08-22 18:25:00,86.2,73.5,30.03,WSW,248,2.0,2.0,66,0.00,,,0.00,VWS V14.01,2013-08-22 22:25:00,
2013-08-22 18:26:00,86.2,73.1,30.03,WSW,248,1.6,1.6,65,0.00,,,0.00,VWS V14.01,2013-08-22 22:26:00,
2013-08-22 18:27:00,86.0,72.9,30.03,WSW,248,1.6,1.6,65,0.00,,,0.00,VWS V14.01,2013-08-22 22:27:00,
2013-08-22 18:28:00,86.0,72.9,30.03,SW,225,0.0,0.0,65,0.00,,,0.00,VWS V14.01,2013-08-22 22:28:00,
2013-08-22 18:29:00,85.9,72.7,30.03,SW,225,1.3,1.3,65,0.00,,CLR,0.00,VWS V14.01,2013-08-22 22:29:00,
2013-08-22 18:30:00,85.9,72.7,30.03,SW,225,1.3,1.3,65,0.00,,,0.00,VWS V14.01,2013-08-22 22:30:00,
2013-08-22 18:31:00,85.9,72.7,30.03,West,270,3.1,3.1,65,0.00,,,0.00,VWS V14.01,2013-08-22 22:31:00,
2013-08-22 18:32:00,85.9,72.7,30.03,West,270,1.6,1.6,65,0.00,,,0.00,VWS V14.01,2013-08-22 22:32:00,
2013-08-22 18:33:00,85.9,73.2,30.03,West,270,0.0,0.0,66,0.00,,,0.00,VWS V14.01,2013-08-22 22:33:00,
2013-08-22 18:34:00,85.9,73.2,30.03,West,270,0.0,0.0,66,0.00,,CLR,0.00,VWS V14.01,2013-08-22 22:34:00,
2013-08-22 18:35:00,85.9,73.2,30.03,West,270,0.0,0.0,66,0.00,,,0.00,VWS V14.01,2013-08-22 22:35:00,
2013-08-22 18:36:00,85.9,73.2,30.03,WNW,292,0.0,0.0,66,0.00,,,0.00,VWS V14.01,2013-08-22 22:36:00,
2013-08-22 18:37:00,85.9,73.2,30.03,WSW,248,0.0,0.0,66,0.00,,,0.00,VWS V14.01,2013-08-22 22:37:00,
2013-08-22 18:38:00,85.9,73.2,30.03,WNW,292,0.0,0.0,66,0.00,,,0.00,VWS V14.01,2013-08-22 22:38:00,
2013-08-22 18:39:00,85.9,73.2,30.03,WNW,292,1.1,1.1,66,0.00,,CLR,0.00,VWS V14.01,2013-08-22 22:39:00,
2013-08-22 18:40:00,85.9,73.2,30.03,WNW,292,1.1,1.1,66,0.00,,,0.00,VWS V14.01,2013-08-22 22:40:00,
2013-08-22 18:41:00,85.9,73.6,30.03,West,270,1.3,1.3,67,0.00,,,0.00,VWS V14.01,2013-08-22 22:41:00,
2013-08-22 18:42:00,85.9,73.2,30.03,WNW,292,1.6,1.6,66,0.00,,,0.00,VWS V14.01,2013-08-22 22:42:00,
2013-08-22 18:43:00,85.9,73.6,30.03,West,270,1.3,1.3,67,0.00,,,0.00,VWS V14.01,2013-08-22 22:43:00,
2013-08-22 18:44:00,85.9,73.6,30.03,WNW,292,0.0,0.0,67,0.00,,CLR,0.00,VWS V14.01,2013-08-22 22:44:00,
2013-08-22 18:45:00,85.9,73.6,30.03,WNW,292,0.0,0.0,67,0.00,,,0.00,VWS V14.01,2013-08-22 22:45:00,
2013-08-22 18:46:00,85.7,73.5,30.03,West,270,2.0,2.0,67,0.00,,CLR,0.00,VWS V14.01,2013-08-22 22:46:00,
2013-08-22 18:47:00,85.7,73.5,30.03,West,270,0.9,0.9,67,0.00,,,0.00,VWS V14.01,2013-08-22 22:47:00,
2013-08-22 18:48:00,85.7,73.5,30.03,WNW,292,2.0,2.0,67,0.00,,,0.00,VWS V14.01,2013-08-22 22:48:00,
2013-08-22 18:49:00,85.7,73.5,30.03,WSW,248,1.1,1.1,67,0.00,,CLR,0.00,VWS V14.01,2013-08-22 22:49:00,
2013-08-22 18:50:00,85.7,73.5,30.03,WSW,248,1.1,1.1,67,0.00,,,0.00,VWS V14.01,2013-08-22 22:50:00,
2013-08-22 18:51:00,85.7,73.5,30.03,West,270,0.0,0.0,67,0.00,,,0.00,VWS V14.01,2013-08-22 22:51:00,
2013-08-22 18:52:00,85.7,73.5,30.03,West,270,0.0,0.0,67,0.00,,,0.00,VWS V14.01,2013-08-22 22:52:00,
2013-08-22 18:53:00,85.7,73.5,30.03,WSW,248,1.6,1.6,67,0.00,,,0.00,VWS V14.01,2013-08-22 22:53:00,
2013-08-22 18:54:00,85.7,73.5,30.00,WSW,248,0.0,0.0,67,0.00,,CLR,0.00,VWS V14.01,2013-08-22 22:54:00,
2013-08-22 18:55:00,85.7,73.5,30.00,WSW,248,0.0,0.0,67,0.00,,,0.00,VWS V14.01,2013-08-22 22:55:00,
2013-08-22 18:56:00,85.5,73.3,30.00,SW,225,1.6,1.6,67,0.00,,,0.00,VWS V14.01,2013-08-22 22:56:00,
2013-08-22 18:57:00,85.5,73.3,30.00,West,270,0.0,0.0,67,0.00,,,0.00,VWS V14.01,2013-08-22 22:57:00,
2013-08-22 18:58:00,85.5,73.3,30.00,WNW,292,0.0,0.0,67,0.00,,,0.00,VWS V14.01,2013-08-22 22:58:00,
2013-08-22 18:59:00,85.5,73.3,30.00,WNW,292,1.1,1.1,67,0.00,,CLR,0.00,VWS V14.01,2013-08-22 22:59:00,
2013-08-22 19:00:00,85.5,73.3,30.00,WNW,292,1.1,1.1,67,0.00,,,0.00,VWS V14.01,2013-08-22 23:00:00,
2013-08-22 19:01:00,85.5,73.3,30.00,NW,315,0.0,0.0,67,0.00,,,0.00,VWS V14.01,2013-08-22 23:01:00,
2013-08-22 19:02:00,85.5,73.3,30.00,WNW,292,0.0,0.0,67,0.00,,,0.00,VWS V14.01,2013-08-22 23:02:00,
2013-08-22 19:03:00,85.5,73.3,30.00,West,270,0.0,0.0,67,0.00,,,0.00,VWS V14.01,2013-08-22 23:03:00,
2013-08-22 19:04:00,85.5,73.3,30.00,WNW,292,0.0,0.0,67,0.00,,CLR,0.00,VWS V14.01,2013-08-22 23:04:00,
2013-08-22 19:05:00,85.5,73.3,30.00,WNW,292,0.0,0.0,67,0.00,,,0.00,VWS V14.01,2013-08-22 23:05:00,
2013-08-22 19:06:00,85.5,73.3,30.00,West,270,0.0,0.0,67,0.00,,,0.00,VWS V14.01,2013-08-22 23:06:00,
2013-08-22 19:07:00,85.5,73.3,30.00,West,270,0.0,0.0,67,0.00,,,0.00,VWS V14.01,2013-08-22 23:07:00,
2013-08-22 19:08:00,85.5,73.7,30.00,WSW,248,1.1,1.1,68,0.00,,,0.00,VWS V14.01,2013-08-22 23:08:00,
2013-08-22 19:09:00,85.5,73.7,30.00,West,270,0.0,0.0,68,0.00,,CLR,0.00,VWS V14.01,2013-08-22 23:09:00,
2013-08-22 19:10:00,85.5,73.7,30.00,West,270,0.0,0.0,68,0.00,,,0.00,VWS V14.01,2013-08-22 23:10:00,
2013-08-22 19:11:00,85.3,73.6,30.00,WSW,248,0.0,0.0,68,0.00,,,0.00,VWS V14.01,2013-08-22 23:11:00,
2013-08-22 19:12:00,85.3,73.6,30.00,WSW,248,0.0,0.0,68,0.00,,,0.00,VWS V14.01,2013-08-22 23:12:00,
2013-08-22 19:13:00,85.3,73.6,30.00,SW,225,0.0,0.0,68,0.00,,,0.00,VWS V14.01,2013-08-22 23:13:00,
2013-08-22 19:14:00,85.1,73.8,30.00,SW,225,2.0,2.0,69,0.00,,CLR,0.00,VWS V14.01,2013-08-22 23:14:00,
2013-08-22 19:15:00,85.1,73.8,30.00,SW,225,2.0,2.0,69,0.00,,,0.00,VWS V14.01,2013-08-22 23:15:00,
2013-08-22 19:16:00,85.0,73.2,30.00,SW,225,0.9,0.9,68,0.00,,,0.00,VWS V14.01,2013-08-22 23:16:00,
2013-08-22 19:17:00,85.0,73.2,30.00,SSW,202,0.9,0.9,68,0.00,,,0.00,VWS V14.01,2013-08-22 23:17:00,
2013-08-22 19:18:00,85.0,73.2,30.00,SW,225,0.0,0.0,68,0.00,,,0.00,VWS V14.01,2013-08-22 23:18:00,
2013-08-22 19:19:00,84.6,73.3,30.00,SW,225,0.0,0.0,69,0.00,,CLR,0.00,VWS V14.01,2013-08-22 23:19:00,
2013-08-22 19:20:00,84.6,73.3,30.00,SW,225,0.0,0.0,69,0.00,,,0.00,VWS V14.01,2013-08-22 23:20:00,
2013-08-22 19:21:00,84.6,73.3,30.00,SW,225,0.0,0.0,69,0.00,,,0.00,VWS V14.01,2013-08-22 23:21:00,
2013-08-22 19:22:00,84.6,73.3,30.00,SW,225,0.0,0.0,69,0.00,,,0.00,VWS V14.01,2013-08-22 23:22:00,
2013-08-22 19:23:00,84.6,73.3,30.00,SW,225,0.0,0.0,69,0.00,,,0.00,VWS V14.01,2013-08-22 23:23:00,
2013-08-22 19:24:00,84.4,73.6,30.03,SW,225,0.0,0.0,70,0.00,,CLR,0.00,VWS V14.01,2013-08-22 23:24:00,
2013-08-22 19:25:00,84.4,73.6,30.03,SW,225,0.0,0.0,70,0.00,,,0.00,VWS V14.01,2013-08-22 23:25:00,
2013-08-22 19:26:00,84.4,73.6,30.03,SW,225,0.0,0.0,70,0.00,,,0.00,VWS V14.01,2013-08-22 23:26:00,
2013-08-22 19:27:00,84.2,73.4,30.03,SW,225,0.0,0.0,70,0.00,,,0.00,VWS V14.01,2013-08-22 23:27:00,
2013-08-22 19:28:00,84.2,73.4,30.03,SW,225,0.0,0.0,70,0.00,,,0.00,VWS V14.01,2013-08-22 23:28:00,
2013-08-22 19:29:00,84.1,73.2,30.03,SW,225,0.0,0.0,70,0.00,,CLR,0.00,VWS V14.01,2013-08-22 23:29:00,
2013-08-22 19:30:00,84.1,73.2,30.03,SW,225,0.0,0.0,70,0.00,,,0.00,VWS V14.01,2013-08-22 23:30:00,
2013-08-22 19:31:00,84.1,73.2,30.03,SW,225,0.0,0.0,70,0.00,,,0.00,VWS V14.01,2013-08-22 23:31:00,
2013-08-22 19:32:00,84.1,73.2,30.03,SW,225,0.0,0.0,70,0.00,,,0.00,VWS V14.01,2013-08-22 23:32:00,
2013-08-22 19:33:00,84.1,73.2,30.03,SW,225,0.0,0.0,70,0.00,,,0.00,VWS V14.01,2013-08-22 23:33:00,
2013-08-22 19:34:00,83.9,73.5,30.03,SW,225,0.0,0.0,71,0.00,,CLR,0.00,VWS V14.01,2013-08-22 23:34:00,
2013-08-22 19:35:00,83.9,73.5,30.03,SW,225,0.0,0.0,71,0.00,,,0.00,VWS V14.01,2013-08-22 23:35:00,
2013-08-22 19:36:00,83.7,73.3,30.03,SW,225,0.0,0.0,71,0.00,,,0.00,VWS V14.01,2013-08-22 23:36:00,
2013-08-22 19:37:00,83.7,73.3,30.03,SW,225,0.0,0.0,71,0.00,,,0.00,VWS V14.01,2013-08-22 23:37:00,
2013-08-22 19:38:00,83.7,73.3,30.03,SW,225,0.0,0.0,71,0.00,,,0.00,VWS V14.01,2013-08-22 23:38:00,
2013-08-22 19:39:00,83.7,73.3,30.03,WSW,248,0.0,0.0,71,0.00,,CLR,0.00,VWS V14.01,2013-08-22 23:39:00,
2013-08-22 19:40:00,83.7,73.3,30.03,WSW,248,0.0,0.0,71,0.00,,,0.00,VWS V14.01,2013-08-22 23:40:00,
2013-08-22 19:41:00,83.7,73.3,30.03,WSW,248,0.0,0.0,71,0.00,,,0.00,VWS V14.01,2013-08-22 23:41:00,
2013-08-22 19:42:00,83.5,73.1,30.03,WSW,248,0.0,0.0,71,0.00,,,0.00,VWS V14.01,2013-08-22 23:42:00,
2013-08-22 19:43:00,83.5,73.1,30.03,West,270,0.0,0.0,71,0.00,,,0.00,VWS V14.01,2013-08-22 23:43:00,
2013-08-22 19:44:00,83.3,73.0,30.03,West,270,0.0,0.0,71,0.00,,CLR,0.00,VWS V14.01,2013-08-22 23:44:00,
2013-08-22 19:45:00,83.3,73.0,30.03,West,270,0.0,0.0,71,0.00,,CLR,0.00,VWS V14.01,2013-08-22 23:45:00,
2013-08-22 19:46:00,83.3,73.0,30.03,West,270,0.0,0.0,71,0.00,,,0.00,VWS V14.01,2013-08-22 23:46:00,
2013-08-22 19:47:00,83.2,73.2,30.03,West,270,0.0,0.0,72,0.00,,,0.00,VWS V14.01,2013-08-22 23:47:00,
2013-08-22 19:48:00,83.2,73.2,30.03,West,270,0.0,0.0,72,0.00,,,0.00,VWS V14.01,2013-08-22 23:48:00,
2013-08-22 19:49:00,83.2,73.2,30.03,West,270,0.0,0.0,72,0.00,,,0.00,VWS V14.01,2013-08-22 23:49:00,
2013-08-22 19:50:00,82.8,73.3,30.03,NNW,338,0.0,0.0,73,0.00,,CLR,0.00,VWS V14.01,2013-08-22 23:50:00,
2013-08-22 19:51:00,82.8,73.3,30.03,NNW,338,0.0,0.0,73,0.00,,,0.00,VWS V14.01,2013-08-22 23:51:00,
2013-08-22 19:52:00,82.6,73.5,30.03,NNW,338,0.0,0.0,74,0.00,,,0.00,VWS V14.01,2013-08-22 23:52:00,
2013-08-22 19:53:00,82.4,73.3,30.03,NNW,338,0.0,0.0,74,0.00,,,0.00,VWS V14.01,2013-08-22 23:53:00,
2013-08-22 19:54:00,82.3,73.2,30.03,NNW,338,0.0,0.0,74,0.00,,,0.00,VWS V14.01,2013-08-22 23:54:00,
2013-08-22 19:55:00,82.1,72.6,30.03,NNW,338,0.0,0.0,73,0.00,,CLR,0.00,VWS V14.01,2013-08-22 23:55:00,
2013-08-22 19:56:00,82.1,72.6,30.03,NNW,338,0.0,0.0,73,0.00,,,0.00,VWS V14.01,2013-08-22 23:56:00,
2013-08-22 19:57:00,82.1,72.6,30.03,NW,315,0.0,0.0,73,0.00,,,0.00,VWS V14.01,2013-08-22 23:57:00,
2013-08-22 19:58:00,81.9,72.4,30.03,NW,315,0.0,0.0,73,0.00,,,0.00,VWS V14.01,2013-08-22 23:58:00,
2013-08-22 19:59:00,81.9,72.4,30.03,WSW,248,0.0,0.0,73,0.00,,,0.00,VWS V14.01,2013-08-22 23:59:00,
2013-08-22 20:00:00,81.7,72.6,30.03,SW,225,0.0,0.0,74,0.00,,CLR,0.00,VWS V14.01,2013-08-23 00:00:00,
2013-08-22 20:01:00,81.7,72.6,30.03,SW,225,0.0,0.0,74,0.00,,,0.00,VWS V14.01,2013-08-23 00:01:00,
2013-08-22 20:02:00,81.7,72.6,30.03,SW,225,0.0,0.0,74,0.00,,,0.00,VWS V14.01,2013-08-23 00:02:00,
2013-08-22 20:03:00,81.5,72.5,30.03,SW,225,0.0,0.0,74,0.00,,,0.00,VWS V14.01,2013-08-23 00:03:00,
2013-08-22 20:04:00,81.5,72.5,30.03,SW,225,0.0,0.0,74,0.00,,,0.00,VWS V14.01,2013-08-23 00:04:00,
2013-08-22 20:05:00,81.4,72.3,30.03,SW,225,0.0,0.0,74,0.00,,CLR,0.00,VWS V14.01,2013-08-23 00:05:00,
2013-08-22 20:06:00,81.4,72.3,30.03,SW,225,0.0,0.0,74,0.00,,,0.00,VWS V14.01,2013-08-23 00:06:00,
2013-08-22 20:07:00,81.2,72.5,30.03,SW,225,0.0,0.0,75,0.00,,,0.00,VWS V14.01,2013-08-23 00:07:00,
2013-08-22 20:08:00,81.2,72.5,30.03,SW,225,0.0,0.0,75,0.00,,,0.00,VWS V14.01,2013-08-23 00:08:00,
2013-08-22 20:09:00,81.2,72.5,30.03,SW,225,0.0,0.0,75,0.00,,,0.00,VWS V14.01,2013-08-23 00:09:00,
2013-08-22 20:10:00,81.0,72.3,30.03,SW,225,0.0,0.0,75,0.00,,CLR,0.00,VWS V14.01,2013-08-23 00:10:00,
2013-08-22 20:11:00,81.0,72.3,30.03,SW,225,0.0,0.0,75,0.00,,,0.00,VWS V14.01,2013-08-23 00:11:00,
2013-08-22 20:12:00,80.8,72.6,30.03,SW,225,0.0,0.0,76,0.00,,,0.00,VWS V14.01,2013-08-23 00:12:00,
2013-08-22 20:13:00,80.8,72.6,30.03,SW,225,0.0,0.0,76,0.00,,,0.00,VWS V14.01,2013-08-23 00:13:00,
2013-08-22 20:14:00,80.8,72.6,30.03,SW,225,0.0,0.0,76,0.00,,,0.00,VWS V14.01,2013-08-23 00:14:00,
2013-08-22 20:15:00,80.6,73.2,30.03,SW,225,0.0,0.0,78,0.00,,CLR,0.00,VWS V14.01,2013-08-23 00:15:00,
2013-08-22 20:16:00,80.6,73.2,30.03,SW,225,0.0,0.0,78,0.00,,,0.00,VWS V14.01,2013-08-23 00:16:00,
2013-08-22 20:17:00,80.5,73.7,30.03,SW,225,0.0,0.0,80,0.00,,,0.00,VWS V14.01,2013-08-23 00:17:00,
2013-08-22 20:18:00,80.3,73.6,30.03,SW,225,0.0,0.0,80,0.00,,,0.00,VWS V14.01,2013-08-23 00:18:00,
2013-08-22 20:19:00,80.3,73.6,30.03,SW,225,0.0,0.0,80,0.00,,,0.00,VWS V14.01,2013-08-23 00:19:00,
2013-08-22 20:20:00,79.9,73.9,30.03,SW,225,0.0,0.0,82,0.00,,CLR,0.00,VWS V14.01,2013-08-23 00:20:00,
2013-08-22 20:21:00,79.9,73.9,30.03,SW,225,0.0,0.0,82,0.00,,,0.00,VWS V14.01,2013-08-23 00:21:00,
2013-08-22 20:22:00,79.9,73.6,30.03,SW,225,0.0,0.0,81,0.00,,,0.00,VWS V14.01,2013-08-23 00:22:00,
2013-08-22 20:23:00,79.9,73.6,30.03,SW,225,0.0,0.0,81,0.00,,,0.00,VWS V14.01,2013-08-23 00:23:00,
2013-08-22 20:24:00,79.7,73.8,30.03,SW,225,0.0,0.0,82,0.00,,,0.00,VWS V14.01,2013-08-23 00:24:00,
2013-08-22 20:25:00,79.6,73.6,30.03,SSW,202,0.0,0.0,82,0.00,,CLR,0.00,VWS V14.01,2013-08-23 00:25:00,
2013-08-22 20:26:00,79.6,73.6,30.03,SSW,202,0.0,0.0,82,0.00,,,0.00,VWS V14.01,2013-08-23 00:26:00,
2013-08-22 20:27:00,79.4,73.4,30.03,South,180,0.0,0.0,82,0.00,,,0.00,VWS V14.01,2013-08-23 00:27:00,
2013-08-22 20:28:00,79.4,73.4,30.03,South,180,0.0,0.0,82,0.00,,,0.00,VWS V14.01,2013-08-23 00:28:00,
2013-08-22 20:29:00,79.2,73.2,30.03,South,180,0.0,0.0,82,0.00,,,0.00,VWS V14.01,2013-08-23 00:29:00,
2013-08-22 20:30:00,79.0,73.1,30.03,South,180,0.0,0.0,82,0.00,,CLR,0.00,VWS V14.01,2013-08-23 00:30:00,
2013-08-22 20:31:00,79.0,73.1,30.03,South,180,0.0,0.0,82,0.00,,,0.00,VWS V14.01,2013-08-23 00:31:00,
2013-08-22 20:32:00,79.0,73.1,30.03,South,180,0.0,0.0,82,0.00,,,0.00,VWS V14.01,2013-08-23 00:32:00,
2013-08-22 20:33:00,78.8,72.9,30.03,South,180,0.0,0.0,82,0.00,,,0.00,VWS V14.01,2013-08-23 00:33:00,
2013-08-22 20:34:00,78.8,72.9,30.03,South,180,0.0,0.0,82,0.00,,,0.00,VWS V14.01,2013-08-23 00:34:00,
2013-08-22 20:35:00,78.8,72.9,30.03,South,180,0.0,0.0,82,0.00,,CLR,0.00,VWS V14.01,2013-08-23 00:35:00,
2013-08-22 20:36:00,78.8,72.9,30.03,South,180,0.0,0.0,82,0.00,,,0.00,VWS V14.01,2013-08-23 00:36:00,
2013-08-22 20:37:00,78.8,73.2,30.03,South,180,0.0,0.0,83,0.00,,,0.00,VWS V14.01,2013-08-23 00:37:00,
2013-08-22 20:38:00,78.8,73.2,30.03,South,180,0.0,0.0,83,0.00,,,0.00,VWS V14.01,2013-08-23 00:38:00,
2013-08-22 20:39:00,78.7,73.1,30.03,South,180,0.0,0.0,83,0.00,,,0.00,VWS V14.01,2013-08-23 00:39:00,
2013-08-22 20:40:00,78.7,73.4,30.03,South,180,0.0,0.0,84,0.00,,CLR,0.00,VWS V14.01,2013-08-23 00:40:00,
2013-08-22 20:41:00,78.7,73.1,30.03,South,180,0.0,0.0,83,0.00,,,0.00,VWS V14.01,2013-08-23 00:41:00,
2013-08-22 20:42:00,78.7,73.4,30.03,South,180,0.0,0.0,84,0.00,,,0.00,VWS V14.01,2013-08-23 00:42:00,
2013-08-22 20:43:00,78.5,73.2,30.03,South,180,0.0,0.0,84,0.00,,,0.00,VWS V14.01,2013-08-23 00:43:00,
2013-08-22 20:44:00,78.5,73.2,30.03,SSW,202,0.0,0.0,84,0.00,,,0.00,VWS V14.01,2013-08-23 00:44:00,
2013-08-22 20:45:00,78.5,73.6,30.03,NW,315,0.0,0.0,85,0.00,,CLR,0.00,VWS V14.01,2013-08-23 00:45:00,
2013-08-22 20:46:00,78.5,73.2,30.03,NW,315,0.0,0.0,84,0.00,,,0.00,VWS V14.01,2013-08-23 00:46:00,
2013-08-22 20:47:00,78.5,73.6,30.03,NW,315,0.0,0.0,85,0.00,,,0.00,VWS V14.01,2013-08-23 00:47:00,
2013-08-22 20:48:00,78.5,73.6,30.03,NW,315,0.0,0.0,85,0.00,,,0.00,VWS V14.01,2013-08-23 00:48:00,
2013-08-22 20:49:00,78.3,73.4,30.03,NW,315,0.0,0.0,85,0.00,,,0.00,VWS V14.01,2013-08-23 00:49:00,
2013-08-22 20:50:00,78.1,73.2,30.03,NW,315,0.0,0.0,85,0.00,,,0.00,VWS V14.01,2013-08-23 00:50:00,
2013-08-22 20:51:00,78.1,73.2,30.03,NW,315,0.0,0.0,85,0.00,,CLR,0.00,VWS V14.01,2013-08-23 00:51:00,
2013-08-22 20:52:00,78.1,73.2,30.03,NW,315,0.0,0.0,85,0.00,,,0.00,VWS V14.01,2013-08-23 00:52:00,
2013-08-22 20:53:00,78.1,73.2,30.03,NW,315,0.0,0.0,85,0.00,,,0.00,VWS V14.01,2013-08-23 00:53:00,
2013-08-22 20:54:00,78.1,73.2,30.03,NW,315,0.0,0.0,85,0.00,,,0.00,VWS V14.01,2013-08-23 00:54:00,
2013-08-22 20:55:00,77.9,73.1,30.03,NW,315,0.0,0.0,85,0.00,,,0.00,VWS V14.01,2013-08-23 00:55:00,
2013-08-22 20:56:00,77.9,73.1,30.03,NW,315,0.0,0.0,85,0.00,,CLR,0.00,VWS V14.01,2013-08-23 00:56:00,
2013-08-22 20:57:00,77.9,73.1,30.03,NW,315,0.0,0.0,85,0.00,,,0.00,VWS V14.01,2013-08-23 00:57:00,
2013-08-22 20:58:00,77.8,72.9,30.03,NW,315,0.0,0.0,85,0.00,,,0.00,VWS V14.01,2013-08-23 00:58:00,
2013-08-22 20:59:00,77.8,72.9,30.03,NW,315,0.0,0.0,85,0.00,,,0.00,VWS V14.01,2013-08-23 00:59:00,
2013-08-22 21:00:00,77.8,72.9,30.03,NW,315,0.0,0.0,85,0.00,,,0.00,VWS V14.01,2013-08-23 01:00:00,
2013-08-22 21:01:00,77.8,72.9,30.03,WNW,292,0.0,0.0,85,0.00,,CLR,0.00,VWS V14.01,2013-08-23 01:01:00,
2013-08-22 21:02:00,77.8,72.9,30.03,WNW,292,0.0,0.0,85,0.00,,,0.00,VWS V14.01,2013-08-23 01:02:00,
2013-08-22 21:03:00,77.8,73.2,30.03,WNW,292,0.0,0.0,86,0.00,,,0.00,VWS V14.01,2013-08-23 01:03:00,
2013-08-22 21:04:00,77.8,73.2,30.03,West,270,0.0,0.0,86,0.00,,,0.00,VWS V14.01,2013-08-23 01:04:00,
2013-08-22 21:05:00,77.8,73.9,30.03,West,270,1.6,1.6,88,0.00,,,0.00,VWS V14.01,2013-08-23 01:05:00,
2013-08-22 21:06:00,77.8,74.6,30.03,West,270,1.3,1.3,90,0.00,,CLR,0.00,VWS V14.01,2013-08-23 01:06:00,
2013-08-22 21:07:00,77.8,74.9,30.03,West,270,2.7,2.7,91,0.00,,,0.00,VWS V14.01,2013-08-23 01:07:00,
2013-08-22 21:08:00,77.9,75.8,30.03,WNW,292,3.4,3.4,93,0.00,,,0.00,VWS V14.01,2013-08-23 01:08:00,
2013-08-22 21:09:00,77.9,76.4,30.03,West,270,2.5,2.5,95,0.00,,,0.00,VWS V14.01,2013-08-23 01:09:00,
2013-08-22 21:10:00,77.9,76.7,30.06,WSW,248,3.4,3.4,96,0.00,,,0.00,VWS V14.01,2013-08-23 01:10:00,
2013-08-22 21:11:00,77.9,76.7,30.06,West,270,3.4,3.4,96,0.00,,CLR,0.00,VWS V14.01,2013-08-23 01:11:00,
2013-08-22 21:12:00,77.9,76.7,30.06,WSW,248,2.5,2.5,96,0.00,,,0.00,VWS V14.01,2013-08-23 01:12:00,
2013-08-22 21:13:00,78.1,76.9,30.06,West,270,3.4,3.4,96,0.00,,,0.00,VWS V14.01,2013-08-23 01:13:00,
2013-08-22 21:14:00,78.1,76.6,30.06,West,270,3.1,3.1,95,0.00,,,0.00,VWS V14.01,2013-08-23 01:14:00,
2013-08-22 21:15:00,78.1,76.6,30.06,WSW,248,2.5,2.5,95,0.00,,,0.00,VWS V14.01,2013-08-23 01:15:00,
2013-08-22 21:16:00,78.1,76.6,30.06,WSW,248,2.5,2.5,95,0.00,,CLR,0.00,VWS V14.01,2013-08-23 01:16:00,
2013-08-22 21:17:00,78.1,76.6,30.06,WSW,248,2.7,2.7,95,0.00,,,0.00,VWS V14.01,2013-08-23 01:17:00,
2013-08-22 21:18:00,78.3,76.4,30.06,SW,225,2.0,2.0,94,0.00,,,0.00,VWS V14.01,2013-08-23 01:18:00,
2013-08-22 21:19:00,78.3,76.4,30.06,WSW,248,1.6,1.6,94,0.00,,,0.00,VWS V14.01,2013-08-23 01:19:00,
2013-08-22 21:20:00,78.3,76.1,30.06,SSW,202,0.9,0.9,93,0.00,,,0.00,VWS V14.01,2013-08-23 01:20:00,
2013-08-22 21:21:00,78.5,76.3,30.06,WSW,248,2.9,2.9,93,0.00,,CLR,0.00,VWS V14.01,2013-08-23 01:21:00,
2013-08-22 21:22:00,78.5,76.3,30.06,West,270,1.6,1.6,93,0.00,,,0.00,VWS V14.01,2013-08-23 01:22:00,
2013-08-22 21:23:00,78.5,76.3,30.06,West,270,4.9,4.9,93,0.00,,,0.00,VWS V14.01,2013-08-23 01:23:00,
2013-08-22 21:24:00,78.5,76.3,30.06,West,270,4.5,4.5,93,0.00,,,0.00,VWS V14.01,2013-08-23 01:24:00,
2013-08-22 21:25:00,78.5,76.3,30.09,WSW,248,2.7,2.7,93,0.00,,,0.00,VWS V14.01,2013-08-23 01:25:00,
2013-08-22 21:26:00,78.7,76.5,30.09,SSW,202,2.2,2.2,93,0.00,,CLR,0.00,VWS V14.01,2013-08-23 01:26:00,
2013-08-22 21:27:00,78.7,76.5,30.09,SSW,202,2.2,2.2,93,0.00,,,0.00,VWS V14.01,2013-08-23 01:27:00,
2013-08-22 21:28:00,78.7,76.1,30.09,WSW,248,1.3,1.3,92,0.00,,,0.00,VWS V14.01,2013-08-23 01:28:00,
2013-08-22 21:29:00,78.7,76.1,30.09,SW,225,1.3,1.3,92,0.00,,,0.00,VWS V14.01,2013-08-23 01:29:00,
2013-08-22 21:30:00,78.7,76.1,30.09,SSW,202,2.2,2.2,92,0.00,,,0.00,VWS V14.01,2013-08-23 01:30:00,
2013-08-22 21:31:00,78.7,76.1,30.09,SW,225,3.4,3.4,92,0.00,,CLR,0.00,VWS V14.01,2013-08-23 01:31:00,
2013-08-22 21:32:00,78.7,76.1,30.09,SW,225,3.4,3.4,92,0.00,,,0.00,VWS V14.01,2013-08-23 01:32:00,
2013-08-22 21:33:00,78.7,76.1,30.09,SW,225,1.3,1.3,92,0.00,,,0.00,VWS V14.01,2013-08-23 01:33:00,
2013-08-22 21:34:00,78.7,76.1,30.09,West,270,0.0,0.0,92,0.00,,,0.00,VWS V14.01,2013-08-23 01:34:00,
2013-08-22 21:35:00,78.7,76.1,30.09,West,270,2.5,2.5,92,0.00,,,0.00,VWS V14.01,2013-08-23 01:35:00,
2013-08-22 21:36:00,78.7,76.5,30.09,West,270,3.4,3.4,93,0.00,,CLR,0.00,VWS V14.01,2013-08-23 01:36:00,
2013-08-22 21:37:00,78.7,76.5,30.09,West,270,3.4,3.4,93,0.00,,,0.00,VWS V14.01,2013-08-23 01:37:00,
2013-08-22 21:38:00,78.7,76.5,30.09,West,270,3.6,3.6,93,0.00,,,0.00,VWS V14.01,2013-08-23 01:38:00,
2013-08-22 21:39:00,78.7,76.5,30.09,WNW,292,2.0,2.0,93,0.00,,,0.00,VWS V14.01,2013-08-23 01:39:00,
2013-08-22 21:40:00,78.7,76.5,30.09,West,270,1.3,1.3,93,0.00,,,0.00,VWS V14.01,2013-08-23 01:40:00,
2013-08-22 21:41:00,78.7,76.1,30.09,WSW,248,1.3,1.3,92,0.00,,CLR,0.00,VWS V14.01,2013-08-23 01:41:00,
2013-08-22 21:42:00,78.7,76.1,30.09,WSW,248,1.3,1.3,92,0.00,,,0.00,VWS V14.01,2013-08-23 01:42:00,
2013-08-22 21:43:00,78.7,76.1,30.09,WSW,248,2.2,2.2,92,0.00,,,0.00,VWS V14.01,2013-08-23 01:43:00,
2013-08-22 21:44:00,78.7,76.1,30.09,West,270,0.0,0.0,92,0.00,,,0.00,VWS V14.01,2013-08-23 01:44:00,
2013-08-22 21:45:00,78.7,76.1,30.09,WSW,248,0.0,0.0,92,0.00,,,0.00,VWS V14.01,2013-08-23 01:45:00,
2013-08-22 21:46:00,78.7,75.8,30.09,West,270,1.3,1.3,91,0.00,,CLR,0.00,VWS V14.01,2013-08-23 01:46:00,
2013-08-22 21:47:00,78.7,75.8,30.09,West,270,1.6,1.6,91,0.00,,,0.00,VWS V14.01,2013-08-23 01:47:00,
2013-08-22 21:48:00,78.7,75.8,30.09,WSW,248,2.0,2.0,91,0.00,,,0.00,VWS V14.01,2013-08-23 01:48:00,
2013-08-22 21:49:00,78.5,76.0,30.09,WSW,248,2.5,2.5,92,0.00,,,0.00,VWS V14.01,2013-08-23 01:49:00,
2013-08-22 21:50:00,78.5,76.0,30.09,WSW,248,1.3,1.3,92,0.00,,,0.00,VWS V14.01,2013-08-23 01:50:00,
2013-08-22 21:51:00,78.3,75.8,30.09,SW,225,1.1,1.1,92,0.00,,CLR,0.00,VWS V14.01,2013-08-23 01:51:00,
2013-08-22 21:52:00,78.3,75.8,30.09,SW,225,1.1,1.1,92,0.00,,,0.00,VWS V14.01,2013-08-23 01:52:00,
2013-08-22 21:53:00,78.3,75.5,30.09,SSW,202,1.6,1.6,91,0.00,,,0.00,VWS V14.01,2013-08-23 01:53:00,
2013-08-22 21:54:00,78.1,75.3,30.09,WSW,248,1.6,1.6,91,0.00,,,0.00,VWS V14.01,2013-08-23 01:54:00,
2013-08-22 21:55:00,78.1,75.3,30.09,West,270,2.5,2.5,91,0.00,,,0.00,VWS V14.01,2013-08-23 01:55:00,
2013-08-22 21:56:00,78.1,75.9,30.09,WSW,248,0.0,0.0,93,0.00,,CLR,0.00,VWS V14.01,2013-08-23 01:56:00,
2013-08-22 21:57:00,78.1,75.9,30.09,WSW,248,1.1,1.1,93,0.00,,,0.00,VWS V14.01,2013-08-23 01:57:00,
2013-08-22 21:58:00,78.1,75.9,30.09,WSW,248,0.0,0.0,93,0.00,,,0.00,VWS V14.01,2013-08-23 01:58:00,
2013-08-22 21:59:00,78.1,75.9,30.09,WSW,248,0.0,0.0,93,0.00,,,0.00,VWS V14.01,2013-08-23 01:59:00,
2013-08-22 22:00:00,78.1,75.9,30.09,WNW,292,0.9,0.9,93,0.00,,,0.00,VWS V14.01,2013-08-23 02:00:00,
2013-08-22 22:01:00,77.9,75.8,30.09,WSW,248,1.6,1.6,93,0.00,,CLR,0.00,VWS V14.01,2013-08-23 02:01:00,
2013-08-22 22:02:00,77.9,75.8,30.09,West,270,1.6,1.6,93,0.00,,,0.00,VWS V14.01,2013-08-23 02:02:00,
2013-08-22 22:03:00,77.9,75.8,30.09,WSW,248,2.0,2.0,93,0.00,,,0.00,VWS V14.01,2013-08-23 02:03:00,
2013-08-22 22:04:00,77.9,75.8,30.09,West,270,4.0,4.0,93,0.00,,,0.00,VWS V14.01,2013-08-23 02:04:00,
2013-08-22 22:05:00,77.9,75.8,30.09,West,270,2.9,2.9,93,0.00,,,0.00,VWS V14.01,2013-08-23 02:05:00,
2013-08-22 22:06:00,77.9,75.4,30.09,West,270,3.1,3.1,92,0.00,,,0.00,VWS V14.01,2013-08-23 02:06:00,
2013-08-22 22:07:00,77.9,75.4,30.09,West,270,2.9,2.9,92,0.00,,CLR,0.00,VWS V14.01,2013-08-23 02:07:00,
2013-08-22 22:08:00,77.9,75.4,30.09,WSW,248,2.5,2.5,92,0.00,,,0.00,VWS V14.01,2013-08-23 02:08:00,
2013-08-22 22:09:00,77.9,75.1,30.09,WSW,248,2.5,2.5,91,0.00,,,0.00,VWS V14.01,2013-08-23 02:09:00,
2013-08-22 22:10:00,77.9,75.1,30.09,SW,225,3.1,3.1,91,0.00,,,0.00,VWS V14.01,2013-08-23 02:10:00,
2013-08-22 22:11:00,77.8,74.9,30.09,SSW,202,3.1,3.1,91,0.00,,,0.00,VWS V14.01,2013-08-23 02:11:00,
2013-08-22 22:12:00,77.8,74.9,30.09,WSW,248,2.9,2.9,91,0.00,,CLR,0.00,VWS V14.01,2013-08-23 02:12:00,
2013-08-22 22:13:00,77.8,74.9,30.09,SW,225,2.7,2.7,91,0.00,,,0.00,VWS V14.01,2013-08-23 02:13:00,
2013-08-22 22:14:00,77.8,74.6,30.09,WSW,248,2.0,2.0,90,0.00,,,0.00,VWS V14.01,2013-08-23 02:14:00,
2013-08-22 22:15:00,77.8,74.6,30.09,WSW,248,1.1,1.1,90,0.00,,,0.00,VWS V14.01,2013-08-23 02:15:00,
2013-08-22 22:16:00,77.6,74.4,30.09,WSW,248,2.5,2.5,90,0.00,,,0.00,VWS V14.01,2013-08-23 02:16:00,
2013-08-22 22:17:00,77.6,74.1,30.09,WSW,248,2.0,2.0,89,0.00,,CLR,0.00,VWS V14.01,2013-08-23 02:17:00,
2013-08-22 22:18:00,77.6,74.1,30.09,WSW,248,2.0,2.0,89,0.00,,,0.00,VWS V14.01,2013-08-23 02:18:00,
2013-08-22 22:19:00,77.6,74.1,30.09,SSW,202,1.1,1.1,89,0.00,,,0.00,VWS V14.01,2013-08-23 02:19:00,
2013-08-22 22:20:00,77.6,74.1,30.09,SSW,202,2.7,2.7,89,0.00,,,0.00,VWS V14.01,2013-08-23 02:20:00,
2013-08-22 22:21:00,77.6,74.1,30.09,SSW,202,4.3,4.3,89,0.00,,,0.00,VWS V14.01,2013-08-23 02:21:00,
2013-08-22 22:22:00,77.4,73.9,30.09,SSE,158,2.5,2.5,89,0.00,,CLR,0.00,VWS V14.01,2013-08-23 02:22:00,
2013-08-22 22:23:00,77.4,73.9,30.09,SSE,158,2.2,2.2,89,0.00,,,0.00,VWS V14.01,2013-08-23 02:23:00,
2013-08-22 22:24:00,77.4,73.9,30.09,SSE,158,1.3,1.3,89,0.00,,,0.00,VWS V14.01,2013-08-23 02:24:00,
2013-08-22 22:25:00,77.4,73.9,30.09,SSE,158,2.9,2.9,89,0.00,,,0.00,VWS V14.01,2013-08-23 02:25:00,
2013-08-22 22:26:00,77.4,73.9,30.09,SSE,158,3.1,3.1,89,0.00,,,0.00,VWS V14.01,2013-08-23 02:26:00,
2013-08-22 22:27:00,77.4,73.9,30.09,SSW,202,2.7,2.7,89,0.00,,CLR,0.00,VWS V14.01,2013-08-23 02:27:00,
2013-08-22 22:28:00,77.4,73.9,30.09,SSW,202,2.7,2.7,89,0.00,,,0.00,VWS V14.01,2013-08-23 02:28:00,
2013-08-22 22:29:00,77.2,74.1,30.09,SSE,158,1.3,1.3,90,0.00,,,0.00,VWS V14.01,2013-08-23 02:29:00,
2013-08-22 22:30:00,77.2,74.1,30.09,SSW,202,0.0,0.0,90,0.00,,,0.00,VWS V14.01,2013-08-23 02:30:00,
2013-08-22 22:31:00,77.2,74.1,30.09,SSW,202,1.3,1.3,90,0.00,,,0.00,VWS V14.01,2013-08-23 02:31:00,
2013-08-22 22:32:00,77.2,74.1,30.09,South,180,0.0,0.0,90,0.00,,CLR,0.00,VWS V14.01,2013-08-23 02:32:00,
2013-08-22 22:33:00,77.2,74.1,30.09,South,180,0.0,0.0,90,0.00,,,0.00,VWS V14.01,2013-08-23 02:33:00,
2013-08-22 22:34:00,77.2,74.1,30.09,SE,135,3.4,3.4,90,0.00,,,0.00,VWS V14.01,2013-08-23 02:34:00,
2013-08-22 22:35:00,77.2,74.1,30.09,SSW,202,2.2,2.2,90,0.00,,,0.00,VWS V14.01,2013-08-23 02:35:00,
2013-08-22 22:36:00,77.2,74.1,30.09,SSE,158,2.7,2.7,90,0.00,,,0.00,VWS V14.01,2013-08-23 02:36:00,
2013-08-22 22:37:00,77.2,74.4,30.09,SSW,202,1.1,1.1,91,0.00,,CLR,0.00,VWS V14.01,2013-08-23 02:37:00,
2013-08-22 22:38:00,77.2,74.4,30.09,SSW,202,1.1,1.1,91,0.00,,,0.00,VWS V14.01,2013-08-23 02:38:00,
2013-08-22 22:39:00,77.2,74.4,30.09,South,180,3.6,3.6,91,0.00,,,0.00,VWS V14.01,2013-08-23 02:39:00,
2013-08-22 22:40:00,77.2,74.4,30.09,SW,225,2.7,2.7,91,0.00,,,0.00,VWS V14.01,2013-08-23 02:40:00,
2013-08-22 22:41:00,77.2,74.7,30.09,SSW,202,2.5,2.5,92,0.00,,,0.00,VWS V14.01,2013-08-23 02:41:00,
2013-08-22 22:42:00,77.2,74.7,30.09,South,180,2.7,2.7,92,0.00,,CLR,0.00,VWS V14.01,2013-08-23 02:42:00,
2013-08-22 22:43:00,77.2,74.7,30.09,South,180,2.7,2.7,92,0.00,,,0.00,VWS V14.01,2013-08-23 02:43:00,
2013-08-22 22:44:00,77.0,74.5,30.09,SSW,202,1.6,1.6,92,0.00,,,0.00,VWS V14.01,2013-08-23 02:44:00,
2013-08-22 22:45:00,77.0,74.5,30.09,SSW,202,2.5,2.5,92,0.00,,,0.00,VWS V14.01,2013-08-23 02:45:00,
2013-08-22 22:46:00,77.0,74.5,30.09,SSW,202,0.0,0.0,92,0.00,,,0.00,VWS V14.01,2013-08-23 02:46:00,
2013-08-22 22:47:00,76.9,74.4,30.09,SW,225,0.0,0.0,92,0.00,,CLR,0.00,VWS V14.01,2013-08-23 02:47:00,
2013-08-22 22:48:00,76.9,74.4,30.09,SW,225,0.0,0.0,92,0.00,,,0.00,VWS V14.01,2013-08-23 02:48:00,
2013-08-22 22:49:00,76.9,74.4,30.09,SW,225,0.0,0.0,92,0.00,,,0.00,VWS V14.01,2013-08-23 02:49:00,
2013-08-22 22:50:00,76.9,74.4,30.09,SW,225,0.0,0.0,92,0.00,,,0.00,VWS V14.01,2013-08-23 02:50:00,
2013-08-22 22:51:00,76.9,74.4,30.09,SSE,158,1.3,1.3,92,0.00,,,0.00,VWS V14.01,2013-08-23 02:51:00,
2013-08-22 22:52:00,76.9,74.4,30.09,SSE,158,2.2,2.2,92,0.00,,CLR,0.00,VWS V14.01,2013-08-23 02:52:00,
2013-08-22 22:53:00,76.9,74.4,30.09,SSE,158,2.2,2.2,92,0.00,,,0.00,VWS V14.01,2013-08-23 02:53:00,
2013-08-22 22:54:00,76.9,74.4,30.09,SSE,158,2.7,2.7,92,0.00,,,0.00,VWS V14.01,2013-08-23 02:54:00,
2013-08-22 22:55:00,76.9,74.4,30.09,SSE,158,2.5,2.5,92,0.00,,,0.00,VWS V14.01,2013-08-23 02:55:00,
2013-08-22 22:56:00,76.9,74.4,30.09,SSW,202,1.6,1.6,92,0.00,,,0.00,VWS V14.01,2013-08-23 02:56:00,
2013-08-22 22:57:00,76.9,74.4,30.09,SSW,202,2.2,2.2,92,0.00,,CLR,0.00,VWS V14.01,2013-08-23 02:57:00,
2013-08-22 22:58:00,76.9,74.4,30.09,SSW,202,2.2,2.2,92,0.00,,,0.00,VWS V14.01,2013-08-23 02:58:00,
2013-08-22 22:59:00,76.9,74.7,30.09,SW,225,2.2,2.2,93,0.00,,,0.00,VWS V14.01,2013-08-23 02:59:00,
2013-08-22 23:00:00,76.9,74.7,30.09,SW,225,2.5,2.5,93,0.00,,,0.00,VWS V14.01,2013-08-23 03:00:00,
2013-08-22 23:01:00,76.9,75.0,30.09,SW,225,2.7,2.7,94,0.00,,,0.00,VWS V14.01,2013-08-23 03:01:00,
2013-08-22 23:02:00,76.9,75.0,30.09,SW,225,3.4,3.4,94,0.00,,CLR,0.00,VWS V14.01,2013-08-23 03:02:00,
2013-08-22 23:03:00,76.9,75.0,30.09,SW,225,3.4,3.4,94,0.00,,,0.00,VWS V14.01,2013-08-23 03:03:00,
2013-08-22 23:04:00,76.9,75.0,30.09,WSW,248,2.2,2.2,94,0.00,,,0.00,VWS V14.01,2013-08-23 03:04:00,
2013-08-22 23:05:00,76.9,75.0,30.09,WSW,248,2.5,2.5,94,0.00,,,0.00,VWS V14.01,2013-08-23 03:05:00,
2013-08-22 23:06:00,76.9,75.0,30.09,WSW,248,3.6,3.6,94,0.00,,,0.00,VWS V14.01,2013-08-23 03:06:00,
2013-08-22 23:07:00,76.9,75.0,30.09,WSW,248,2.0,2.0,94,0.00,,CLR,0.00,VWS V14.01,2013-08-23 03:07:00,
2013-08-22 23:08:00,76.9,75.0,30.09,WSW,248,2.7,2.7,94,0.00,,,0.00,VWS V14.01,2013-08-23 03:08:00,
2013-08-22 23:09:00,76.9,75.0,30.09,West,270,2.0,2.0,94,0.00,,,0.00,VWS V14.01,2013-08-23 03:09:00,
2013-08-22 23:10:00,76.9,74.7,30.09,West,270,1.6,1.6,93,0.00,,,0.00,VWS V14.01,2013-08-23 03:10:00,
2013-08-22 23:11:00,76.9,74.7,30.09,West,270,0.0,0.0,93,0.00,,,0.00,VWS V14.01,2013-08-23 03:11:00,
2013-08-22 23:12:00,76.7,74.5,30.09,SW,225,1.1,1.1,93,0.00,,CLR,0.00,VWS V14.01,2013-08-23 03:12:00,
2013-08-22 23:13:00,76.7,74.5,30.09,WSW,248,2.0,2.0,93,0.00,,,0.00,VWS V14.01,2013-08-23 03:13:00,
2013-08-22 23:14:00,76.7,74.5,30.09,SSW,202,2.7,2.7,93,0.00,,,0.00,VWS V14.01,2013-08-23 03:14:00,
2013-08-22 23:15:00,76.7,74.5,30.09,WSW,248,0.9,0.9,93,0.00,,,0.00,VWS V14.01,2013-08-23 03:15:00,
2013-08-22 23:16:00,76.7,74.5,30.09,WSW,248,0.0,0.0,93,0.00,,,0.00,VWS V14.01,2013-08-23 03:16:00,
2013-08-22 23:17:00,76.7,74.5,30.09,WSW,248,0.0,0.0,93,0.00,,CLR,0.00,VWS V14.01,2013-08-23 03:17:00,
2013-08-22 23:18:00,76.7,74.5,30.09,SW,225,0.0,0.0,93,0.00,,,0.00,VWS V14.01,2013-08-23 03:18:00,
2013-08-22 23:19:00,76.7,74.5,30.09,West,270,0.0,0.0,93,0.00,,,0.00,VWS V14.01,2013-08-23 03:19:00,
2013-08-22 23:20:00,76.7,74.5,30.09,West,270,0.0,0.0,93,0.00,,,0.00,VWS V14.01,2013-08-23 03:20:00,
2013-08-22 23:21:00,76.5,74.0,30.09,West,270,0.0,0.0,92,0.00,,,0.00,VWS V14.01,2013-08-23 03:21:00,
2013-08-22 23:22:00,76.5,74.3,30.09,WNW,292,1.6,1.6,93,0.00,,CLR,0.00,VWS V14.01,2013-08-23 03:22:00,
2013-08-22 23:23:00,76.5,74.3,30.09,WNW,292,1.6,1.6,93,0.00,,,0.00,VWS V14.01,2013-08-23 03:23:00,
2013-08-22 23:24:00,76.5,74.3,30.09,WNW,292,1.3,1.3,93,0.00,,,0.00,VWS V14.01,2013-08-23 03:24:00,
2013-08-22 23:25:00,76.5,74.3,30.09,NW,315,0.9,0.9,93,0.00,,,0.00,VWS V14.01,2013-08-23 03:25:00,
2013-08-22 23:26:00,76.5,74.3,30.09,West,270,2.0,2.0,93,0.00,,,0.00,VWS V14.01,2013-08-23 03:26:00,
2013-08-22 23:27:00,76.3,74.2,30.09,NW,315,0.0,0.0,93,0.00,,CLR,0.00,VWS V14.01,2013-08-23 03:27:00,
2013-08-22 23:28:00,76.5,74.3,30.09,NW,315,0.9,0.9,93,0.00,,,0.00,VWS V14.01,2013-08-23 03:28:00,
2013-08-22 23:29:00,76.3,74.2,30.09,NW,315,0.0,0.0,93,0.00,,,0.00,VWS V14.01,2013-08-23 03:29:00,
2013-08-22 23:30:00,76.3,74.2,30.09,WNW,292,0.0,0.0,93,0.00,,,0.00,VWS V14.01,2013-08-23 03:30:00,
2013-08-22 23:31:00,76.3,74.2,30.09,NW,315,0.0,0.0,93,0.00,,,0.00,VWS V14.01,2013-08-23 03:31:00,
2013-08-22 23:32:00,76.3,74.5,30.09,WSW,248,1.6,1.6,94,0.00,,CLR,0.00,VWS V14.01,2013-08-23 03:32:00,
2013-08-22 23:33:00,76.1,74.0,30.09,WSW,248,0.0,0.0,93,0.00,,,0.00,VWS V14.01,2013-08-23 03:33:00,
2013-08-22 23:34:00,76.3,74.5,30.09,WSW,248,2.7,2.7,94,0.00,,,0.00,VWS V14.01,2013-08-23 03:34:00,
2013-08-22 23:35:00,76.1,74.3,30.09,SSW,202,2.5,2.5,94,0.00,,,0.00,VWS V14.01,2013-08-23 03:35:00,
2013-08-22 23:36:00,76.1,74.3,30.09,SSW,202,2.9,2.9,94,0.00,,,0.00,VWS V14.01,2013-08-23 03:36:00,
2013-08-22 23:37:00,76.1,74.6,30.09,SW,225,2.9,2.9,95,0.00,,CLR,0.00,VWS V14.01,2013-08-23 03:37:00,
2013-08-22 23:38:00,76.1,74.6,30.09,SW,225,3.6,3.6,95,0.00,,,0.00,VWS V14.01,2013-08-23 03:38:00,
2013-08-22 23:39:00,76.0,74.4,30.09,SW,225,2.9,2.9,95,0.00,,,0.00,VWS V14.01,2013-08-23 03:39:00,
2013-08-22 23:40:00,76.0,74.7,30.06,WSW,248,2.9,2.9,96,0.00,,,0.00,VWS V14.01,2013-08-23 03:40:00,
2013-08-22 23:41:00,76.0,74.7,30.06,WSW,248,3.6,3.6,96,0.00,,,0.00,VWS V14.01,2013-08-23 03:41:00,
2013-08-22 23:42:00,76.0,74.7,30.06,West,270,2.5,2.5,96,0.00,,,0.00,VWS V14.01,2013-08-23 03:42:00,
2013-08-22 23:43:00,76.0,74.7,30.06,West,270,2.5,2.5,96,0.00,,CLR,0.00,VWS V14.01,2013-08-23 03:43:00,
2013-08-22 23:44:00,76.0,74.7,30.06,WNW,292,2.7,2.7,96,0.00,,,0.00,VWS V14.01,2013-08-23 03:44:00,
2013-08-22 23:45:00,76.0,75.1,30.06,West,270,2.9,2.9,97,0.00,,CLR,0.00,VWS V14.01,2013-08-23 03:45:00,
2013-08-22 23:46:00,76.0,75.1,30.06,West,270,2.5,2.5,97,0.00,,CLR,0.00,VWS V14.01,2013-08-23 03:46:00,
2013-08-22 23:47:00,76.0,75.1,30.06,West,270,2.7,2.7,97,0.00,,,0.00,VWS V14.01,2013-08-23 03:47:00,
2013-08-22 23:48:00,76.0,75.1,30.06,WSW,248,1.1,1.1,97,0.00,,CLR,0.00,VWS V14.01,2013-08-23 03:48:00,
2013-08-22 23:49:00,76.0,75.1,30.06,WSW,248,0.0,0.0,97,0.00,,,0.00,VWS V14.01,2013-08-23 03:49:00,
2013-08-22 23:50:00,76.0,74.7,30.06,SSW,202,0.0,0.0,96,0.00,,,0.00,VWS V14.01,2013-08-23 03:50:00,
2013-08-22 23:51:00,76.0,74.7,30.06,WSW,248,0.0,0.0,96,0.00,,,0.00,VWS V14.01,2013-08-23 03:51:00,
2013-08-22 23:52:00,76.0,74.7,30.06,WSW,248,0.0,0.0,96,0.00,,,0.00,VWS V14.01,2013-08-23 03:52:00,
2013-08-22 23:53:00,76.0,74.7,30.06,West,270,1.1,1.1,96,0.00,,CLR,0.00,VWS V14.01,2013-08-23 03:53:00,
2013-08-22 23:54:00,76.0,74.7,30.06,WNW,292,1.6,1.6,96,0.00,,,0.00,VWS V14.01,2013-08-23 03:54:00,
2013-08-22 23:55:00,76.0,74.7,30.09,NW,315,1.1,1.1,96,0.00,,,0.00,VWS V14.01,2013-08-23 03:55:00,
2013-08-22 23:56:00,76.0,74.7,30.09,WNW,292,0.0,0.0,96,0.00,,,0.00,VWS V14.01,2013-08-23 03:56:00,
2013-08-22 23:57:00,75.8,74.6,30.09,WSW,248,0.0,0.0,96,0.00,,,0.00,VWS V14.01,2013-08-23 03:57:00,
2013-08-22 23:58:00,76.0,75.1,30.09,WSW,248,3.6,3.6,97,0.00,,CLR,0.00,VWS V14.01,2013-08-23 03:58:00,
2013-08-22 23:59:00,76.0,75.1,30.09,SSW,202,2.5,2.5,97,0.00,,,0.00,VWS V14.01,2013-08-23 03:59:00,